     2              OBSERVATION DATA    GPS                 RINEX VERSION / TYPE
teqc 2002Apr3 20040913 17:08:47UTC                          PGM / RUN BY / DATE
                                                            COMMENT
L2: 1 -> 1; 5 -> 5; 60 -> 9                                 COMMENT
L2: 1 -> 1; 5 -> 5; 60 -> 9                                 COMMENT
L2: 1 -> 1; 5 -> 5; 60 -> 9                                 COMMENT
L2: 1 -> 1; 5 -> 5; 60 -> 9                                 COMMENT
Original Marker Name: VIS ARP 1955                          COMMENT
Campaign Name: NGS Airport Survey 1993                      COMMENT
4-Character Station Name: VISR                              COMMENT
6-Character Antenna Code: TRMSST                            COMMENT
Vertical Measurement Point: TGP                             COMMENT
Vertical Offset to Rinex Ref. Point: 0.0629                 COMMENT
Radial Measurement Point: NGP                               COMMENT
Radial Offset to Rinex Ref. Point: 0.2334                   COMMENT
Antenna Height from Field Measurement: 1.4650 m             COMMENT
Additional Antenna Identification Info.:                    COMMENT
Model 14532.00                                              COMMENT
Original XYZ: -2525257.8725 -4482775.7739 3756859.4324      COMMENT
New XYZ position is based on association with SCEC monument COMMENT
E1F1X2U8+0011. Position of that monument is believed to be  COMMENT
valid to within 1 m horizontally; vertical accuracy         COMMENT
should be no worse than 3-times this value.                 COMMENT
                                                            COMMENT
Revised Rinex header created by UCSD GPS archive for        COMMENT
GSAC on 22-Mar-2005 (2005:081) 16:45:01 GMT                 COMMENT
For assistance contact dagnew@ucsd.edu                      COMMENT
or anderson@python.ucsd.edu                                 COMMENT
                                                            COMMENT
VIS ARP 1955                                                MARKER NAME
VISR                                                        MARKER NUMBER
-Unknown- NGS                                               OBSERVER / AGENCY
2236 TRIMBLE 4000 SST NP 4.80 / SP 1.15                     REC # / TYPE / VERS
454 TR 4000SST L1/L2 GEO                                    ANT # / TYPE
 -2525257.0000 -4482780.0000  3756860.0000                  APPROX POSITION XYZ
        1.3834        0.0000        0.0000                  ANTENNA: DELTA H/E/N
     1     1     0                                          WAVELENGTH FACT L1/2
     5    C1    L1    L2    S1    S2                        # / TYPES OF OBSERV
     0                                                      INTERVAL
  1993     3    31    18     2   30.000000                  TIME OF FIRST OBS
  1993     3    31    23    31   45.000000                  TIME OF LAST OBS
                                                            END OF HEADER
 93  3 31 18  2 30.0000000  0  4G18G14G19G29
  20722723.695          -0.39217                        27.500
  22647048.016          -0.76216                        14.500
  21680802.781          -0.23316                        16.000
  20951634.828          -0.85017                        25.000
 93  3 31 18  2 45.0000000  0  4G18G14G19G29
  20720852.328       -9836.104 7                        27.500
  22658433.539       59830.945 6                        14.500
  21677844.359      -15522.231 6                        16.500
  20955594.914       20802.505 7                        25.000
 93  3 31 18  3  0.0000000  0  5G18G14G19G27G29
  20718977.055      -19695.128 7        -0.03716        27.750          18.250
  22669813.867      119627.122 6        -0.73415        14.250          10.000
  21674889.094      -31073.765 6        -0.76516        16.000          14.250
  24605060.258                                           5.750
  20959550.023       41595.338 7        -0.00416        25.000          17.500
 93  3 31 18  3 15.0000000  0  5G18G14G19G27G29
  20717097.570      -29575.583 7     -7699.094 6        27.750          18.500
  22681182.234      179391.964 6     46569.182 5        14.000           9.750
  21671920.039      -46655.078 6    -12142.030 6        16.500          14.000
  24598645.586      -33726.128 3                         5.500
  20963507.047       62380.536 7     16196.233 6        25.000          17.500
 93  3 31 18  3 30.0000000  0  5G18G14G19G27G29
  20715212.469      -39473.100 7    -15411.447 6        27.750          18.500
  22692553.594      239128.758 6     93117.243 5        14.250           9.500
  21668955.992      -62263.791 6    -24304.642 6        16.250          14.000
  24592200.305      -67516.887 3                         5.500
  20967461.875       83161.884 7     32389.475 6        25.000          17.500
 93  3 31 18  3 45.0000000  0  5G18G14G19G27G29
  20713326.305      -49379.390 7    -23130.635 6        27.750          18.500
  22703917.391      298849.204 6    139652.560 5        14.250           9.750
  21665976.242      -77888.823 6    -36479.971 6        16.500          14.250
  24585765.633     -101366.661 3        -0.63015         5.500           5.000
  20971415.883      103945.131 7     48584.195 6        25.000          17.500
 93  3 31 18  4  0.0000000  0  6G18G14G19G27G28G29
  20711442.391      -59297.665 7    -30859.164 6        27.750          18.500
  22715279.727      358553.199 6    186175.059 5        14.250           9.750
  21663004.352      -93530.535 6    -48668.299 6        16.250          14.250
  24579312.273     -135278.588 3    -26425.509 5         5.750           5.000
  24512980.297          -0.36015                         8.250
  20975370.234      124726.665 7     64777.579 6        25.000          17.500
 93  3 31 18  4 15.0000000  0  6G18G14G19G27G28G29
  20709553.352      -69224.187 7    -38594.113 6        27.750          18.750
  22726638.258      418243.894 6    232687.192 5        14.250           9.500
  21660017.555     -109188.286 6    -60869.127 6        16.500          14.250
  24572845.680     -169250.600 3    -52897.197 5         5.750           5.250
  24508689.469      -22514.058 5                         8.000
  20979324.992      145510.519 7     80972.771 6        25.000          17.500
 93  3 31 18  4 30.0000000  0  6G18G14G19G27G28G29
  20707662.484      -79154.437 7    -46331.975 6        27.750          18.750
  22737995.992      477926.884 6    279193.320 5        14.500           9.500
  21657042.969     -124855.800 6    -73077.558 6        16.250          14.250
  24566382.352     -203278.305 3    -79412.282 5         5.750           5.250
  24504411.047      -45043.692 5                         8.250
  20983283.594      166305.804 7     97176.864 6        25.000          17.500
 93  3 31 18  4 45.0000000  0  6G18G14G19G27G28G29
  20705773.945      -89079.890 7    -54066.096 6        27.750          18.750
  22749352.336      537607.462 6    325697.567 5        14.250           9.500
  21654056.328     -140528.563 6    -85290.094 6        16.750          13.500
  24559896.164     -237353.940 3   -105964.724 5         6.000           5.500
  24500122.523      -67580.219 5        -0.45015         8.500           7.000
  20987243.930      187117.343 7    113393.628 6        25.000          17.500
 93  3 31 18  5  0.0000000  0  6G18G14G19G27G28G29
  20703886.094      -98997.558 7    -61794.153 6        27.500          19.000
  22760711.398      597287.935 6    372201.738 5        14.500           9.500
  21651078.148     -156207.101 6    -97507.145 6        16.500          13.000
  24553394.102     -271475.145 3   -132552.666 5         6.000           5.500
  24495823.852      -90120.214 5    -17563.999 5         8.500           7.250
  20991205.320      207944.271 7    129622.386 6        24.750          17.500
 93  3 31 18  5 15.0000000  0  6G18G14G19G27G28G29
  20702000.391     -108909.919 7    -69518.074 6        27.500          19.000
  22772068.563      656965.672 6    418703.779 5        14.250           9.250
  21648086.664     -171896.120 6   -109732.322 6        17.250          12.750
  24546898.195     -305644.834 3   -159178.409 5         6.000           5.750
  24491538.484     -112665.454 5    -35131.645 5         8.500           7.000
  20995169.523      228784.812 7    145861.755 6        24.750          17.500
 93  3 31 18  5 30.0000000  0  6G18G14G19G27G28G29
  20700113.820     -118812.809 7    -77234.618 6        27.500          19.000
  22783419.320      716638.532 6    465202.016 5        14.000           9.250
  21645099.641     -187595.621 6   -121965.681 6        17.000          12.750
  24540386.992     -339863.364 4   -185842.183 5         6.250           5.750
  24487249.320     -135213.499 5    -52701.469 5         8.500           7.250
  20999141.828      249638.693 7    162111.517 6        25.000          17.750
 93  3 31 18  5 45.0000000  0  6G18G14G19G27G28G29
  20698233.016     -128701.032 7    -84939.727 6        27.500          19.000
  22794777.453      776308.565 6    511698.045 5        14.000           9.250
  21642110.688     -203301.044 6   -134203.657 6        17.000          12.750
  24533857.078     -374124.387 3   -212539.087 5         6.000           5.750
  24482958.992     -157758.821 5    -70269.184 5         8.500           7.250
  21003112.156      270509.224 7    178374.251 6        25.000          17.750
 93  3 31 18  6  0.0000000  0  6G18G14G19G27G28G29
  20696355.633     -138575.687 7    -92634.270 6        27.500          19.000
  22806126.906      835973.365 6    558189.990 5        14.000           9.250
  21639131.531     -219012.433 6   -146446.281 6        16.000          12.750
  24527340.586     -408426.513 4   -239268.030 5         6.500           5.750
  24478667.453     -180300.299 5    -87833.898 5         8.500           7.250
  21007085.672      291396.195 7    194649.798 6        25.250          17.750
 93  3 31 18  6 15.0000000  0  6G18G14G19G27G28G29
  20694477.773     -148434.883 7   -100316.762 6        27.500          19.000
  22817485.125      895631.501 6    604676.764 5        13.750           9.250
  21636128.609     -234731.368 6   -158694.784 6        17.250          12.750
  24520806.172     -442768.512 4   -266028.016 5         6.750           5.750
  24474376.984     -202837.228 5   -105395.062 5         8.500           7.250
  21011065.219      312301.346 7    210939.509 6        25.000          17.750
 93  3 31 18  6 30.0000000  0  6G18G14G19G27G28G29
  20692605.383     -158275.588 7   -107984.850 6        27.750          19.000
  22828833.258      955282.950 6    651158.311 5        13.750           9.250
  21633142.570     -250455.029 6   -170946.968 6        17.250          12.750
  24514253.305     -477150.876 4   -292819.475 5         6.750           6.000
  24470093.258     -225366.826 5   -122950.527 5         8.750           7.250
  21015048.336      333225.141 7    227243.751 6        25.000          17.750
 93  3 31 18  6 45.0000000  0  6G18G14G19G27G28G29
  20690736.555     -168094.590 7   -115636.024 6        27.500          19.000
  22840184.680     1014929.265 6    697635.859 5        13.750           9.250
  21630142.484     -266178.255 6   -183198.814 6        17.250          12.750
  24507712.008     -511569.624 4   -319639.277 5         7.000           6.000
  24465812.742     -247883.839 5   -140496.182 5         9.000           7.500
  21019031.586      354168.073 7    243562.896 6        25.000          17.750
 93  3 31 18  7  0.0000000  0  6G18G14G19G27G28G29
  20688873.289     -177893.728 7   -123271.722 6        27.750          19.250
  22851534.867     1074568.164 6    744107.632 5        13.500           9.250
  21627172.695     -281903.700 6   -195452.389 6        16.000          12.500
  24501150.883     -546024.777 4   -346487.455 5         7.000           6.000
  24461526.273     -270391.939 5   -158034.899 5         9.250           7.250
  21023019.000      375126.766 7    259894.329 6        25.000          17.750
 93  3 31 18  7 15.0000000  0  6G18G14G19G27G28G29
  20687014.063     -187668.149 7   -130888.158 6        27.500          19.250
  22862883.555     1134202.935 6    790576.175 5        13.250           9.250
  21624160.656     -297624.935 6   -207702.684 6        17.000          12.500
  24494589.484     -580510.695 4   -373359.613 5         6.750           6.250
  24457247.859     -292887.688 5   -175563.988 5         9.250           7.250
  21027012.680      396107.171 7    276242.677 6        25.000          17.750
 93  3 31 18  7 30.0000000  0  6G18G14G19G27G28G29
  20685159.125     -197416.284 7   -138484.111 6        27.500          19.250
  22874227.953     1193832.921 6    837040.998 5        13.250           9.250
  21621171.117     -313338.075 6   -219946.668 6        17.250          12.500
  24488024.289     -615026.911 4   -400255.360 5         7.000           6.250
  24452966.836     -315371.218 5   -193083.539 5         9.500           7.500
  21031010.453      417110.985 7    292609.261 6        25.000          17.750
 93  3 31 18  7 45.0000000  0  6G18G14G19G27G28G29
  20683307.883     -207140.462 7   -146061.403 6        27.500          19.250
  22885573.781     1253456.686 6    883500.958 5        13.000           9.250
  21618188.109     -329040.600 6   -232182.351 6        17.000          14.000
  24481447.664     -649573.158 4   -427174.532 5         7.000           6.250
  24448695.828     -337841.045 5   -210592.441 5         9.500           7.500
  21035011.078      438140.243 7    308995.678 6        25.000          17.750
 93  3 31 18  8  0.0000000  0  6G18G14G19G27G28G29
  20681461.055     -216843.894 7   -153622.519 6        27.750          19.250
  22896920.672     1313076.681 6    929957.988 5        13.000           9.500
  21615194.227     -344732.650 6   -244409.903 6        17.000          14.000
  24474862.992     -684150.591 4   -454117.993 5         7.000           6.250
  24444402.734     -360297.428 5   -228090.849 5         8.500           7.500
  21039018.820      459197.474 7    325403.883 6        25.250          17.750
 93  3 31 18  8 15.0000000  0  6G18G14G19G27G28G29
  20679618.570     -226525.508 7   -161166.640 6        27.500          19.250
  22908262.180     1372692.229 6    976411.558 5        12.750           9.250
  21612212.594     -360411.779 6   -256627.391 6        17.000          14.000
  24468284.234     -718760.009 5   -481086.373 5         7.500           6.250
  24440136.117     -382739.184 5   -245577.871 5         8.500           7.500
  21043030.656      480285.626 7    341836.191 6        25.250          17.750
 93  3 31 18  8 30.0000000  0  6G18G14G19G27G28G29
  20677780.773     -236180.867 7   -168690.305 6        27.500          19.250
  22919603.742     1432305.227 6   1022863.142 5        13.000           9.500
  21609250.422     -376076.062 6   -268833.307 6        15.500          14.000
  24461685.727     -753398.561 5   -508077.428 5         7.500           6.250
  24435886.469     -405163.030 5   -263050.928 5         9.250           7.500
  21047048.984      501406.266 7    358293.817 6        25.250          17.500
 93  3 31 18  8 45.0000000  0  6G18G14G19G27G28G29
  20675948.164     -245812.019 7   -176195.099 6        27.500          19.250
  22930952.148     1491914.445 6   1069311.767 5        12.750           9.250
  21606252.516     -391726.528 6   -281028.458 6        16.750          14.000
  24455098.195     -788063.507 4   -535089.089 5         7.250           6.250
  24431615.570     -427572.345 5   -280512.671 5         8.750           7.500
  21051077.742      522560.565 7    374777.669 6        25.250          17.750
 93  3 31 18  9  0.0000000  0  6G18G14G19G27G28G29
  20674117.891     -255421.599 7   -183683.092 6        27.500          19.250
  22942296.188     1551520.445 6   1115757.893 5        13.000           9.250
  21603291.484     -407363.862 6   -293213.371 6        15.500          14.000
  24448498.359     -822753.568 5   -562120.300 5         7.750           6.250
  24427350.555     -449970.987 5   -297966.095 5         8.750           7.500
  21055109.859      543748.799 7    391287.959 6        25.500          17.500
 93  3 31 18  9 15.0000000  0  6G18G14G19G27G28G29
  20672294.133     -265009.509 7   -191154.197 6        27.250          19.250
  22953639.016     1611123.883 6   1162202.011 5        12.750           9.500
  21600308.367     -422986.867 6   -305387.122 6        17.000          14.000
  24441881.984     -857468.196 5   -589170.665 5         7.500           6.500
  24423097.383     -472360.324 5   -315412.276 5         9.250           7.500
  21059150.211      564973.191 7    407826.430 6        25.500          17.750
 93  3 31 18  9 30.0000000  0  6G18G14G19G27G28G29
  20670473.578     -274577.713 7   -198609.944 6        27.500          19.250
  22964977.547     1670720.555 6   1208640.868 5        13.000           9.250
  21597352.367     -438600.851 6   -317553.841 6        15.500          14.000
  24435278.656     -892212.307 5   -616243.977 5         7.500           6.250
  24418835.938     -494744.691 5   -332854.567 5         9.250           7.500
  21063190.602      586230.323 7    424390.404 6        25.250          17.750
 93  3 31 18  9 45.0000000  0  6G18G14G19G27G28G29
  20668656.773     -284126.815 7   -206050.803 6        27.500          19.250
  22976317.859     1730314.039 6   1255077.223 5        13.000           9.250
  21594368.383     -454206.192 6   -329713.830 6        17.000          14.000
  24428663.453     -926985.287 5   -643339.796 5         7.500           6.500
  24414571.578     -517119.882 5   -350289.740 5         9.500           7.500
  21067243.805      607521.846 7    440981.180 6        25.250          17.750
 93  3 31 18 10  0.0000000  0  6G18G14G19G27G28G29
  20666844.445     -293657.006 7   -213476.928 6        27.250          19.250
  22987658.578     1789902.116 6   1301509.387 5        13.000           9.250
  21591399.813     -469809.458 6   -341872.197 6        16.500          14.000
  24422037.156     -961789.652 5   -670460.077 5         7.750           6.250
  24410314.109     -539488.499 5   -367719.760 5         9.500           7.500
  21071301.461      628845.042 7    457596.637 6        25.250          17.750
 93  3 31 18 10 15.0000000  0  6G18G14G19G27G28G29
  20665036.648     -303162.878 7   -220884.104 6        27.250          19.250
  22998998.508     1849486.533 6   1347938.681 5        13.000           9.250
  21588430.070     -485408.493 6   -354027.269 6        16.750          14.250
  24415405.766     -996622.416 5   -697602.486 5         7.500           6.500
  24406060.984     -561848.454 5   -385143.049 5         9.500           7.500
  21075366.617      650199.264 7    474236.259 6        25.500          17.750
 93  3 31 18 10 30.0000000  0  6G18G14G19G27G28G29
  20663231.547     -312641.171 7   -228269.794 6        27.000          19.250
  23010334.586     1909066.806 6   1394364.760 5        12.750           9.000
  21585465.891     -501002.538 6   -366178.454 6        17.000          14.250
  24408768.383    -1031478.924 5   -724763.385 5         7.500           6.250
  24401807.789     -584198.759 5   -402558.813 5         9.500           7.500
  21079433.680      671581.853 7    490897.994 6        25.250          17.500
 93  3 31 18 10 45.0000000  0  6G18G14G19G27G28G29
  20661433.383     -322089.416 7   -235632.065 6        27.000          19.500
  23021673.367     1968646.831 6   1440790.638 5        12.750           9.000
  21582493.352     -516590.508 6   -378324.907 6        17.000          14.250
  24402138.156    -1066356.210 5   -751940.475 5         7.750           6.500
  24397561.953     -606535.917 5   -419964.319 5        10.000           7.500
  21083509.305      692994.951 7    507583.502 6        25.250          17.500
 93  3 31 18 11  0.0000000  0  6G18G14G19G27G28G29
  20659641.336     -331507.809 7   -242971.075 6        27.000          19.250
  23033010.750     2028226.863 6   1487216.521 5        13.000           9.000
  21579542.406     -532171.393 6   -390465.832 6        15.750          14.250
  24395496.703    -1101255.249 5   -779134.532 5         7.750           6.500
  24393308.281     -628856.712 5   -437357.092 5         9.750           7.250
  21087589.945      714439.048 7    524293.168 6        25.250          17.500
 93  3 31 18 11 15.0000000  0  6G18G14G19G27G28G29
  20657856.227     -340894.396 7   -250285.301 6        27.000          19.250
  23044351.797     2087807.333 6   1533642.744 5        12.750           9.000
  21576567.242     -547745.604 6   -402601.557 6        17.000          14.250
  24388845.148    -1136179.379 5   -806348.117 5         7.500           6.500
  24389065.242     -651155.307 5   -454732.560 5        10.250           7.500
  21091676.047      735913.468 7    541026.466 6        25.250          17.500
 93  3 31 18 11 30.0000000  0  6G18G14G19G27G28G29
  20656076.414     -350247.802 7   -257573.672 6        27.000          19.250
  23055686.164     2147385.489 6   1580067.170 5        12.750           8.750
  21573606.078     -563316.026 6   -414734.340 6        17.250          14.500
  24382201.617    -1171128.729 5   -833581.361 5         7.750           6.250
  24384834.336     -673430.049 5   -472089.434 5        10.250           7.250
  21095770.203      757418.046 7    557783.255 6        25.250          17.500
 93  3 31 18 11 45.0000000  0  6G18G14G19G27G28G29
  20654300.219     -359574.222 7   -264841.016 6        27.000          19.250
  23067024.367     2206957.419 6   1626486.743 5        12.500           8.750
  21570641.945     -578887.432 6   -426867.907 6        17.250          13.000
  24375540.195    -1206108.904 5   -860838.615 5         8.000           6.250
  24380595.758     -695684.028 5   -489430.141 5         9.750           7.500
  21099867.875      778947.077 7    574559.108 6        25.500          17.500
 93  3 31 18 12  0.0000000  0  6G18G14G19G27G28G29
  20652530.859     -368871.069 7   -272085.321 6        26.750          19.250
  23078361.133     2266524.559 6   1672902.577 5        12.500           8.750
  21567678.969     -594454.733 6   -438998.247 6        17.500          13.250
  24368886.281    -1241115.068 5   -888116.139 5         7.750           6.500
  24376359.344     -717914.360 5   -506752.416 5         9.750           7.500
  21103966.578      800503.597 7    591356.373 6        25.500          17.500
 93  3 31 18 12 15.0000000  0  6G18G14G19G27G28G29
  20650765.961     -378137.799 7   -279306.150 6        27.000          19.250
  23089692.898     2326085.731 6   1719313.767 5        12.250           8.750
  21564714.922     -610015.601 6   -451123.577 6        17.750          13.000
  24362216.320    -1276147.113 5   -915413.812 5         7.750           6.500
  24372137.180     -740122.105 5   -524057.084 5        10.000           7.500
  21108077.586      822088.095 7    608175.441 6        25.500          17.750
 93  3 31 18 12 30.0000000  0  6G18G14G19G27G28G29
  20649010.500     -387370.571 7   -286500.522 6        27.000          19.250
  23101029.641     2385646.427 6   1765724.585 5        12.750           8.500
  21561762.016     -625563.916 6   -463239.128 6        17.500          13.250
  24355548.961    -1311200.228 5   -942727.908 5         8.000           6.250
  24367914.211     -762300.912 5   -541339.199 5         9.500           7.750
  21112190.078      843706.758 7    625021.133 6        25.500          17.750
 93  3 31 18 12 45.0000000  0  6G18G14G19G27G28G29
  20647261.703     -396570.732 7   -293669.482 6        27.250          19.250
  23112363.000     2445208.503 6   1812136.486 5        12.500           8.500
  21558801.211     -641098.270 6   -475343.795 6        17.750          13.250
  24348869.250    -1346273.917 5   -970058.033 5         8.000           6.500
  24363702.656     -784449.479 5   -558597.753 5         9.250           7.750
  21116307.781      865363.861 7    641896.776 6        25.500          17.750
 93  3 31 18 13  0.0000000  0  6G18G14G19G27G28G29
  20645515.711     -405739.210 7   -300813.758 6        27.250          19.250
  23123691.586     2504773.241 6   1858550.453 5        12.250           8.250
  21555850.000     -656617.302 6   -487436.526 6        17.500          13.250
  24342188.328    -1381371.315 5   -997406.633 5         8.000           6.500
  24359496.109     -806567.699 5   -575832.666 5        10.000           7.750
  21120439.758      887061.727 7    658804.178 6        25.250          17.750
 93  3 31 18 13 15.0000000  0  6G18G14G19G27G28G29
  20643774.914     -414876.877 7   -307934.016 6        27.250          19.250
  23135033.859     2564342.709 6   1904968.104 5        12.500           8.250
  21552900.313     -672120.200 6   -499516.684 6        17.500          13.250
  24335510.227    -1416494.390 5  -1024775.238 5         8.000           6.500
  24355297.953     -828658.235 5   -593045.996 5        10.250           7.750
  21124576.664      908799.567 7    675742.737 6        25.250          17.750
 93  3 31 18 13 30.0000000  0  6G18G14G19G27G28G29
  20642045.180     -423982.847 7   -315029.586 6        27.250          19.250
  23146364.430     2623918.623 6   1951390.773 5        12.250           8.250
  21549950.648     -687605.230 6   -511582.917 6        17.500          13.250
  24328822.148    -1451639.640 5  -1052161.117 5         8.250           6.250
  24351095.180     -850722.905 5   -610239.183 5        10.000           7.750
  21128720.234      930580.717 7    692715.042 6        25.250          17.750
 93  3 31 18 13 45.0000000  0  6G18G14G19G27G28G29
  20640317.250     -433058.909 7   -322101.847 6        27.250          19.250
  23157698.523     2683499.217 6   1997817.101 5        12.000           8.250
  21547010.266     -703073.155 6   -523635.829 6        17.500          13.250
  24322131.391    -1486806.771 5  -1079564.050 5         8.250           6.500
  24346894.141     -872763.513 5   -627413.612 5         9.750           7.750
  21132870.430      952403.218 7    709719.561 6        25.250          17.750
 93  3 31 18 14  0.0000000  0  6G18G14G19G27G28G29
  20638596.000     -442104.944 7   -329150.709 6        27.250          19.250
  23169044.414     2743084.210 6   2044246.852 5        12.000           8.250
  21544072.516     -718523.142 6   -535674.728 6        16.500          14.750
  24315430.102    -1521996.806 5  -1106984.838 5         8.250           6.250
  24342707.461     -894778.495 5   -644568.071 5         9.750           7.750
  21137034.141      974269.421 7    726758.139 6        25.750          17.750
 93  3 31 18 14 15.0000000  0  6G18G14G19G27G28G29
  20636880.422     -451114.853 7   -336171.424 6        27.250          19.000
  23180386.445     2802675.189 6   2090681.256 5        12.250           8.000
  21541130.648     -733953.396 6   -547698.292 6        17.250          15.000
  24308733.422    -1557207.259 5  -1134421.508 5         7.750           6.250
  24338525.953     -916761.845 5   -661697.895 5        10.250           7.750
  21141206.219      996183.716 7    743834.192 6        25.750          17.750
 93  3 31 18 14 30.0000000  0  6G18G14G19G27G28G29
  20635174.609     -460083.239 7   -343159.782 6        27.250          19.000
  23191728.266     2862277.064 6   2137124.158 5        12.000           8.000
  21538203.758     -749359.597 6   -559703.104 6        16.750          15.000
  24302025.133    -1592434.790 5  -1161871.505 5         8.000           6.500
  24334350.320     -938707.036 5   -678797.972 5         9.750           7.750
  21145386.188     1018150.544 7    760951.180 6        26.000          17.750
 93  3 31 18 14 45.0000000  0  6G18G14G19G27G28G29
  20633475.500     -469014.220 7   -350118.989 6        27.500          19.000
  23203067.914     2921883.748 6   2183570.798 5        12.000           8.000
  21535273.305     -764746.355 6   -571692.760 6        17.250          15.000
  24295321.578    -1627683.995 5  -1189338.382 5         8.250           6.250
  24330175.508     -960617.028 5   -695870.623 5         9.500           7.500
  21149573.820     1040163.241 7    778103.908 6        26.000          17.750
 93  3 31 18 15  0.0000000  0  6G18G14G19G27G28G29
  20631784.320     -477910.203 7   -357050.929 6        27.500          19.000
  23214414.875     2981491.474 6   2230018.262 5        12.000           8.000
  21532350.758     -780115.978 6   -583669.067 6        16.750          15.000
  24288615.070    -1662957.635 5  -1216824.297 5         8.250           6.500
  24326014.602     -982492.523 5   -712916.387 5         9.250           7.500
  21153771.117     1062216.928 7    795288.579 6        26.000          17.750
 93  3 31 18 15 15.0000000  0  6G18G14G19G27G28G29
  20630097.023     -486767.441 7   -363952.676 6        27.500          19.000
  23225759.531     3041099.528 6   2276465.979 5        12.000           8.000
  21529427.555     -795468.882 6   -595632.355 6        17.250          15.000
  24281891.656    -1698255.645 5  -1244329.214 5         8.000           6.250
  24321864.422    -1004331.360 5   -729933.602 5         9.000           7.500
  21157974.844     1084311.061 7    812504.761 6        26.000          17.750
 93  3 31 18 15 30.0000000  0  6G18G14G19G27G28G29
  20628419.859     -495582.595 7   -370821.633 6        27.500          19.000
  23237095.664     3100705.235 6   2322911.856 5        12.000           7.750
  21526509.602     -810804.884 6   -607582.471 6        17.000          15.000
  24275170.906    -1733571.871 5  -1271848.295 5         7.750           6.250
  24317713.000    -1026128.057 5   -746917.958 5         9.000           7.500
  21162188.430     1106447.808 7    829754.153 6        26.000          17.750
 93  3 31 18 15 45.0000000  0  6G18G14G19G27G28G29
  20626751.594     -504349.582 7   -377653.058 6        27.500          19.000
  23248439.336     3160307.674 5   2369355.191 5        11.750           7.750
  21523592.344     -826121.342 6   -619517.349 6        17.500          15.250
  24268450.445    -1768898.445 5  -1299375.482 5         7.750           6.500
  24313575.055    -1047875.781 5   -763864.168 5         9.500           7.500
  21166409.898     1128632.638 7    847041.007 6        26.000          17.750
 93  3 31 18 16  0.0000000  0  6G18G14G19G27G28G29
  20625090.664     -513065.179 7   -384444.435 6        27.500          19.000
  23259783.141     3219906.632 5   2415795.824 5        11.750           7.750
  21520686.305     -841416.442 6   -631435.594 6        17.000          15.250
  24261722.953    -1804235.578 5  -1326910.859 5         7.750           6.250
  24309437.953    -1069573.925 5   -780771.744 5         9.250           7.500
  21170639.305     1150865.885 7    864365.583 6        26.000          17.750
 93  3 31 18 16 15.0000000  0  6G18G14G19G27G28G29
  20623444.305     -521726.476 7   -391193.505 6        27.750          19.000
  23271120.094     3279505.463 5   2462236.337 5        11.500           7.750
  21517777.438     -856687.377 6   -643335.001 6        17.500          15.250
  24254993.875    -1839581.586 5  -1354453.165 5         7.750           6.250
  24305325.773    -1091222.608 5   -797640.781 5         9.500           7.500
  21174882.039     1173150.394 7    881730.114 6        25.750          17.750
 93  3 31 18 16 30.0000000  0  6G18G14G19G27G28G29
  20621807.203     -530329.926 7   -397897.500 6        27.750          19.000
  23282464.633     3339107.753 5   2508679.557 5        11.500           7.750
  21514876.289     -871929.751 6   -655212.158 6        17.250          15.250
  24248275.609    -1874932.047 5  -1381998.945 5         7.750           6.500
  24301214.617    -1112820.185 5   -814469.989 5         9.750           7.500
  21179129.031     1195486.673 7    899134.972 6        25.750          17.750
 93  3 31 18 16 45.0000000  0  6G18G14G19G27G28G29
  20620183.359     -538869.711 7   -404551.883 6        27.750          19.000
  23293811.305     3398719.310 5   2555129.993 5        11.500           7.500
  21511979.836     -887136.616 6   -667061.640 6        17.500          15.250
  24241537.781    -1910280.176 5  -1409542.899 5         7.750           6.250
  24297119.797    -1134365.584 5   -831258.539 5         9.500           7.250
  21183395.227     1217878.891 7    916583.443 6        25.750          17.750
 93  3 31 18 17  0.0000000  0  6G18G14G19G27G28G29
  20618569.242     -547344.479 8   -411155.606 6        28.000          19.000
  23305154.063     3458341.299 5   2601588.578 5        11.500           7.750
  21509099.828     -902308.638 6   -678883.976 6        17.000          15.250
  24234820.023    -1945624.340 5  -1437083.777 5         7.750           6.250
  24293025.586    -1155858.159 5   -848005.928 5         9.750           7.250
  21187662.109     1240328.911 7    934076.938 6        25.500          17.750
 93  3 31 18 17 15.0000000  0  6G18G14G19G27G28G29
  20616968.906     -555748.282 7   -417704.026 6        27.750          18.750
  23316500.961     3517976.705 5   2648057.618 5        11.250           7.750
  21506214.117     -917442.564 6   -690676.627 6        17.750          15.500
  24228089.023    -1980961.545 5  -1464619.213 5         8.000           6.250
  24288944.328    -1177297.607 5   -864711.909 5         9.250           7.000
  21191947.125     1262843.311 7    951620.597 6        25.750          17.750
 93  3 31 18 17 30.0000000  0  6G18G14G19G27G28G29
  20615384.969     -564084.561 7   -424199.839 6        27.750          18.750
  23327852.180     3577620.935 5   2694533.504 5        11.250           7.500
  21503347.438     -932540.826 6   -702441.487 6        17.250          15.500
  24221373.648    -2016293.208 5  -1492150.352 5         8.000           6.000
  24284875.250    -1198689.504 5   -881380.861 5         9.000           7.000
  21196245.930     1285420.948 7    969213.537 6        26.000          17.750
 93  3 31 18 17 45.0000000  0  6G18G14G19G27G28G29
  20613807.711     -572356.170 7   -430645.253 6        27.750          18.750
  23339201.523     3637273.781 5   2741016.126 5        11.250           7.750
  21500474.414     -947603.619 6   -714178.708 6        18.000          15.500
  24214650.242    -2051620.039 5  -1519677.706 5         8.000           6.250
  24280812.250    -1220036.328 5   -898014.669 5         9.250           7.000
  21200551.773     1308059.897 7    986854.249 6        25.750          17.750
 93  3 31 18 18  0.0000000  0  6G18G14G19G27G28G29
  20612248.742     -580565.069 7   -437041.804 6        27.750          18.750
  23350555.188     3696938.002 5   2787507.608 5        11.250           7.750
  21497621.047     -962631.828 6   -725888.982 6        17.750          15.500
  24207923.906    -2086947.978 5  -1547205.925 5         8.000           6.250
  24276765.172    -1241342.451 5   -914616.796 5         9.250           7.000
  21204871.000     1330756.619 7   1004539.982 6        25.750          17.750
 93  3 31 18 18 15.0000000  0  6G18G14G19G27G28G29
  20610698.164     -588713.274 7   -443391.065 6        27.750          18.750
  23361914.680     3756614.909 5   2834008.971 5        11.000           7.750
  21494763.555     -977623.442 6   -737570.768 6        18.250          14.000
  24201205.875    -2122278.414 5  -1574736.084 5         8.000           6.000
  24272706.500    -1262607.944 5   -931187.229 5         9.250           7.000
  21209203.141     1353511.908 7   1022271.348 6        25.750          17.750
 93  3 31 18 18 30.0000000  0  6G18G14G19G27G28G29
  20609158.930     -596799.083 8   -449691.705 6        28.000          18.750
  23373273.422     3816306.354 5   2880521.667 5        11.000           7.750
  21491928.516     -992576.932 6   -749222.812 6        17.500          14.000
  24194473.023    -2157607.256 5  -1602265.026 5         7.750           6.250
  24268666.188    -1283827.040 5   -947721.539 5         9.000           7.000
  21213546.055     1376328.441 7   1040050.438 6        25.750          17.750
 93  3 31 18 18 45.0000000  0  6G18G14G19G27G28G29
  20607630.258     -604826.868 8   -455947.130 6        28.000          18.750
  23384636.078     3876006.011 5   2927040.738 5        10.750           7.750
  21489079.352    -1007497.933 6   -760849.542 6        18.250          14.000
  24187761.813    -2192938.860 5  -1629796.093 5         8.000           6.000
  24264640.508    -1305002.353 5   -964221.718 5         9.250           7.000
  21217895.984     1399200.588 7   1057872.869 6        25.500          17.750
 93  3 31 18 19  0.0000000  0  6G18G14G19G27G28G29
  20606113.023     -612793.676 8   -462155.038 6        28.250          18.500
  23395996.766     3935717.883 5   2973569.346 5        11.000           7.750
  21486245.117    -1022383.810 6   -772448.908 6        18.000          14.000
  24181033.805    -2228269.066 5  -1657326.087 5         8.000           6.000
  24260623.109    -1326126.287 5   -980681.858 5         9.250           7.000
  21222259.680     1422135.610 7   1075744.287 6        25.250          17.750
 93  3 31 18 19 15.0000000  0  6G18G14G19G27G28G29
  20604609.711     -620705.649 8   -468320.224 6        28.250          18.500
  23407361.016     3995438.555 5   3020104.812 5        10.750           7.750
  21483418.359    -1037239.130 6   -784024.465 6        18.250          14.000
  24174304.914    -2263602.221 5  -1684858.382 5         8.000           6.000
  24256611.219    -1347199.330 5   -997102.343 5         9.000           7.000
  21226639.227     1445130.370 7   1093662.252 6        25.500          17.500
 93  3 31 18 19 30.0000000  0  6G18G14G19G27G28G29
  20603115.609     -628560.584 8   -474440.961 6        28.500          18.500
  23418729.703     4055171.400 5   3066649.754 5        10.750           7.750
  21480610.688    -1052060.276 6   -795573.390 6        17.250          14.000
  24167587.453    -2298933.211 5  -1712388.985 5         8.000           6.000
  24252611.930    -1368217.440 5  -1013480.027 5         9.250           7.000
  21231024.898     1468188.303 7   1111629.437 6        25.500          17.750
 93  3 31 18 19 45.0000000  0  6G18G14G19G27G28G29
  20601631.461     -636360.043 8   -480518.470 6        28.250          18.500
  23430096.148     4114919.420 5   3113206.528 5        10.750           8.000
  21477784.664    -1066846.432 6   -807095.048 6        18.500          14.000
  24160865.695    -2334261.152 5  -1739917.212 5         8.250           6.000
  24248623.914    -1389176.362 5  -1029811.586 5         9.250           7.000
  21235423.875     1491310.312 7   1129646.561 6        25.250          17.750
 93  3 31 18 20  0.0000000  0  6G18G14G19G27G28G29
  20600159.977     -644100.925 8   -486550.332 6        28.500          18.500
  23441470.352     4174686.850 5   3159778.419 5        10.750           7.750
  21474978.922    -1081595.320 6   -818587.666 6        18.500          14.000
  24154139.523    -2369583.016 5  -1767440.712 5         8.000           6.250
  24244649.500    -1410071.668 5  -1046093.573 5         9.750           7.000
  21239835.914     1514499.261 7   1147715.841 6        25.250          17.750
 93  3 31 18 20 15.0000000  0  6G18G14G19G27G28G29
  20598695.703     -651785.713 8   -492538.483 6        28.500          18.250
  23452845.508     4234468.124 5   3206361.100 5        10.750           7.750
  21472178.117    -1096309.620 6   -830053.317 6        18.250          15.750
  24147418.773    -2404902.032 5  -1794961.985 5         8.000           6.000
  24240685.219    -1430903.885 5  -1062326.401 5         9.750           7.000
  21244264.844     1537755.254 7   1165837.371 6        25.250          17.750
 93  3 31 18 20 30.0000000  0  6G18G14G19G27G28G29
  20597243.195     -659415.331 8   -498483.651 6        28.250          18.250
  23464225.336     4294258.458 5   3252950.846 5        10.750           7.750
  21469384.742    -1110994.818 6   -841496.303 6        18.000          15.750
  24140702.844    -2440221.022 5  -1822483.220 5         8.250           6.000
  24236728.875    -1451675.173 5  -1078511.746 5         9.500           7.250
  21248699.133     1561077.258 7   1184010.335 6        25.500          17.750
 93  3 31 18 20 45.0000000  0  6G18G14G19G27G28G29
  20595802.422     -666980.057 8   -504378.251 6        28.500          18.250
  23475607.766     4354066.422 5   3299554.314 5        10.500           7.500
  21466594.523    -1125644.425 6   -852911.573 6        18.250          16.000
  24133978.273    -2475533.571 5  -1849999.441 5         8.250           6.250
  24232787.547    -1472377.952 5  -1094643.711 5         9.500           7.250
  21253152.508     1584470.899 7   1202239.118 6        25.250          17.750
 93  3 31 18 21  0.0000000  0  6G18G14G19G27G28G29
  20594375.141     -674485.421 8   -510226.599 6        28.500          18.250
  23486993.055     4413886.334 5   3346167.115 5        10.750           7.500
  21463830.648    -1140260.693 6   -864300.850 6        16.500          16.000
  24127255.938    -2510845.365 5  -1877515.074 5         8.500           6.250
  24228866.211    -1493017.422 5  -1110726.335 5         9.750           7.250
  21257616.703     1607931.369 7   1220519.984 6        25.250          17.750
 93  3 31 18 21 15.0000000  0  6G18G14G19G27G28G29
  20592959.289     -681927.992 8   -516026.014 6        28.750          18.250
  23498375.070     4473721.098 5   3392791.465 5        10.500           7.500
  21461039.969    -1154837.676 6   -875659.523 6        18.000          16.000
  24120546.023    -2546152.516 5  -1905027.080 5         8.750           6.500
  24224950.336    -1513589.087 5  -1126756.137 5        10.000           7.000
  21262095.898     1631462.732 7   1238856.083 6        25.250          17.750
 93  3 31 18 21 30.0000000  0  6G18G14G19G27G28G29
  20591555.125     -689308.240 8   -521776.867 6        28.750          18.250
  23509764.641     4533567.890 5   3439425.187 5        10.500           7.500
  21458286.563    -1169374.408 6   -886986.829 6        17.000          16.000
  24113817.906    -2581454.974 5  -1932535.453 5         8.750           6.500
  24221046.719    -1534094.029 5  -1142733.949 5        10.000           7.250
  21266585.539     1655064.388 7   1257246.950 6        25.250          17.750
 93  3 31 18 21 45.0000000  0  6G18G14G19G27G28G29
  20590161.914     -696624.405 8   -527477.782 6        28.500          18.250
  23521158.453     4593424.262 5   3486066.388 5        10.500           7.500
  21455517.063    -1183872.987 6   -898284.405 6        18.250          16.000
  24107107.992    -2616754.442 5  -1960041.492 5         9.000           6.500
  24217155.563    -1554533.678 5  -1158660.883 5        10.250           7.250
  21271090.227     1678733.856 7   1275690.655 6        25.000          17.500
 93  3 31 18 22  0.0000000  0  6G18G14G19G27G28G29
  20588783.039     -703879.400 8   -533131.028 6        28.750          18.000
  23532548.430     4653284.237 5   3532710.378 5        10.750           7.500
  21452781.109    -1198338.938 6   -909556.562 6        16.750          16.000
  24100389.188    -2652057.992 5  -1987550.702 5         9.000           6.500
  24213275.859    -1574913.136 5  -1174540.914 5        10.500           7.250
  21275604.406     1702462.298 7   1294180.334 6        25.000          17.500
 93  3 31 18 22 15.0000000  0  6G18G14G19G27G28G29
  20587413.859     -711060.777 8   -538726.916 6        28.750          18.000
  23543937.242     4713154.534 5   3579362.417 5        10.500           7.250
  21450018.555    -1212763.713 6   -920796.632 6        18.250          15.750
  24093667.063    -2687356.188 5  -2015055.745 5         9.000           6.500
  24209415.000    -1595223.107 5  -1190366.785 5        10.250           7.250
  21280133.203     1726257.736 7   1312722.212 6        24.750          17.500
 93  3 31 18 22 30.0000000  0  6G18G14G19G27G28G29
  20586061.922     -718167.646 8   -544264.742 6        28.750          18.000
  23555336.594     4773036.354 5   3626023.445 5        10.750           7.250
  21447283.859    -1227148.545 6   -932005.572 6        18.250          16.000
  24086947.906    -2722649.227 5  -2042556.757 5         8.750           6.750
  24205558.492    -1615463.337 5  -1206138.329 5        10.250           7.250
  21284673.992     1750120.658 7   1331316.665 6        24.750          17.500
 93  3 31 18 22 45.0000000  0  6G18G14G19G27G28G29
  20584727.156     -725203.786 8   -549747.465 6        29.000          18.000
  23566730.438     4832929.438 5   3672693.245 5        10.500           7.250
  21444550.375    -1241494.853 6   -943184.498 6        18.250          15.750
  24080242.656    -2757938.218 5  -2070054.638 5         9.000           6.750
  24201720.570    -1635635.468 5  -1221856.815 5        10.000           7.250
  21289227.555     1774042.525 7   1349957.056 6        24.750          17.500
 93  3 31 18 23  0.0000000  0  6G18G14G19G27G28G29
  20583401.063     -732172.433 8   -555177.578 6        29.250          18.000
  23578133.539     4892837.012 5   3719374.319 5        10.500           7.250
  21441828.250    -1255798.275 6   -954330.006 6        17.750          16.000
  24073516.234    -2793220.141 5  -2097547.000 5         9.000           6.750
  24197898.969    -1655736.907 5  -1237520.200 5        10.250           7.250
  21293789.500     1798022.658 7   1368642.842 6        24.750          17.250
 93  3 31 18 23 15.0000000  0  6G18G14G19G27G28G29
  20582084.516     -739067.013 8   -560549.986 6        29.250          18.000
  23589534.852     4952763.750 5   3766070.354 5        10.250           7.250
  21439113.188    -1270054.884 6   -965439.047 6        18.250          15.750
  24066806.164    -2828489.551 5  -2125029.607 5         9.000           6.750
  24194090.156    -1675761.146 5  -1253123.451 5        10.250           7.250
  21298366.656     1822066.464 7   1387378.249 6        24.750          17.250
 93  3 31 18 23 30.0000000  0  6G18G14G19G27G28G29
  20580788.781     -745882.882 8   -565861.061 6        29.250          17.750
  23600946.234     5012715.079 5   3812785.527 5        10.250           7.250
  21436425.391    -1284264.884 6   -976511.751 6        17.000          15.750
  24060104.523    -2863743.084 5  -2152499.857 5         9.000           7.000
  24190298.172    -1695705.460 5  -1268664.402 5        10.250           7.500
  21302955.633     1846177.260 7   1406165.847 6        24.750          17.250
 93  3 31 18 23 45.0000000  0  6G18G14G19G27G28G29
  20579507.273     -752617.934 8   -571109.162 6        29.000          18.000
  23612359.508     5072692.594 5   3859521.112 5        10.250           7.250
  21433717.859    -1298431.870 6   -987550.946 6        18.500          16.000
  24053401.656    -2898983.468 5  -2179959.852 5         9.000           7.000
  24186510.367    -1715572.723 5  -1284145.334 5        10.500           7.500
  21307554.141     1870351.546 7   1425002.924 6        24.500          17.250
 93  3 31 18 24  0.0010000  0  6G18G14G19G27G28G29
  20578242.224     -759272.146 8   -576294.269 6        29.000          17.750
  23623779.052     5132701.163 5   3906280.898 5        10.000           7.250
  21431028.731    -1312556.834 6   -998557.396 6        18.500          16.000
  24046696.950    -2934214.737 5  -2207412.742 5         9.000           7.000
  24182751.521    -1735365.955 5  -1299568.574 5        10.750           7.500
  21312166.091     1894591.485 7   1443891.159 6        24.250          17.000
 93  3 31 18 24 15.0010000  0  6G18G14G19G27G28G29
  20576991.536     -765851.673 8   -581421.184 6        29.000          18.000
  23635198.958     5192725.746 5   3953053.160 5        10.000           7.250
  21428347.489    -1326640.616 6  -1009531.757 6        18.500          15.750
  24039997.833    -2969435.755 5  -2234857.647 5         9.000           7.250
  24178995.864    -1755086.258 5  -1314934.980 5        10.000           7.500
  21316788.981     1918893.217 7   1462827.537 6        24.250          17.000
 93  3 31 18 24 30.0010000  0  6G18G14G19G27G28G29
  20575750.935     -772357.478 8   -586490.652 6        29.000          17.750
  23646626.091     5252773.073 5   3999843.138 5         9.750           7.250
  21425672.263    -1340682.817 6  -1020473.716 6        18.750          16.000
  24033292.099    -3004649.027 5  -2262296.514 5         8.750           7.250
  24175257.388    -1774732.905 5  -1330243.992 5        10.250           7.500
  21321427.481     1943263.438 7   1481817.290 6        24.250          17.000
 93  3 31 18 24 45.0010000  0  6G18G14G19G27G28G29
  20574526.778     -778793.856 8   -591506.020 6        29.000          17.750
  23658056.521     5312841.385 5   4046649.469 5         9.750           7.250
  21423011.427    -1354682.562 6  -1031382.590 6        18.750          15.750
  24026593.388    -3039855.280 5  -2289729.917 5         8.500           7.250
  24171533.591    -1794307.871 5  -1345497.157 5        10.500           7.750
  21326079.247     1967700.852 7   1500859.398 6        24.500          17.000
 93  3 31 18 25  0.0010000  0  6G18G14G19G27G28G29
  20573314.528     -785160.957 8   -596467.408 6        29.000          17.750
  23669491.614     5372929.572 5   4093471.292 5         9.750           7.250
  21420359.317    -1368638.377 6  -1042257.268 6        18.750          14.250
  24019893.606    -3075054.011 5  -2317157.444 5         8.500           7.250
  24167820.466    -1813811.378 5  -1360694.632 5        10.250           7.750
  21330742.536     1992206.552 7   1519954.715 6        24.250          17.000
 93  3 31 18 25 15.0010000  0  6G18G14G19G27G28G29
  20572119.013     -791453.367 8   -601370.592 6        29.250          17.750
  23680932.513     5433034.393 5   4140306.074 5         9.750           7.250
  21417705.911    -1382550.979 6  -1053098.236 6        19.250          14.000
  24013188.880    -3110244.868 5  -2344578.857 5         8.750           7.250
  24164120.224    -1833242.555 5  -1375835.751 5         9.750           8.000
  21335419.747     2016788.059 7   1539109.101 6        24.000          17.000
 93  3 31 18 25 30.0010000  0  6G18G14G19G27G28G29
  20570933.271     -797669.525 8   -606214.359 6        29.250          17.750
  23692371.950     5493151.038 5   4187150.066 5         9.500           7.250
  21415069.239    -1396421.496 6  -1063906.412 6        19.000          14.000
  24006513.474    -3145429.396 5  -2371995.320 5         8.500           7.250
  24160441.474    -1852603.728 5  -1390922.314 5        10.500           8.000
  21340112.060     2041448.029 7   1558324.628 6        23.750          17.250
 93  3 31 18 25 45.0010000  0  6G18G14G19G27G28G29
  20569765.216     -803814.270 8   -611002.481 6        29.250          17.500
  23703810.700     5553276.977 5   4234001.300 5         9.250           7.250
  21412433.411    -1410251.641 6  -1074683.131 6        19.000          14.000
  23999811.036    -3180609.147 5  -2399408.070 5         8.750           7.250
  24156768.044    -1871897.614 5  -1405956.457 5        10.250           8.000
  21344820.505     2066185.118 7   1577600.247 6        24.000          17.000
 93  3 31 18 26  0.0010000  0  6G18G14G19G27G28G29
  20568608.513     -809886.889 8   -615734.394 6        29.250          17.500
  23715258.255     5613412.381 5   4280859.917 5         9.250           7.250
  21409818.099    -1424037.463 6  -1085425.310 6        18.750          14.000
  23993120.583    -3215779.877 5  -2426813.791 5         8.500           7.500
  24153108.271    -1891119.612 5  -1420934.576 5        10.500           8.250
  21349543.364     2091003.569 7   1596939.271 6        24.250          17.000
 93  3 31 18 26 15.0010000  0  6G18G14G19G27G28G29
  20567468.130     -815892.443 8   -620414.066 6        29.250          17.500
  23726694.036     5673553.097 5   4327722.660 5         9.000           7.000
  21407196.653    -1437779.273 6  -1096133.204 6        19.000          13.750
  23986430.192    -3250941.667 5  -2454212.546 5         8.750           7.500
  24149465.380    -1910269.779 5  -1435856.718 5        10.500           8.250
  21354280.325     2115903.733 7   1616341.966 6        24.000          17.000
 93  3 31 18 26 30.0010000  0  6G18G14G19G27G28G29
  20566338.981     -821824.358 8   -625036.344 6        29.250          17.500
  23738146.067     5733706.238 5   4374595.091 5         9.250           7.000
  21404599.466    -1451474.807 6  -1106805.025 6        18.500          14.000
  23979738.880    -3286088.906 5  -2481599.957 5         8.500           7.500
  24145836.521    -1929341.642 5  -1450717.861 5        10.750           8.500
  21359036.271     2140887.668 7   1635809.932 6        24.250          17.250
 93  3 31 18 26 45.0010000  0  6G18G14G19G27G28G29
  20565223.388     -827682.121 8   -629600.845 6        29.250          17.250
  23749595.817     5793871.653 5   4421477.074 5         9.250           7.000
  21401993.622    -1465125.034 6  -1117441.553 6        18.750          14.000
  23973050.458    -3321221.616 5  -2508976.039 5         8.500           7.500
  24142220.763    -1948335.183 5  -1465517.962 5        11.000           8.250
  21363806.317     2165951.426 7   1655340.105 6        24.250          17.000
 93  3 31 18 27  0.0010000  0  6G18G14G19G27G28G29
  20564124.005     -833464.095 8   -634106.284 6        29.500          17.500
  23761040.950     5854044.702 5   4468365.028 5         9.000           7.000
  21399410.778    -1478731.009 6  -1128043.563 6        18.250          15.750
  23966371.005    -3356338.833 5  -2536340.051 5         8.500           7.500
  24138621.880    -1967250.827 5  -1480257.368 5        11.250           8.250
  21368591.114     2191091.201 7   1674929.509 6        24.000          17.000
 93  3 31 18 27 15.0010000  0  6G18G14G19G27G28G29
  20563039.755     -839164.078 8   -638547.845 6        29.250          17.250
  23772493.419     5914226.628 5   4515259.876 5         9.000           7.000
  21396824.731    -1492290.895 6  -1138609.703 6        18.500          15.750
  23959682.786    -3391437.728 5  -2563689.795 5         8.250           7.500
  24135038.802    -1986084.514 5  -1494932.911 5        11.250           8.250
  21373386.185     2216309.038 7   1694579.739 6        24.000          17.000
 93  3 31 18 27 30.0010000  0  6G18G14G19G27G28G29
  20561968.567     -844787.984 8   -642930.114 6        29.500          17.250
  23783948.950     5974409.868 5   4562155.753 5         9.000           6.750
  21394258.528    -1505813.204 6  -1149146.552 6        18.250          15.750
  23953016.411    -3426524.932 5  -2591030.426 5         8.500           7.500
  24131465.216    -2004842.236 5  -1509549.263 5        11.250           8.500
  21378201.536     2241596.478 7   1714284.200 6        24.250          17.000
 93  3 31 18 27 45.0010000  0  6G18G14G19G27G28G29
  20560911.927     -850337.921 8   -647254.750 6        29.500          17.250
  23795402.630     6034594.250 5   4609052.525 5         9.000           6.750
  21391684.786    -1519299.341 6  -1159655.212 6        18.500          15.750
  23946330.419    -3461603.170 5  -2618364.052 5         8.250           7.500
  24127914.560    -2023527.406 5  -1524109.081 5        11.250           8.500
  21383023.372     2266946.498 7   1734037.429 6        24.000          17.000
 93  3 31 18 28  0.0010000  0  6G18G14G19G27G28G29
  20559868.380     -855807.571 8   -651516.824 6        29.500          17.250
  23806856.630     6094784.682 5   4655954.015 5         9.250           6.750
  21389131.396    -1532743.501 6  -1170131.163 6        18.250          15.750
  23939668.036    -3496667.434 5  -2645686.811 5         8.500           7.500
  24124369.575    -2042131.085 5  -1538605.394 5        11.250           8.500
  21387859.528     2292361.182 7   1753841.048 6        24.000          17.000
 93  3 31 18 28 15.0010000  0  6G18G14G19G27G28G29
  20558844.919     -861202.570 8   -655720.728 6        29.500          17.250
  23818308.505     6154970.005 5   4702851.514 5         9.250           6.750
  21386571.185    -1546152.923 6  -1180580.051 6        18.500          15.750
  23932991.255    -3531726.726 5  -2673005.687 5         8.750           7.500
  24120848.825    -2060663.927 5  -1553046.529 5        11.250           8.500
  21392705.021     2317829.807 7   1773686.693 6        24.250          17.000
 93  3 31 18 28 30.0010000  0  6G18G14G19G27G28G29
  20557835.146     -866516.625 8   -659861.558 6        29.750          17.250
  23829762.669     6215153.499 5   4749747.590 5         9.250           6.500
  21384033.841    -1559524.140 6  -1190999.159 6        18.250          15.750
  23926313.380    -3566780.316 5  -2700320.124 5         8.500           7.750
  24117329.106    -2079123.952 5  -1567430.908 5        10.750           8.500
  21397562.716     2343353.666 7   1793575.376 6        24.000          17.000
 93  3 31 18 28 45.0010000  0  6G18G14G19G27G28G29
  20556839.466     -871747.597 8   -663937.649 6        29.750          17.250
  23841214.247     6275333.289 5   4796640.793 5         9.250           6.500
  21381495.911    -1572858.625 6  -1201389.653 6        18.500          15.750
  23919659.372    -3601829.370 5  -2727631.032 5         8.750           7.750
  24113836.739    -2097511.969 5  -1581759.179 5        11.250           8.500
  21402431.138     2368931.695 7   1813506.269 6        24.250          17.250
 93  3 31 18 29  0.0010000  0  6G18G14G19G27G28G29
  20555859.192     -876892.600 8   -667946.755 6        29.750          17.000
  23852672.458     6335508.594 5   4843530.493 5         9.500           6.500
  21378970.161    -1586152.527 6  -1211748.523 6        18.250          15.750
  23912983.802    -3636872.691 5  -2754937.467 5         9.000           7.500
  24110346.880    -2115826.996 5  -1596030.578 5        11.250           8.500
  21407309.935     2394567.864 7   1833482.468 6        24.250          17.000
 93  3 31 18 29 15.0010000  0  6G18G14G19G27G28G29
  20554896.778     -881952.160 8   -671889.272 6        29.750          17.250
  23864116.325     6395680.104 5   4890417.224 5         9.500           6.500
  21376439.521    -1599405.395 6  -1222075.417 6        18.500          15.500
  23906313.653    -3671910.134 5  -2782239.331 5         8.750           7.500
  24106876.169    -2134070.312 5  -1610246.092 5        11.500           8.500
  21412200.060     2420263.203 7   1853504.778 6        24.250          17.250
 93  3 31 18 29 30.0010000  0  6G18G14G19G27G28G29
  20553951.013     -886932.653 8   -675770.187 6        29.750          17.000
  23875563.489     6455848.083 5   4937301.211 5         9.500           6.250
  21373927.880    -1612621.296 6  -1232373.501 6        18.250          15.500
  23899645.653    -3706946.707 5  -2809540.499 5         8.750           7.500
  24103419.403    -2152246.081 5  -1624408.976 5        11.750           8.500
  21417099.669     2446015.603 7   1873571.551 6        24.250          17.250
 93  3 31 18 29 45.0010000  0  6G18G14G19G27G28G29
  20553015.302     -891833.745 8   -679589.229 6        30.000          17.250
  23887021.177     6516019.919 5   4984188.225 5         9.250           6.500
  21371420.997    -1625794.693 6  -1242638.473 6        18.500          15.500
  23892981.630    -3741978.717 5  -2836838.126 5         9.000           7.500
  24099974.638    -2170348.668 5  -1638514.847 5        11.750           8.750
  21422012.060     2471831.114 7   1893687.499 6        24.000          17.250
 93  3 31 18 30  0.0010000  0  6G18G14G19G27G28G29
  20552098.849     -896660.008 8   -683349.962 6        30.000          17.000
  23898468.364     6576194.653 5   5031077.472 5         9.250           6.250
  21368925.794    -1638926.038 6  -1252870.672 6        18.250          15.500
  23886316.950    -3777006.106 5  -2864132.150 5         8.750           7.500
  24096540.872    -2188378.193 5  -1652563.774 5        11.500           8.750
  21426938.106     2497709.031 7   1913852.073 6        24.250          17.000
 93  3 31 18 30 15.0010000  0  6G18G14G19G27G28G29
  20551192.138     -901416.052 8   -687055.978 6        29.750          17.250
  23909919.622     6636369.019 5   5077966.440 5         9.250           6.250
  21366430.731    -1652019.963 6  -1263073.713 6        18.500          15.500
  23879653.177    -3812030.196 5  -2891423.600 5         8.500           7.500
  24093127.989    -2206337.228 5  -1666557.789 5        11.500           8.750
  21431874.896     2523649.508 7   1934065.392 6        24.250          17.000
 93  3 31 18 30 30.0010000  0  6G18G14G19G27G28G29
  20550301.638     -906101.415 8   -690706.917 6        30.000          17.250
  23921367.286     6696546.507 5   5124857.845 5         9.000           6.250
  21363946.099    -1665076.695 6  -1273247.771 6        18.250          15.500
  23872994.005    -3847048.178 5  -2918710.286 5         8.750           7.500
  24089719.833    -2224226.038 5  -1680497.067 5        11.250           8.750
  21436822.474     2549656.239 7   1954330.339 6        24.500          17.000
 93  3 31 18 30 45.0010000  0  6G18G14G19G27G28G29
  20549424.817     -910711.461 8   -694299.172 6        30.000          17.000
  23932824.169     6756735.866 5   5171758.489 5         9.250           6.000
  21361467.317    -1678091.076 6  -1283388.828 6        18.500          15.500
  23866321.794    -3882051.973 5  -2945985.915 5         8.750           7.500
  24086333.200    -2242032.261 5  -1694371.992 5        11.500           8.750
  21441784.966     2575738.375 7   1974654.046 6        24.500          17.000
 93  3 31 18 31  0.0010000  0  6G18G14G19G27G28G29
  20548559.146     -915249.696 8   -697835.473 6        30.250          17.000
  23944277.372     6816937.810 5   5218668.947 5         9.250           6.000
  21359013.349    -1691061.372 6  -1293495.532 6        17.750          15.500
  23859671.263    -3917041.002 5  -2973250.048 5         8.750           7.500
  24082958.341    -2259753.716 5  -1708180.889 5        11.750           8.750
  21446766.302     2601897.811 7   1995037.989 6        24.500          17.000
 93  3 31 18 31 15.0010000  0  6G18G14G19G27G28G29
  20547708.388     -919722.834 8   -701321.034 6        29.750          17.000
  23955737.294     6877148.662 5   5265586.334 5         9.000           6.000
  21356541.427    -1703991.380 6  -1303570.850 6        18.750          15.500
  23853010.716    -3952018.750 5  -3000505.392 5         8.750           7.500
  24079601.497    -2277393.261 5  -1721925.940 5        11.500           8.750
  21451756.966     2628130.476 7   2015478.997 6        24.500          17.000
 93  3 31 18 31 30.0010000  0  6G18G14G19G27G28G29
  20546871.833     -924130.950 8   -704755.941 6        30.000          17.000
  23967201.841     6937370.318 5   5312512.156 5         9.000           6.000
  21354085.396    -1716880.853 6  -1313614.577 6        18.500          15.500
  23846358.177    -3986984.688 5  -3027751.525 5         9.000           7.500
  24076257.778    -2294948.792 5  -1735605.533 5        11.500           8.750
  21456760.591     2654438.343 7   2035978.597 6        24.500          17.000
 93  3 31 18 31 45.0010000  0  6G18G14G19G27G28G29
  20546045.583     -928471.530 8   -708138.220 6        29.750          17.000
  23978659.450     6997600.065 5   5359444.267 5         9.000           5.750
  21351641.278    -1729730.644 6  -1323627.387 6        18.750          15.500
  23839705.356    -4021939.292 5  -3054988.827 5         9.000           7.750
  24072936.356    -2312419.029 5  -1749218.663 5        11.750           8.750
  21461782.599     2680821.777 7   2056537.084 6        24.500          17.000
 93  3 31 18 32  0.0010000  0  6G18G14G19G27G28G29
  20545232.169     -932743.147 8   -711466.760 6        30.250          17.000
  23990125.560     7057834.405 5   5406379.956 5         8.750           5.750
  21349218.935    -1742541.185 6  -1333609.608 6        17.500          15.500
  23833054.302    -4056883.668 5  -3082218.158 5         9.000           7.500
  24069629.911    -2329805.195 6  -1762766.282 5        12.000           8.750
  21466819.817     2707281.204 7   2077154.783 6        24.500          17.250
 93  3 31 18 32 15.0010000  0  6G18G14G19G27G28G29
  20544433.521     -936940.820 8   -714737.680 6        30.000          17.000
  24001586.099     7118071.163 5   5453317.535 5         8.500           5.750
  21346773.263    -1755314.749 6  -1343563.013 6        18.750          15.500
  23826406.122    -4091815.070 5  -3109437.385 5         9.000           7.500
  24066335.153    -2347107.889 5  -1776248.863 5        11.750           8.750
  21471868.833     2733817.885 7   2097832.681 6        24.500          17.250
 93  3 31 18 32 30.0010000  0  6G18G14G19G27G28G29
  20543649.028     -941062.573 8   -717949.449 6        30.250          16.750
  24013049.021     7178309.564 5   5500256.379 5         8.500           5.750
  21344348.856    -1768049.696 6  -1353486.336 6        18.750          15.500
  23819761.169    -4126735.963 5  -3136648.419 5         9.500           7.500
  24063057.130    -2364328.100 5  -1789667.171 5        11.750           9.000
  21476931.872     2760431.719 7   2118570.703 6        24.500          17.250
 93  3 31 18 32 45.0010000  0  6G18G14G19G27G28G29
  20542877.231     -945111.070 8   -721104.124 6        30.250          16.750
  24024507.435     7238548.045 5   5547195.303 5         8.500           5.750
  21341934.630    -1780747.329 6  -1363380.606 6        19.000          13.750
  23813123.880    -4161651.577 5  -3163855.346 5         9.250           7.500
  24059799.294    -2381466.161 6  -1803021.449 5        12.000           9.000
  21482010.106     2787118.492 7   2139365.558 6        24.250          17.250
 93  3 31 18 33  0.0010000  0  6G18G14G19G27G28G29
  20542124.794     -949080.970 8   -724197.560 6        30.000          16.750
  24035973.763     7298787.131 5   5594134.694 5         8.250           5.750
  21339527.599    -1793403.653 6  -1373242.654 6        18.750          13.500
  23806471.380    -4196561.510 5  -3191057.831 5         9.000           7.500
  24056547.481    -2398519.690 5  -1816309.876 5        11.750           9.000
  21487102.888     2813881.804 7   2160220.050 6        24.500          17.250
 93  3 31 18 33 15.0010000  0  6G18G14G19G27G28G29
  20541385.466     -952962.823 8   -727222.391 6        30.250          16.750
  24047437.731     7359031.609 5   5641078.275 5         8.500           6.000
  21337124.435    -1806011.756 6  -1383067.131 6        19.000          13.500
  23799834.435    -4231457.985 5  -3218249.844 5         9.250           7.500
  24053322.739    -2415486.154 5  -1829530.449 5        11.500           9.000
  21492213.075     2840728.908 7   2181139.837 6        24.500          17.250
 93  3 31 18 33 30.0010000  0  6G18G14G19G27G28G29
  20540661.356     -956756.091 8   -730178.192 6        30.250          16.750
  24058903.896     7419279.756 5   5688024.735 5         8.500           5.750
  21334753.903    -1818573.950 6  -1392855.831 6        17.500          13.500
  23793195.427    -4266340.473 5  -3245430.949 5         9.500           7.500
  24050109.356    -2432368.033 5  -1842685.122 5        11.750           9.000
  21497334.716     2867657.277 7   2202122.953 6        24.500          17.250
 93  3 31 18 33 45.0010000  0  6G18G14G19G27G28G29
  20539956.856     -960454.759 8   -733060.282 6        30.000          16.750
  24070374.388     7479535.197 5   5734976.850 5         8.250           5.750
  21332356.958    -1831085.000 6  -1402604.685 6        18.750          13.500
  23786566.091    -4301204.039 5  -3272597.313 5         9.500           7.500
  24046916.396    -2449160.355 5  -1855769.996 5        11.500           9.000
  21502479.583     2894671.117 7   2223172.669 6        24.750          17.500
 93  3 31 18 34  0.0010000  0  6G18G14G19G27G28G29
  20539271.896     -964065.376 8   -735873.760 6        30.000          16.500
  24081836.981     7539792.571 5   5781930.503 5         8.250           5.750
  21329998.411    -1843546.876 6  -1412315.221 6        17.000          13.500
  23779933.146    -4336052.316 5  -3299751.750 5         9.750           7.500
  24043737.294    -2465867.059 5  -1868788.172 5        11.750           9.000
  21507633.833     2921765.513 7   2244285.146 6        24.750          17.250
 93  3 31 18 34 15.0010000  0  6G18G14G19G27G28G29
  20538600.661     -967589.076 8   -738619.510 6        30.000          16.750
  24093306.239     7600052.192 5   5828885.881 5         8.000           6.000
  21327621.700    -1855959.922 6  -1421987.679 6        18.250          15.500
  23773306.005    -4370882.836 5  -3326892.369 5         9.750           7.500
  24040576.599    -2482487.782 5  -1881739.343 5        11.750           9.250
  21512803.919     2948939.095 7   2265459.335 6        24.500          17.250
 93  3 31 18 34 30.0010000  0  6G18G14G19G27G28G29
  20537948.013     -971028.027 8   -741299.224 6        30.250          16.750
  24104775.036     7660311.397 5   5875840.947 5         8.500           6.000
  21325283.614    -1868323.533 6  -1431621.653 6        16.750          15.500
  23766679.622    -4405699.335 5  -3354022.048 5         9.750           7.500
  24037423.927    -2499023.528 5  -1894624.307 5        11.750           9.250
  21517987.692     2976186.246 7   2286690.852 6        24.500          17.250
 93  3 31 18 34 45.0010000  0  6G18G14G19G27G28G29
  20537308.060     -974380.630 8   -743911.650 6        30.000          16.750
  24116242.364     7720572.793 5   5922797.712 5         8.250           6.000
  21322926.575    -1880634.993 6  -1441214.979 6        18.250          15.500
  23760056.396    -4440499.795 5  -3381139.224 5         9.750           7.500
  24034296.138    -2515469.985 5  -1907439.677 5        11.500           9.250
  21523187.052     3003509.486 7   2307981.657 6        24.500          17.250
 93  3 31 18 35  0.0010000  0  6G18G14G19G27G28G29
  20536687.060     -977643.796 8   -746454.383 6        30.250          16.500
  24127707.614     7780838.861 5   5969758.115 5         8.000           5.750
  21320597.091    -1892894.156 6  -1450767.556 6        18.250          15.500
  23753439.364    -4475278.232 5  -3408239.244 5         9.750           7.500
  24031180.396    -2531826.856 5  -1920185.246 5        11.500           9.250
  21528401.114     3030911.174 7   2329333.599 6        24.750          17.250
 93  3 31 18 35 15.0010000  0  6G18G14G19G27G28G29
  20536084.060     -980825.213 8   -748933.420 6        30.250          16.500
  24139178.513     7841100.827 5   6016715.327 5         8.250           6.000
  21318267.849    -1905109.215 6  -1460285.761 6        18.500          15.750
  23746826.013    -4510039.323 5  -3435325.754 5        10.000           7.500
  24028091.521    -2548103.383 5  -1932868.221 5        11.250           9.250
  21533628.396     3058383.452 7   2350740.536 6        24.750          17.250
 93  3 31 18 35 30.0010000  0  6G18G14G19G27G28G29
  20535492.419     -983930.103 8   -751352.825 6        30.250          16.500
  24150633.802     7901358.425 5   6063669.118 5         8.000           6.000
  21315953.771    -1917281.608 6  -1469770.728 6        18.500          15.750
  23740215.021    -4544783.497 5  -3462399.063 5        10.250           7.500
  24025003.356    -2564299.433 5  -1945488.484 5        11.000           9.250
  21538870.716     3085920.939 7   2372198.278 6        24.750          17.250
 93  3 31 18 35 45.0010000  0  6G18G14G19G27G28G29
  20534916.278     -986954.026 8   -753709.134 6        30.250          16.500
  24162108.747     7961618.359 5   6110624.750 5         8.250           6.000
  21313642.099    -1929405.480 6  -1479217.882 6        18.500          15.750
  23733602.677    -4579508.189 5  -3489457.207 5        10.000           7.500
  24021943.817    -2580407.318 5  -1958040.032 5        11.250           9.250
  21544123.974     3113527.773 7   2393710.062 6        24.750          17.250
 93  3 31 18 36  0.0010000  0  6G18G14G19G27G28G29
  20534356.606     -989889.262 8   -755996.342 6        30.250          16.500
  24173580.036     8021886.314 5   6157586.601 5         8.250           6.000
  21311359.622    -1941473.831 6  -1488621.775 6        17.250          15.750
  23727000.091    -4614207.651 5  -3516495.671 5        10.000           7.750
  24018892.286    -2596419.897 5  -1970517.323 5        11.500           9.250
  21549392.185     3141210.639 7   2415281.083 6        24.750          17.250
 93  3 31 18 36 15.0010000  0  6G18G14G19G27G28G29
  20533813.810     -992739.914 8   -758217.641 6        30.250          16.500
  24185049.763     8082158.340 5   6204551.633 5         8.250           6.000
  21309060.544    -1953495.942 6  -1497989.639 6        18.750          15.750
  23720407.231    -4648888.001 5  -3543519.258 5        10.250           7.750
  24015860.739    -2612344.035 5  -1982925.700 5        10.750           9.250
  21554675.669     3168962.685 7   2436906.021 6        24.750          17.250
 93  3 31 18 36 30.0010000  0  6G18G14G19G27G28G29
  20533289.583     -995499.252 8   -760367.778 6        30.250          16.250
  24196516.091     8142439.659 5   6251523.918 5         8.000           5.750
  21306782.122    -1965471.716 6  -1507321.393 6        18.500          15.750
  23713804.396    -4683546.720 5  -3570525.973 5        10.250           7.750
  24012850.708    -2628176.577 5  -1995262.703 5        11.250           9.250
  21559967.528     3196786.412 7   2458586.811 6        24.750          17.000
 93  3 31 18 36 45.0010000  0  6G18G14G19G27G28G29
  20532784.489     -998168.064 8   -762447.383 6        30.250          16.250
  24207989.942     8202729.077 5   6298502.517 5         8.250           6.000
  21304508.106    -1977403.222 6  -1516618.652 6        18.750          15.750
  23707212.997    -4718184.445 5  -3597516.343 5        10.250           7.750
  24009852.771    -2643916.876 5  -2007527.829 5        11.000           9.250
  21565275.911     3224684.493 7   2480325.539 6        24.500          17.250
 93  3 31 18 37  0.0010000  0  6G18G14G19G27G28G29
  20532291.224    -1000748.635 8   -764458.229 6        30.250          16.250
  24219463.489     8263024.704 5   6345485.908 5         8.250           6.000
  21302249.208    -1989294.718 6  -1525884.734 6        19.000          15.750
  23700627.841    -4752801.307 5  -3624490.459 5        10.250           7.750
  24006871.052    -2659566.197 5  -2019722.068 5        11.000           9.250
  21570599.849     3252655.833 7   2502121.354 6        24.500          17.250
 93  3 31 18 37 15.0010000  0  6G18G14G19G27G28G29
  20531819.403    -1003229.385 8   -766391.287 6        30.250          16.250
  24230939.442     8323337.516 5   6392482.744 5         8.250           5.750
  21299995.036    -2001131.672 6  -1535108.320 6        18.750          15.750
  23694042.778    -4787389.026 5  -3651441.856 5        10.250           7.750
  24003922.989    -2675109.275 5  -2031833.523 5        11.500           9.250
  21575939.192     3280712.313 7   2523983.505 6        24.750          17.000
 93  3 31 18 37 30.0010000  0  6G18G14G19G27G28G29
  20531367.310    -1005618.177 8   -768252.689 6        30.250          16.250
  24242416.771     8383657.187 5   6439484.903 5         8.000           5.750
  21297751.255    -2012922.049 6  -1544295.607 6        18.750          15.750
  23687468.528    -4821958.415 5  -3678378.977 5        10.500           7.750
  24000976.552    -2690551.448 5  -2043866.340 5        11.250           9.250
  21581290.021     3308844.816 7   2545904.899 6        24.500          17.000
 93  3 31 18 37 45.0010000  0  6G18G14G19G27G28G29
  20530929.083    -1007916.869 8   -770043.888 6        30.000          16.250
  24253901.021     8443976.856 5   6486487.062 5         8.000           5.750
  21295517.028    -2024669.820 6  -1553449.691 6        18.750          15.750
  23680894.372    -4856515.430 5  -3705306.443 5        10.500           7.750
  23998055.810    -2705896.854 5  -2055823.758 5        10.750           9.250
  21586662.513     3337050.672 7   2567883.446 6        24.500          17.000
 93  3 31 18 38  0.0010000  0  6G18G14G19G27G28G29
  20530509.622    -1010114.497 8   -771756.339 6        30.250          16.250
  24265378.786     8504302.366 5   6533493.764 5         8.250           5.750
  21293290.755    -2036368.065 6  -1562565.185 6        18.500          16.000
  23674319.099    -4891049.618 5  -3732216.134 5        10.500           8.000
  23995158.466    -2721137.030 5  -2067699.183 5        11.250           9.250
  21592043.591     3365341.842 7   2589928.477 6        24.500          17.000
 93  3 31 18 38 15.0010000  0  6G18G14G19G27G28G29
  20530107.685    -1012214.612 8   -773392.798 6        30.250          16.000
  24276859.466     8564629.922 5   6580502.066 5         8.000           5.750
  21291073.310    -2048024.437 6  -1571648.058 6        18.750          16.000
  23667753.739    -4925564.646 5  -3759110.888 5        10.500           8.000
  23992275.294    -2736275.494 5  -2079495.347 5        11.250           9.500
  21597441.911     3393713.429 7   2612036.172 6        24.250          17.000
 93  3 31 18 38 30.0010000  0  6G18G14G19G27G28G29
  20529726.981    -1014216.423 8   -774952.666 6        30.250          16.000
  24288335.521     8624960.591 5   6627512.805 5         8.000           5.750
  21288867.091    -2059637.227 6  -1580696.961 6        18.750          16.000
  23661190.763    -4960057.688 5  -3785988.503 5        10.500           8.000
  23989416.317    -2751308.335 5  -2091209.214 5        11.000           9.500
  21602858.544     3422169.233 7   2634209.489 6        24.250          17.000
 93  3 31 18 38 45.0010000  0  6G18G14G19G27G28G29
  20529364.599    -1016125.391 8   -776440.186 6        30.250          16.000
  24299814.083     8685287.891 5   6674520.888 5         7.750           5.750
  21286662.044    -2071206.550 6  -1589712.002 6        18.750          16.250
  23654629.231    -4994532.784 5  -3812852.150 5        10.250           8.000
  23986574.216    -2766236.617 5  -2102841.593 5        11.500           9.500
  21608288.169     3450709.113 7   2656448.312 6        24.000          17.000
 93  3 31 18 39  0.0010000  0  6G18G14G19G27G28G29
  20529018.544    -1017946.603 8   -777859.316 6        30.250          16.000
  24311300.208     8745606.605 5   6721522.311 5         8.000           5.750
  21284472.825    -2082734.321 6  -1598694.662 6        18.500          16.000
  23648069.747    -5028995.912 5  -3839706.466 5        10.250           8.000
  23983755.325    -2781065.379 5  -2114396.432 5        11.250           9.500
  21613736.864     3479330.100 7   2678750.342 6        24.000          17.000
 93  3 31 18 39 15.0010000  0  6G18G14G19G27G28G29
  20528688.333    -1019683.139 8   -779212.470 6        30.500          16.000
  24322779.896     8805916.153 5   6768516.566 5         7.750           5.500
  21282282.294    -2094219.945 6  -1607644.477 6        19.000          16.250
  23641513.044    -5063451.827 5  -3866555.166 5        10.250           8.250
  23980952.810    -2795798.388 5  -2125876.652 5        11.500           9.500
  21619195.981     3508028.620 7   2701112.788 6        23.750          17.000
 93  3 31 18 39 30.0010000  0  6G18G14G19G27G28G29
  20528375.247    -1021331.540 8   -780496.949 6        30.500          16.000
  24334249.075     8866217.848 5   6815504.712 5         7.750           5.500
  21280107.060    -2105663.421 6  -1616561.460 6        18.500          16.250
  23634960.833    -5097897.020 5  -3893395.516 5        10.250           8.250
  23978167.435    -2810437.136 5  -2137283.430 5        11.000           9.500
  21624672.685     3536806.682 7   2723537.211 6        24.000          17.000
 93  3 31 18 39 45.0010000  0  6G18G14G19G27G28G29
  20528080.271    -1022879.541 8   -781703.192 6        30.500          16.000
  24345723.677     8926526.592 5   6862498.351 5         7.750           5.500
  21277938.278    -2117052.832 6  -1625436.300 6        19.000          16.250
  23628408.927    -5132316.364 5  -3920215.704 5        10.250           8.250
  23975396.466    -2824972.217 5  -2148609.433 5        11.500           9.750
  21630165.880     3565679.545 7   2746035.501 6        23.500          16.750
 93  3 31 18 40  0.0010000  0  6G18G14G19G27G28G29
  20527804.442    -1024335.111 8   -782837.404 6        30.500          16.000
  24357203.614     8986840.934 5   6909496.360 5         7.750           5.500
  21275782.911    -2128393.181 6  -1634272.918 6        18.500          16.250
  23621859.005    -5166715.535 5  -3947020.195 5        10.000           8.250
  23972647.341    -2839406.212 5  -2159856.665 5        11.250           9.500
  21635678.091     3594643.096 7   2768604.465 6        23.750          17.000
 93  3 31 18 40 15.0010000  0  6G18G14G19G27G28G29
  20527540.653    -1025703.843 8   -783903.961 6        30.250          15.750
  24368681.122     9047159.594 5   6956497.716 5         7.500           5.500
  21273629.497    -2139690.058 6  -1643075.662 6        19.000          16.250
  23615320.403    -5201099.747 5  -3973813.010 5        10.250           8.500
  23969918.380    -2853743.136 5  -2171028.247 5        11.000           9.500
  21641207.294     3623690.053 7   2791238.425 6        23.500          17.000
 93  3 31 18 40 30.0010000  0  6G18G14G19G27G28G29
  20527297.817    -1026991.562 8   -784907.387 6        30.500          15.750
  24380156.114     9107475.533 5   7003496.948 5         7.500           5.250
  21271491.278    -2150944.998 6  -1651845.726 6        19.000          16.250
  23608772.888    -5235477.985 5  -4000601.179 5        10.250           8.500
  23967208.942    -2867988.383 5  -2182128.400 5        11.000           9.500
  21646746.310     3652814.440 7   2813932.717 6        23.250          17.000
 93  3 31 18 40 45.0010000  0  6G18G14G19G27G28G29
  20527068.333    -1028192.966 8   -785843.557 6        30.250          15.750
  24391629.708     9167792.907 4   7050497.302 5         7.250           5.250
  21269355.036    -2162148.515 6  -1660575.724 6        19.500          16.250
  23602238.583    -5269844.360 5  -4027380.110 5        10.500           8.500
  23964526.560    -2882137.792 5  -2193153.879 5        11.000           9.500
  21652303.411     3682023.428 7   2836692.930 6        23.000          16.750
 93  3 31 18 41  0.0010000  0  6G18G14G19G27G28G29
  20526857.481    -1029307.133 8   -786711.750 6        30.500          15.750
  24403118.169     9228109.641 5   7097497.157 5         7.500           5.250
  21267233.466    -2173302.419 6  -1669267.056 6        19.250          16.250
  23595697.646    -5304201.234 5  -4054151.631 5        10.500           8.500
  23961861.786    -2896194.622 5  -2204107.209 5        11.000           9.750
  21657880.567     3711314.027 7   2859516.732 6        23.000          16.750
 93  3 31 18 41 15.0010000  0  6G18G14G19G27G28G29
  20526660.325    -1030329.736 8   -787508.590 6        30.250          15.750
  24414596.661     9288429.362 4   7144499.367 5         7.000           5.250
  21265121.411    -2184406.390 6  -1677919.506 6        19.750          14.250
  23589163.419    -5338542.644 5  -4080911.098 5        10.250           8.500
  23959210.247    -2910155.980 5  -2214986.145 5        11.000           9.500
  21663468.489     3740686.043 7   2882403.983 6        22.500          16.750
 93  3 31 18 41 30.0010000  0  6G18G14G19G27G28G29
  20526483.981    -1031265.993 8   -788238.150 6        30.250          15.750
  24426075.653     9348745.608 4   7191498.815 5         7.000           5.250
  21263019.325    -2195468.258 6  -1686539.121 6        19.500          14.250
  23582633.755    -5372870.797 5  -4107660.239 5        10.250           8.500
  23956576.138    -2924024.939 5  -2225793.082 5        11.500           9.500
  21669072.606     3770130.641 7   2905347.782 6        22.750          16.750
 93  3 31 18 41 45.0010000  0  6G18G14G19G27G28G29
  20526323.161    -1032120.308 8   -788903.862 6        30.250          15.750
  24437555.224     9409051.293 4   7238490.067 5         7.000           5.250
  21260916.560    -2206492.489 7  -1695129.414 6        20.000          14.250
  23576101.239    -5407187.137 5  -4134400.189 5        10.500           8.500
  23953951.653    -2937803.492 5  -2236529.570 5        11.250           9.500
  21674683.302     3799641.839 7   2928343.485 6        22.500          16.750
 93  3 31 18 42  0.0010000  0  6G18G14G19G27G28G29
  20526175.239    -1032897.863 8   -789509.750 6        30.000          15.750
  24449023.763     9469342.812 4   7285470.263 5         7.000           5.000
  21258826.911    -2217480.212 6  -1703691.258 6        19.250          14.250
  23569575.192    -5441495.976 5  -4161134.277 5        10.500           8.750
  23951342.966    -2951490.836 5  -2247194.988 5        11.250           9.500
  21680317.763     3829213.789 7   2951386.522 6        22.750          16.750
 93  3 31 18 42 15.0010000  0  6G18G14G19G27G28G29
  20526040.560    -1033591.862 8   -790050.540 6        30.000          15.500
  24460496.903     9529617.843 4   7332437.628 5         7.000           5.000
  21256741.997    -2228428.410 7  -1712222.301 6        20.000          14.250
  23563040.411    -5475794.094 5  -4187860.017 5        10.500           8.500
  23948753.966    -2965084.056 5  -2257787.058 5        11.250           9.500
  21685956.013     3858846.754 7   2974477.090 6        22.500          16.500
 93  3 31 18 42 30.0010000  0  6G18G14G19G27G28G29
  20525925.294    -1034196.576 8   -790521.751 6        30.000          15.500
  24471963.458     9589876.301 4   7379392.047 5         6.750           5.000
  21254672.911    -2239333.241 6  -1720719.555 6        19.500          14.250
  23556523.028    -5510076.785 5  -4214573.742 5        10.500           8.750
  23946168.380    -2978584.366 5  -2268306.725 5        11.250           9.500
  21691605.403     3888543.810 7   2997617.625 6        22.250          16.500
 93  3 31 18 42 45.0010000  0  6G18G14G19G27G28G29
  20525829.278    -1034713.913 8   -790924.884 6        30.000          15.500
  24483420.481     9650116.485 4   7426332.234 5         6.500           4.750
  21252600.528    -2250196.545 6  -1729184.446 6        19.750          14.250
  23549998.810    -5544343.027 5  -4241274.650 5        10.750           8.750
  23943606.888    -2991992.987 5  -2278754.960 5        11.000           9.500
  21697269.239     3918304.815 7   3020807.973 6        22.250          16.500
 93  3 31 18 43  0.0010000  0  6G18G14G19G27G28G29
  20525746.177    -1035145.326 8   -791261.056 6        30.250          15.500
  24494879.146     9710337.536 4   7473257.552 5         6.500           4.750
  21250542.231    -2261024.300 6  -1737621.621 6        19.250          16.500
  23543482.341    -5578590.147 5  -4267960.641 5        10.750           8.750
  23941074.599    -3005310.626 5  -2289132.282 5        11.500           9.500
  21702943.302     3948125.260 7   3044044.640 6        22.250          16.250
 93  3 31 18 43 15.0010000  0  6G18G14G19G27G28G29
  20525677.419    -1035490.526 8   -791530.046 6        30.000          15.500
  24506342.224     9770540.892 4   7520169.048 5         6.500           4.500
  21248484.396    -2271817.588 6  -1746031.960 6        19.500          16.500
  23536969.966    -5612818.822 5  -4294632.272 5        10.750           8.750
  23938559.138    -3018534.792 5  -2299436.785 5        11.000           9.500
  21708630.810     3978002.997 7   3067325.957 6        22.000          16.250
 93  3 31 18 43 30.0010000  0  5G18G19G27G28G29
  20525629.239    -1035746.859 8   -791729.799 6        30.000          15.500
  21246453.583    -2282569.081 6  -1754409.732 6        18.750          16.500
  23530462.716    -5647025.129 5  -4321286.477 5        10.750           8.750
  23936063.255    -3031659.160 5  -2309663.522 5        11.000           9.500
  21714324.278     4007943.961 7   3090656.534 6        22.000          16.250
 93  3 31 18 43 45.0010000  0  5G18G19G27G28G29
  20525599.302    -1035907.763 8   -791855.186 6        29.750          15.500
  21244402.903    -2293269.157 6  -1762747.438 6        19.500          16.750
  23523957.247    -5681203.802 5  -4347919.147 5        11.000           8.750
  23933588.356    -3044676.827 5  -2319807.111 5        11.000           9.750
  21720042.153     4037959.773 7   3114045.438 6        22.000          16.250
 93  3 31 18 44  0.0010000  0  5G18G19G27G28G29
  20525588.216    -1035975.003 8   -791907.595 6        29.750          15.500
  21242380.302    -2303920.559 6  -1771047.214 6        19.250          16.500
  23517459.075    -5715361.267 5  -4374535.280 5        10.750           8.500
  23931129.997    -3057591.197 5  -2329870.209 5        11.250           9.750
  21725766.794     4068051.941 7   3137493.845 6        21.750          16.000
 93  3 31 18 44 15.0010000  0  5G18G19G27G28G29
  20525592.075    -1035945.389 8   -791884.522 6        29.750          15.500
  21240357.950    -2314522.587 6  -1779308.520 6        19.500          16.750
  23510962.685    -5749500.471 5  -4401137.200 5        11.000           8.750
  23928686.521    -3070403.632 5  -2339853.882 5        11.250           9.750
  21731508.653     4098224.840 7   3161005.160 6        21.750          16.000
 93  3 31 18 44 30.0010000  0  5G18G19G27G28G29
  20525617.896    -1035823.696 8   -791789.703 6        29.750          15.500
  21238363.177    -2325081.026 6  -1787535.858 6        18.250          16.500
  23504466.114    -5783625.386 5  -4427727.974 5        10.750           8.750
  23926269.771    -3083121.327 5  -2349763.734 5        11.250           9.750
  21737265.927     4128477.139 7   3184578.336 6        22.000          16.000
 93  3 31 18 44 45.0010000  0  5G18G19G27G28G29
  20525657.927    -1035608.510 8   -791622.034 6        29.750          15.500
  21236349.513    -2335589.958 6  -1795724.620 6        19.500          16.750
  23497973.880    -5817732.910 5  -4454305.198 5        11.000           8.750
  23923873.927    -3095737.785 5  -2359594.688 5        11.250           9.750
  21743037.161     4158814.482 7   3208217.782 6        22.000          16.000
 93  3 31 18 45  0.0010000  0  5G18G19G27G28G29
  20525716.325    -1035304.531 8   -791385.174 6        29.500          15.500
  21234359.427    -2346052.661 6  -1803877.355 6        19.500          16.750
  23491492.216    -5851826.407 5  -4480871.490 5        11.250           8.750
  23921486.833    -3108255.112 5  -2369348.418 5        11.500           9.750
  21748823.841     4189233.532 7   3231920.901 6        21.750          16.000
 93  3 31 18 45 15.0010000  0  5G18G19G27G28G29
  20525791.810    -1034914.121 8   -791080.964 6        29.250          15.500
  21232379.474    -2356467.626 6  -1811992.895 6        19.500          16.750
  23485000.583    -5885910.832 5  -4507430.715 5        11.000           8.750
  23919125.630    -3120675.508 5  -2379026.604 5        11.500           9.750
  21754629.153     4219735.296 7   3255688.473 6        22.000          16.000
 93  3 31 18 45 30.0010000  0  5G18G19G27G28G29
  20525882.630    -1034436.588 8   -790708.874 6        29.250          15.500
  21230403.653    -2366832.331 6  -1820069.263 6        19.750          16.750
  23478515.606    -5919989.370 5  -4533985.352 5        11.250           8.750
  23916782.903    -3133002.296 5  -2388631.851 5        11.750          10.000
  21760448.138     4250323.251 7   3279523.203 6        22.000          15.750
 93  3 31 18 45 45.0010000  0  5G18G19G27G28G29
  20525989.231    -1033872.919 8   -790269.661 6        29.500          15.500
  21228441.786    -2377144.766 6  -1828104.915 6        19.500          17.000
  23472034.716    -5954059.512 5  -4560533.445 5        11.250           8.750
  23914457.208    -3145235.154 5  -2398163.909 5        11.750          10.000
  21766288.591     4280999.538 7   3303426.762 6        22.250          15.750
 93  3 31 18 46  0.0010000  0  5G18G19G27G28G29
  20526114.466    -1033217.641 8   -789759.062 6        29.250          15.500
  21226506.466    -2387403.691 6  -1836098.866 6        18.000          17.000
  23465551.864    -5988118.862 5  -4587073.123 5        11.500           8.500
  23912142.427    -3157371.167 5  -2407620.510 5        11.750           9.750
  21772143.411     4311763.604 7   3327398.718 6        22.000          15.750
 93  3 31 18 46 15.0010000  0  5G18G19G27G28G29
  20526253.677    -1032466.375 8   -789173.666 6        29.500          15.500
  21224550.450    -2397605.619 6  -1844048.402 6        19.500          17.000
  23459071.575    -6022162.714 5  -4613600.735 5        11.250           8.750
  23909852.771    -3169407.569 5  -2416999.478 5        11.250           9.750
  21778012.521     4342615.806 7   3351439.351 6        22.250          15.750
 93  3 31 18 46 30.0010000  0  5G18G19G27G28G29
  20526416.669    -1031622.493 8   -788516.105 6        29.750          15.500
  21222634.583    -2407752.272 6  -1851954.867 6        18.250          17.000
  23452601.044    -6056188.978 5  -4640114.626 5        11.500           8.750
  23907582.067    -3181345.361 5  -2426301.628 5        11.500           9.500
  21783899.278     4373550.643 7   3375544.378 6        22.500          15.750
 93  3 31 18 46 45.0010000  0  5G18G19G27G28G29
  20526591.567    -1030688.247 8   -787788.129 6        29.500          15.500
  21220697.958    -2417846.318 7  -1859820.347 6        20.000          17.000
  23446128.552    -6090195.227 5  -4666612.927 5        11.500           8.500
  23905330.208    -3193181.336 5  -2435524.433 5        11.750           9.750
  21789806.622     4404564.581 7   3399711.041 6        22.500          15.750
 93  3 31 18 47  0.0010000  0  5G18G19G27G28G29
  20526789.974    -1029667.614 8   -786992.836 6        29.500          15.500
  21218803.091    -2427892.375 6  -1867648.421 6        18.250          17.000
  23439659.692    -6124185.127 5  -4693098.499 5        11.500           8.500
  23903098.333    -3204916.229 6  -2444668.469 5        12.000           9.500
  21795718.099     4435652.764 7   3423935.555 6        22.500          15.750
 93  3 31 18 47 15.0010000  0  5G18G19G27G28G29
  20527000.872    -1028556.007 8   -786126.659 6        29.250          15.500
  21216882.560    -2437890.243 6  -1875438.951 6        19.750          17.250
  23433199.544    -6158153.987 5  -4719567.657 5        11.750           8.500
  23900888.849    -3216544.272 5  -2453729.254 5        11.750           9.500
  21801650.177     4466817.438 7   3448219.667 6        22.250          15.500
 93  3 31 18 47 30.0010000  0  5G18G19G27G28G29
  20527228.981    -1027356.038 8   -785191.626 6        29.500          15.500
  21214990.567    -2447847.228 6  -1883197.622 6        19.750          17.000
  23426732.997    -6192108.221 5  -4746025.434 5        11.750           8.500
  23898692.692    -3228070.889 5  -2462711.002 5        11.500           9.250
  21807591.271     4498051.028 7   3472557.497 6        22.250          15.500
 93  3 31 18 47 45.0010000  0  5G18G19G27G28G29
  20527471.724    -1026070.897 8   -784190.224 6        29.500          15.500
  21213101.208    -2457767.297 7  -1890927.534 6        20.250          17.250
  23420271.731    -6226048.007 5  -4772471.934 5        11.500           8.500
  23896517.981    -3239497.039 5  -2471614.470 5        11.750           9.250
  21813550.606     4529346.944 7   3496943.882 6        22.500          15.500
 93  3 31 18 48  0.0010000  0  5G18G19G27G28G29
  20527734.567    -1024698.762 8   -783121.039 6        29.750          15.500
  21211221.794    -2467653.270 6  -1898630.867 6        19.750          17.000
  23413818.513    -6259970.730 5  -4798905.149 5        11.750           8.750
  23894368.903    -3250819.012 5  -2480436.759 5        11.250           9.250
  21819513.419     4560704.214 7   3521378.079 6        22.750          15.750
 93  3 31 18 48 15.0010000  0  5G18G19G27G28G29
  20528012.028    -1023233.159 8   -781979.013 6        29.500          15.500
  21209346.841    -2477503.459 7  -1906306.325 6        20.250          17.250
  23407371.169    -6293872.044 6  -4825321.682 5        12.000           8.750
  23892232.403    -3262033.792 5  -2489175.511 5        11.750           9.250
  21825491.919     4592126.167 7   3545862.672 6        22.750          15.750
 93  3 31 18 48 30.0010000  0  5G18G19G27G28G29
  20528309.810    -1021674.770 8   -780764.693 6        29.750          15.500
  21207489.997    -2487318.472 6  -1913954.365 6        18.750          17.000
  23400922.864    -6327749.694 6  -4851719.770 5        12.000           8.750
  23890115.388    -3273141.520 5  -2497830.859 5        11.750           9.250
  21831486.247     4623612.438 7   3570397.394 6        22.750          15.750
 93  3 31 18 48 45.0010000  0  5G18G19G27G28G29
  20528622.388    -1020026.628 8   -779480.434 6        29.500          15.250
  21205616.622    -2497101.673 7  -1921577.626 6        20.250          17.000
  23394480.099    -6361608.692 6  -4878103.320 5        12.000           8.750
  23888023.255    -3284143.242 5  -2506403.597 5        11.750           9.250
  21837488.731     4655161.489 7   3594981.024 6        22.750          15.750
 93  3 31 18 49  0.0010000  0  5G18G19G27G28G29
  20528953.997    -1018289.775 8   -778127.050 6        29.500          15.250
  21203762.036    -2506851.774 7  -1929175.090 6        20.250          17.250
  23388040.255    -6395452.223 6  -4904474.820 5        12.000           8.750
  23885943.966    -3295041.741 5  -2514895.910 5        11.500           9.500
  21843505.849     4686772.762 7   3619613.136 6        23.000          15.750
 93  3 31 18 49 15.0010000  0  5G18G19G27G28G29
  20529303.778    -1016457.632 8   -776699.410 6        29.500          15.250
  21201911.411    -2516565.260 7  -1936744.020 6        20.250          17.250
  23381597.661    -6429278.288 5  -4930832.708 5        11.750           8.750
  23883897.622    -3305835.247 5  -2523306.401 5        11.500           9.250
  21849533.489     4718448.543 7   3644295.527 6        23.000          15.750
 93  3 31 18 49 30.0010000  0  5G18G19G27G28G29
  20529668.513    -1014529.101 8   -775196.662 6        29.750          15.500
  21200071.786    -2526242.078 7  -1944284.379 6        20.250          17.250
  23375168.638    -6463088.545 6  -4957178.276 5        12.000           8.750
  23881857.552    -3316525.956 5  -2531636.799 5        11.750           9.500
  21855570.731     4750187.701 7   3669027.302 6        23.000          15.750
 93  3 31 18 49 45.0010000  0  5G18G19G27G28G29
  20530056.872    -1012504.662 8   -773619.182 6        29.750          15.250
  21198237.810    -2535878.949 7  -1951793.611 6        20.000          17.250
  23368740.114    -6496882.646 6  -4983511.258 5        12.000           8.750
  23879839.388    -3327116.469 6  -2539889.120 5        12.000           9.500
  21861622.130     4781989.954 7   3693808.241 6        23.250          15.750
 93  3 31 18 50  0.0010000  0  5G18G19G27G28G29
  20530460.067    -1010378.350 8   -771962.318 6        29.750          15.250
  21196414.161    -2545470.590 6  -1959267.606 6        19.750          17.250
  23362311.864    -6530654.735 6  -5009827.088 5        12.250           8.750
  23877846.739    -3337598.286 5  -2548056.743 5        11.750           9.250
  21867692.411     4813865.877 7   3718646.588 6        23.500          15.750
 93  3 31 18 50 15.0010000  0  5G18G19G27G28G29
  20530884.255    -1008149.986 8   -770225.939 6        29.750          15.500
  21194595.231    -2555018.609 7  -1966707.597 6        20.250          17.250
  23355886.567    -6564409.868 5  -5036129.707 5        11.750           8.750
  23875871.466    -3347972.201 5  -2556140.285 5        11.500           9.500
  21873772.591     4845817.459 7   3743543.879 6        23.750          15.750
 93  3 31 18 50 30.0010000  0  5G18G19G27G28G29
  20531328.036    -1005820.509 8   -768410.768 6        29.750          15.500
  21192788.185    -2564519.470 7  -1974110.847 6        20.250          17.250
  23349469.544    -6598148.814 6  -5062419.710 5        12.250           8.750
  23873922.106    -3358237.318 5  -2564139.047 5        11.750           9.250
  21879862.771     4877847.438 7   3768502.260 6        23.000          15.750
 93  3 31 18 50 45.0010000  0  5G18G19G27G28G29
  20531788.356    -1003389.064 8   -766516.143 6        29.750          15.500
  21190987.388    -2573968.717 7  -1981473.878 6        20.500          17.000
  23343050.419    -6631870.649 6  -5088696.380 5        12.000           9.000
  23871991.771    -3368389.327 5  -2572049.681 5        11.750           9.250
  21885975.739     4909962.886 7   3793527.246 6        23.250          15.500
 93  3 31 18 51  0.0010000  0  5G18G19G27G28G29
  20532273.755    -1000847.251 8   -764535.513 6        29.750          15.500
  21189205.567    -2583357.512 7  -1988789.799 6        20.250          17.250
  23336638.771    -6665566.534 6  -5114952.827 5        12.000           9.000
  23870077.825    -3378419.689 5  -2579865.535 5        11.750           9.250
  21892104.724     4942175.647 7   3818628.063 6        23.250          15.500
 93  3 31 18 51 15.0010000  0  5G18G19G27G28G29
  20532777.403     -998194.427 8   -762468.371 6        29.500          15.500
  21187426.810    -2592689.948 7  -1996061.810 6        20.500          17.250
  23330229.364    -6699237.456 6  -5141189.841 5        12.250           9.000
  23868200.536    -3388332.367 6  -2587589.679 5        12.250           9.250
  21898257.575     4974482.971 7   3843802.566 6        23.000          15.500
 93  3 31 18 51 30.0010000  0  5G18G19G27G28G29
  20533301.356     -995446.872 8   -760327.435 6        29.750          15.500
  21185664.489    -2601982.272 7  -2003302.562 6        20.000          17.250
  23323825.489    -6732901.685 6  -5167421.622 5        12.250           9.000
  23866324.716    -3398144.592 5  -2595235.541 5        11.750           9.250
  21904417.974     5006870.305 7   3869039.412 6        23.000          15.750
 93  3 31 18 51 45.0010000  0  5G18G19G27G28G29
  20533841.450     -992604.411 8   -758112.536 6        29.750          15.250
  21183896.575    -2611228.796 7  -2010507.627 6        20.500          17.250
  23317420.888    -6766554.122 6  -5193644.219 5        12.250           9.000
  23864481.263    -3407855.116 5  -2602802.168 5        11.750           9.250
  21910595.825     5039343.308 7   3894343.012 6        22.750          15.750
 93  3 31 18 52  0.0010000  0  5G18G19G27G28G29
  20534402.567     -989664.832 8   -755821.957 6        30.000          15.250
  21182150.513    -2620428.592 6  -2017676.279 6        19.750          17.250
  23311026.247    -6800191.214 6  -5219854.858 5        12.500           9.000
  23862657.099    -3417460.309 5  -2610286.713 5        11.500           9.250
  21916794.817     5071905.707 7   3919716.272 6        22.750          15.750
 93  3 31 18 52 15.0010000  0  5G18G19G27G28G29
  20534978.130     -986626.807 8   -753454.675 6        30.000          15.500
  21180402.927    -2629581.113 7  -2024808.098 6        20.250          17.250
  23304627.341    -6833809.492 6  -5246050.840 5        12.500           9.000
  23860850.966    -3426957.998 5  -2617687.485 5        11.750           9.500
  21923008.356     5104557.320 7   3945159.049 6        22.750          15.500
 93  3 31 18 52 30.0010000  0  5G18G19G27G28G29
  20535577.763     -983489.040 8   -751009.668 6        30.000          15.250
  21178677.692    -2638681.838 6  -2031899.553 6        19.750          17.250
  23298226.372    -6867401.460 6  -5272226.322 5        12.500           9.000
  23859063.021    -3436345.406 6  -2625002.330 5        12.000           9.500
  21929234.958     5137296.000 7   3970669.672 6        22.750          15.750
 93  3 31 18 52 45.0010000  0  5G18G19G27G28G29
  20536192.614     -980251.915 8   -748487.236 6        29.750          15.250
  21176951.255    -2647731.762 7  -2038951.426 6        20.250          17.250
  23291843.216    -6900965.451 6  -5298379.998 5        12.500           9.000
  23857303.239    -3445624.539 6  -2632232.799 5        12.000           9.750
  21935482.591     5170116.160 7   3996243.779 6        22.750          15.750
 93  3 31 18 53  0.0010000  0  5G18G19G27G28G29
  20536824.216     -976927.903 8   -745897.105 6        30.000          15.250
  21175238.677    -2656744.726 7  -2045974.488 6        20.000          17.250
  23285459.419    -6934514.193 6  -5324521.801 5        12.250           9.000
  23855551.396    -3454810.578 5  -2639390.727 5        11.750           9.750
  21941739.942     5203000.702 7   4021868.060 6        22.500          15.750
 93  3 31 18 53 15.0010000  0  5G18G19G27G28G29
  20537474.349     -973506.680 8   -743231.223 6        30.000          15.500
  21173530.755    -2665713.554 7  -2052963.180 6        20.250          17.250
  23279087.692    -6968038.106 6  -5350644.251 5        12.250           9.000
  23853814.388    -3463895.266 5  -2646469.691 5        11.250           9.750
  21948011.560     5235953.446 7   4047545.488 6        22.750          15.500
 93  3 31 18 53 30.0010000  0  5G18G19G27G28G29
  20538145.903     -969982.933 8   -740485.454 6        29.750          15.250
  21171833.036    -2674630.157 7  -2059911.160 6        20.000          17.250
  23272699.528    -7001534.125 6  -5376744.965 5        12.250           9.000
  23852116.442    -3472869.738 6  -2653462.760 5        12.250           9.750
  21954295.114     5268978.027 7   4073278.893 6        22.250          15.750
 93  3 31 18 53 45.0010000  0  5G18G19G27G28G29
  20538832.638     -966362.823 8   -737664.597 6        29.750          15.250
  21170141.356    -2683499.532 7  -2066822.348 6        20.000          17.250
  23266329.653    -7035004.762 6  -5402825.910 5        12.250           9.000
  23850432.325    -3481733.542 6  -2660369.608 5        12.250           9.500
  21960593.692     5302070.406 7   4099065.123 6        22.250          15.750
 93  3 31 18 54  0.0010000  0  5G18G19G27G28G29
  20539545.763     -962635.279 8   -734760.025 6        29.500          15.250
  21168470.481    -2692313.001 6  -2073689.970 6        19.500          17.250
  23259979.450    -7068438.047 6  -5428877.760 5        12.500           9.000
  23848764.606    -3490472.316 6  -2667179.016 5        12.500           9.750
  21966904.786     5335240.053 7   4124911.568 6        22.000          15.500
 93  3 31 18 54 15.0010000  0  5G18G19G27G28G29
  20540276.060     -958800.640 8   -731771.995 6        29.750          15.250
  21166802.575    -2701072.474 6  -2080515.511 6        19.750          17.500
  23253620.872    -7101838.474 6  -5454903.984 5        12.250           9.000
  23847122.583    -3499083.717 6  -2673889.179 5        12.000           9.750
  21973233.685     5368484.141 7   4150816.014 6        22.000          15.500
 93  3 31 18 54 30.0010000  0  5G18G19G27G28G29
  20541024.372     -954862.040 8   -728702.969 6        29.750          15.250
  21165148.786    -2709777.881 6  -2087298.933 6        19.500          17.250
  23247262.231    -7135210.653 6  -5480908.210 5        12.250           9.000
  23845509.810    -3507571.036 6  -2680502.653 5        12.250           9.500
  21979572.349     5401800.502 7   4176776.777 6        21.750          15.500
 93  3 31 18 54 45.0010000  0  5G18G19G27G28G29
  20541795.442     -950816.287 8   -725550.441 6        29.750          15.250
  21163499.083    -2718426.346 7  -2094037.981 6        20.000          17.250
  23240919.661    -7168558.496 6  -5506893.475 5        12.250           9.250
  23843913.778    -3515934.221 6  -2687019.398 5        12.500           9.750
  21985926.489     5435192.429 7   4202796.421 6        21.500          15.500
 93  3 31 18 55  0.0010000  0  5G18G19G27G28G29
  20542584.919     -946665.384 8   -722315.981 6        29.750          15.250
  21161865.317    -2727023.007 6  -2100736.658 6        19.250          17.250
  23234578.208    -7201891.037 6  -5532866.804 5        12.500           9.250
  23842351.177    -3524177.229 6  -2693442.503 5        12.250           9.750
  21992294.942     5468660.185 7   4228875.156 6        21.500          15.500
 93  3 31 18 55 15.0010000  0  5G18G19G27G28G29
  20543394.169     -942407.800 8   -718998.389 6        29.500          15.250
  21160236.771    -2735567.970 6  -2107395.057 6        19.750          17.250
  23228241.903    -7235206.696 6  -5558826.994 5        12.500           9.250
  23840799.044    -3532296.552 6  -2699769.218 5        12.500           9.750
  21998679.497     5502208.853 7   4255016.936 6        21.500          15.500
 93  3 31 18 55 30.0010000  0  5G18G19G27G28G29
  20544222.130     -938049.119 8   -715602.023 6        29.500          15.250
  21158623.200    -2744069.424 6  -2114019.548 6        19.500          17.250
  23221894.122    -7268512.467 6  -5584779.480 5        12.500           9.250
  23839275.403    -3540295.800 6  -2706002.376 5        12.250           9.750
  22005079.216     5535833.995 7   4281218.312 6        21.500          15.500
 93  3 31 18 55 45.0010000  0  5G18G19G27G28G29
  20545071.583     -933585.749 8   -712124.081 6        29.500          15.250
  21157010.177    -2752523.684 6  -2120607.272 6        19.750          17.250
  23215569.646    -7301801.861 6  -5610719.188 5        12.750           9.500
  23837778.653    -3548170.609 6  -2712138.578 5        12.250           9.750
  22011493.247     5569544.139 7   4307485.921 6        21.250          15.500
 93  3 31 18 56  0.0010000  0  5G18G19G27G28G29
  20545942.255     -929013.818 8   -708561.544 6        29.750          15.250
  21155421.981    -2760927.180 6  -2127155.436 6        18.750          17.250
  23209238.075    -7335068.209 6  -5636640.948 5        12.750           9.500
  23836303.646    -3555921.438 6  -2718178.162 5        12.250           9.750
  22017924.333     5603344.923 7   4333824.163 6        21.250          15.500
 93  3 31 18 56 15.0010000  0  5G18G19G27G28G29
  20546832.224     -924339.548 8   -704919.262 6        29.500          15.250
  21153821.052    -2769284.494 7  -2133667.604 6        20.000          17.250
  23202902.474    -7368318.464 6  -5662550.166 5        12.500           9.500
  23834853.708    -3563557.327 6  -2724128.184 5        12.750           9.750
  22024371.356     5637231.931 7   4360229.585 6        21.250          15.500
 93  3 31 18 56 30.0010000  0  5G18G19G27G28G29
  20547743.044     -919558.157 8   -701193.514 6        29.500          15.250
  21152243.106    -2777591.241 6  -2140140.382 6        19.750          17.250
  23196588.036    -7401547.626 6  -5688442.951 5        12.750           9.500
  23833419.497    -3571077.274 6  -2729987.861 5        12.500           9.500
  22030838.302     5671210.178 7   4386706.107 6        21.250          15.500
 93  3 31 18 56 45.0010000  0  5G18G19G27G28G29
  20548670.606     -914670.792 8   -697385.184 6        29.500          15.250
  21150665.778    -2785849.092 6  -2146575.059 6        19.750          17.250
  23190263.481    -7434753.565 6  -5714317.638 5        12.750           9.500
  23832011.786    -3578483.043 6  -2735758.569 5        12.500           9.500
  22037320.013     5705280.116 7   4413254.085 6        21.500          15.250
 93  3 31 18 57  0.0010000  0  5G18G19G27G28G29
  20549623.122     -909680.118 8   -693496.357 6        29.750          15.000
  21149120.505    -2794065.398 6  -2152977.363 6        18.500          17.250
  23183951.599    -7467935.601 6  -5740173.702 5        12.500           9.500
  23830619.833    -3585776.896 6  -2741442.079 5        12.250           9.500
  22043822.810     5739438.092 7   4439870.661 6        21.750          15.250
 93  3 31 18 57 15.0010000  0  5G18G19G27G28G29
  20550589.833     -904595.844 8   -689534.599 6        29.750          15.250
  21147547.411    -2802249.416 6  -2159354.508 6        19.750          17.250
  23177643.442    -7501096.814 6  -5766013.542 5        12.500           9.500
  23829251.310    -3592966.169 6  -2747044.096 5        12.250           9.750
  22050338.153     5773675.046 7   4466548.773 6        21.500          15.250
 93  3 31 18 57 30.0010000  0  5G18G19G27G28G29
  20551577.669     -899401.841 8   -685487.330 6        29.750          15.250
  21146002.755    -2810380.786 6  -2165690.623 6        19.750          17.250
  23171334.903    -7534214.774 6  -5791819.672 5        12.750           9.500
  23827913.372    -3600032.917 6  -2752550.623 5        12.250           9.750
  22056871.841     5808009.163 7   4493302.602 6        21.500          15.250
 93  3 31 18 57 45.0010000  0  5G18G19G27G28G29
  20552583.638     -894118.073 8   -681370.118 6        30.000          15.250
  21144458.950    -2818473.914 7  -2171996.939 6        20.000          17.250
  23165044.122    -7567307.705 6  -5817606.309 5        12.750           9.750
  23826583.036    -3606995.403 6  -2757975.922 5        12.000           9.500
  22063417.692     5842423.509 7   4520118.941 6        21.250          15.250
 93  3 31 18 58  0.0010000  0  5G18G19G27G28G29
  20553607.419     -888737.152 8   -677177.200 6        30.000          15.000
  21142933.614    -2826517.114 6  -2178264.357 6        19.750          17.500
  23158747.856    -7600366.536 6  -5843366.362 5        12.750           9.500
  23825275.372    -3613846.070 6  -2763314.074 5        12.000           9.500
  22069985.247     5876924.007 7   4547002.418 6        21.250          15.250
 93  3 31 18 58 15.0010000  0  5G18G19G27G28G29
  20554650.778     -883259.788 8   -672909.139 6        29.750          15.000
  21141405.997    -2834510.329 6  -2184492.819 6        19.750          17.250
  23152457.997    -7633395.608 6  -5869103.232 5        12.750           9.750
  23823999.435    -3620585.591 6  -2768565.633 5        12.500           9.500
  22076565.950     5911506.098 7   4573949.471 6        21.500          15.250
 93  3 31 18 58 30.0010000  0  5G18G19G27G28G29
  20555712.380     -877684.162 8   -668564.499 6        30.000          15.000
  21139913.911    -2842454.339 6  -2190682.943 6        18.250          17.250
  23146193.060    -7666395.933 6  -5894817.703 5        13.250           9.750
  23822736.200    -3627211.599 6  -2773728.724 5        12.750           9.500
  22083165.028     5946167.486 7   4600958.315 6        21.500          15.000
 93  3 31 18 58 45.0010000  0  5G18G19G27G28G29
  20556790.888     -872005.224 8   -664139.362 6        30.000          15.000
  21138396.216    -2850345.256 7  -2196831.693 6        20.000          17.250
  23139906.942    -7699363.789 6  -5920506.870 5        13.000           9.750
  23821499.317    -3633719.071 6  -2778799.461 5        12.750           9.750
  22089771.521     5980908.181 7   4628028.950 6        21.500          15.000
 93  3 31 18 59  0.0010000  0  5G18G19G27G28G29
  20557894.036     -866208.926 8   -659622.779 6        29.750          15.000
  21136923.231    -2858170.949 6  -2202929.612 6        18.500          17.500
  23133652.341    -7732287.740 6  -5946161.833 5        13.250           9.750
  23820283.935    -3640093.410 6  -2783766.465 5        12.750           9.750
  22096399.536     6015737.921 7   4655168.972 6        21.250          15.000
 93  3 31 18 59 15.0010000  0  5G18G19G27G28G29
  20559016.966     -860312.612 8   -655028.258 6        29.750          15.000
  21135427.349    -2865948.035 7  -2208989.680 6        20.000          17.500
  23127383.286    -7765189.233 6  -5971799.293 5        13.250           9.750
  23819094.349    -3646353.102 6  -2788644.128 5        12.750           9.750
  22103041.216     6050637.504 7   4682363.417 6        21.500          14.750
 93  3 31 18 59 30.0010000  0  5G18G19G27G28G29
  20560159.997     -854301.309 8   -650344.135 6        29.500          15.000
  21133974.200    -2873660.955 6  -2214999.731 6        18.250          17.500
  23121126.833    -7798057.100 6  -5997410.550 5        13.250           9.750
  23817934.208    -3652483.612 6  -2793421.133 5        13.000           9.500
  22109696.161     6085618.258 7   4709621.109 6        21.500          14.750
 93  3 31 18 59 45.0010000  0  5G18G19G27G28G29
  20561323.974     -848183.957 8   -645577.378 6        29.500          15.000
  21132499.771    -2881322.389 7  -2220969.675 6        20.000          17.250
  23114886.591    -7830906.379 6  -6023007.321 5        13.500           9.750
  23816789.396    -3658494.748 6  -2798105.113 5        12.500           9.500
  22116369.239     6120669.083 7   4736933.400 6        21.750          14.750
 93  3 31 19  0  0.0010000  0  5G18G19G27G28G29
  20562510.177     -841951.113 8   -640720.626 6        29.250          15.000
  21131052.872    -2888929.340 6  -2226897.146 6        19.750          17.500
  23108625.489    -7863732.404 6  -6048585.971 5        13.250           9.750
  23815668.521    -3664381.240 6  -2802691.965 5        13.000           9.500
  22123053.638     6155794.069 7   4764303.486 6        21.750          14.500
 93  3 31 19  0 15.0010000  0  5G18G19G27G28G29
  20563719.903     -835599.107 8   -635771.017 6        29.250          15.250
  21129616.630    -2896484.588 7  -2232784.340 6        20.000          17.500
  23102392.614    -7896533.333 6  -6074145.071 5        13.500           9.750
  23814570.942    -3670140.865 6  -2807179.968 5        12.750           9.250
  22129747.888     6190993.526 7   4791731.597 6        21.750          14.500
 93  3 31 19  0 30.0010000  0  5G18G19G27G28G29
  20564951.036     -829125.145 8   -630726.386 6        29.250          15.250
  21128189.966    -2903990.334 6  -2238632.957 6        19.750          17.500
  23096157.560    -7929308.964 6  -6099684.464 5        13.750           9.750
  23813495.958    -3675772.806 6  -2811568.482 5        12.500           9.250
  22136464.419     6226267.029 7   4819217.405 6        21.750          14.500
 93  3 31 19  0 45.0010000  0  5G18G19G27G28G29
  20566206.450     -822533.319 8   -625589.908 6        29.250          15.250
  21126768.192    -2911451.710 7  -2244447.009 6        20.000          17.500
  23089918.896    -7962063.341 6  -6125207.277 5        13.750           9.750
  23812448.435    -3681281.450 6  -2815860.908 5        13.000           9.500
  22143190.591     6261612.534 7   4846759.322 6        21.500          14.500
 93  3 31 19  1  0.0010000  0  5G18G19G27G28G29
  20567481.333     -815824.882 8   -620362.566 6        29.500          15.000
  21125371.388    -2918868.180 6  -2250226.065 6        18.750          17.500
  23083693.333    -7994797.385 6  -6150714.260 5        13.750           9.750
  23811424.989    -3686664.513 6  -2820055.490 5        12.500           9.500
  22149928.060     6297031.775 7   4874358.690 6        21.750          14.500
 93  3 31 19  1 15.0010000  0  5G18G19G27G28G29
  20568779.231     -808998.575 8   -615043.374 6        29.500          15.250
  21123952.544    -2926235.926 7  -2255967.153 6        20.000          17.500
  23077463.653    -8027506.023 6  -6176201.444 5        13.500           9.750
  23810426.310    -3691919.069 6  -2824149.936 5        12.250           9.500
  22156688.528     6332534.309 7   4902022.965 6        21.750          14.250
 93  3 31 19  1 30.0010000  0  5G18G19G27G28G29
  20570101.669     -802066.866 8   -609642.051 6        29.250          15.250
  21122557.458    -2933566.245 7  -2261679.078 6        20.000          17.500
  23071245.591    -8060196.085 6  -6201674.155 5        13.500           9.750
  23809445.380    -3697052.808 6  -2828150.231 5        12.500           9.500
  22163454.122     6368111.037 7   4929745.053 6        21.750          14.250
 93  3 31 19  1 45.0010000  0  5G18G19G27G28G29
  20571440.208     -795021.733 8   -604152.351 6        29.250          15.250
  21121176.966    -2940849.200 7  -2267354.090 6        20.000          17.500
  23065034.317    -8092855.203 6  -6227122.748 5        13.750           9.750
  23808490.028    -3702056.963 6  -2832049.559 5        12.500           9.500
  22170241.927     6403774.611 7   4957534.808 6        21.750          14.250
 93  3 31 19  2  0.0010000  0  5G18G19G27G28G29
  20572802.677     -787871.056 8   -598580.393 6        29.500          15.250
  21119795.091    -2948087.791 7        -0.04432        20.250           2.344
  23058816.302    -8125487.789 6  -6252550.669 5        13.500           9.750
  23807568.153    -3706937.232 6  -2835852.356 5        12.750           9.500
  22177044.974     6439519.964 7   4985388.299 6        21.500          14.250
 93  3 31 19  2 15.0010000  0  5G18G19G27G28G29
  20574182.239     -780618.808 8   -592929.307 6        29.500          15.000
  21118427.146    -2955277.613 7     -5602.48622        20.000           2.313
  23052614.747    -8158094.115 6  -6277958.124 5        13.750           9.750
  23806658.286    -3711693.958 6  -2839558.882 5        12.250           9.500
  22183859.474     6475346.952 7   5013305.397 6        21.500          14.250
 93  3 31 19  2 30.0010000  0  5G18G19G27G28G29
  20575582.286     -773256.304 8   -587192.303 6        29.250          15.250
  21117077.888    -2962404.953 6    -11156.24822        19.500           2.313
  23046424.724    -8190665.355 6  -6303338.253 5        13.750           9.750
  23805782.060    -3716317.191 6  -2843161.390 5        12.500           9.500
  22190694.513     6511264.222 7   5041292.840 6        21.500          14.250
 93  3 31 19  2 45.0010000  0  5G18G19G27G28G29
  20577005.083     -765786.746 8   -581371.879 6        29.000          15.000
  21115726.380    -2969468.724 7    -16660.47322        20.000           2.375
  23040220.786    -8223203.649 6  -6328692.711 5        13.500           9.750
  23804925.833    -3720811.114 6  -2846663.135 5        12.500           9.500
  22197545.950     6547270.665 7   5069349.772 6        21.500          14.250
 93  3 31 19  3  0.0010000  0  5G18G19G27G28G29
  20578444.661     -758219.721 8   -575475.509 6        29.000          15.000
  21114395.458    -2976475.390 7    -22120.19922        20.000           2.281
  23034036.817    -8255714.362 6  -6354025.662 5        13.500           9.750
  23804095.724    -3725181.932 6  -2850068.955 5        12.750           9.500
  22204417.435     6583361.944 7   5097472.808 6        21.750          14.250
 93  3 31 19  3 15.0010000  0  5G18G19G27G28G29
  20579902.903     -750552.030 8   -569500.695 6        29.000          15.000
  21113073.106    -2983419.761 6    -27531.39122        19.750           2.344
  23027868.513    -8288191.440 6  -6379332.412 5        13.750           9.750
  23803287.153    -3729426.273 6  -2853376.220 5        12.750           9.500
  22211300.333     6619541.926 7   5125664.960 6        21.500          14.250
 93  3 31 19  3 30.0010000  0  5G18G19G27G28G29
  20581383.661     -742780.186 8   -563444.728 6        28.750          15.000
  21111768.411    -2990301.421 6    -32893.70922        19.500           2.344
  23021682.739    -8320634.264 6  -6404612.472 5        13.750           9.750
  23802506.021    -3733545.751 6  -2856586.195 5        13.000           9.500
  22218203.263     6655810.954 7   5153926.496 6        21.500          14.250
 93  3 31 19  3 45.0010000  0  5G18G19G27G28G29
  20582881.669     -734906.139 8   -557309.121 6        28.750          15.000
  21110463.122    -2997122.979 6    -38209.20222        19.500           2.219
  23015518.200    -8353049.078 6  -6429870.708 5        14.000           9.750
  23801745.169    -3737544.816 6  -2859702.333 5        12.750           9.500
  22225120.255     6692160.599 7   5182250.855 6        21.500          14.000
 93  3 31 19  4  0.0010000  0  5G18G19G27G28G29
  20584399.060     -726924.187 8   -551089.428 6        28.750          15.000
  21109186.458    -3003879.149 6    -43473.73722        19.000           2.313
  23009364.122    -8385433.171 6  -6455104.998 5        14.000           9.750
  23801002.067    -3741422.708 6  -2862724.056 5        12.500           9.500
  22232052.935     6728594.872 7   5210641.158 6        21.250          14.000
 93  3 31 19  4 15.0010000  0  5G18G19G27G28G29
  20585937.700     -718837.987 8   -544788.502 6        28.750          15.000
  21107903.622    -3010578.647 6    -48694.11722        19.750           2.281
  23003181.778    -8417794.172 6  -6480321.303 5        13.750           9.750
  23800293.442    -3745182.727 6  -2865653.933 5        13.500           9.500
  22238997.247     6765105.435 7   5239090.908 6        20.750          14.000
 93  3 31 19  4 30.0010000  0  5G18G19G27G28G29
  20587499.591     -710636.409 8   -538397.680 6        28.750          15.000
  21106643.560    -3017218.588 6    -53868.08822        19.250           2.313
  22997061.575    -8450123.112 6  -6505512.627 5        14.250           9.750
  23799598.224    -3748818.181 6  -2868486.743 5        12.750           9.500
  22245964.411     6801700.501 7   5267606.501 6        20.750          14.000
 93  3 31 19  4 45.0010000  0  5G18G19G27G28G29
  20589082.997     -702321.397 8   -531918.463 6        28.750          15.000
  21105388.896    -3023807.057 6    -59001.95422        19.750           2.250
  22990902.739    -8482422.420 6  -6530680.854 5        14.000          10.000
  23798925.067    -3752333.003 6  -2871225.556 5        12.250           9.750
  22252945.630     6838378.439 7   5296186.673 6        21.000          14.000
 93  3 31 19  5  0.0010000  0  5G18G19G27G28G29
  20590687.028     -693894.983 8   -525352.440 6        28.500          15.000
  21104134.278    -3030348.944 6    -64099.51422        18.750           2.250
  22984747.489    -8514693.388 6  -6555827.000 5        13.750          10.000
  23798280.880    -3755725.123 6  -2873868.756 5        13.000           9.750
  22259939.747     6875137.512 7   5324830.063 6        21.000          13.750
 93  3 31 19  5 15.0010000  0  5G18G19G27G28G29
  20592308.919     -685356.458 8   -518699.053 6        28.750          15.000
  21102905.224    -3036845.525 6    -69161.77722        19.750           2.344
  22978645.817    -8546936.827 6  -6580951.697 5        14.250          10.000
  23797663.833    -3758992.971 6  -2876415.114 5        13.250           9.750
  22266949.122     6911976.850 7   5353536.002 6        21.000          14.000
 93  3 31 19  5 30.0010000  0  5G18G19G27G28G29
  20593956.310     -676704.696 8   -511957.434 6        29.000          15.000
  21101681.771    -3043295.734 6    -74187.90322        19.500           2.281
  22972483.778    -8579154.330 6  -6606056.183 5        13.750          10.000
  23797064.466    -3762137.832 6  -2878865.644 5        13.000           9.750
  22273972.778     6948894.474 7   5382302.937 6        20.750          13.750
 93  3 31 19  5 45.0010000  0  5G18G19G27G28G29
  20595623.888     -667939.200 8   -505127.192 6        29.000          15.000
  21100458.747    -3049700.084 6    -79178.30422        19.750           2.281
  22966361.021    -8611344.602 6  -6631139.458 5        14.000          10.000
  23796488.536    -3765158.579 6  -2881219.457 5        12.750           9.750
  22281012.403     6985889.162 7   5411129.922 6        20.500          13.750
 93  3 31 19  6  0.0010000  0  5G18G19G27G28G29
  20597312.208     -659063.419 8   -498211.013 6        29.000          15.000
  21099254.481    -3056060.518 6    -84134.47922        19.250           2.281
  22960256.192    -8643508.932 6  -6656202.519 5        14.250          10.000
  23795936.021    -3768054.907 6  -2883476.323 5        13.000           9.750
  22288070.200     7022960.238 7   5440016.430 6        20.750          14.000
 93  3 31 19  6 15.0010000  0  5G18G19G27G28G29
  20599025.310     -650071.496 8   -491204.330 6        29.250          15.000
  21098049.942    -3062373.332 6    -89053.54222        19.750           2.219
  22954123.919    -8675644.806 6  -6681243.403 5        14.000          10.000
  23795407.833    -3770818.639 6  -2885629.866 5        13.000           9.750
  22295137.903     7060113.335 7   5468966.838 6        20.750          13.750
 93  3 31 19  6 30.0010000  0  5G18G19G27G28G29
  20600756.755     -640961.474 8   -484105.623 6        29.250          15.000
  21096861.177    -3068631.950 6    -93930.38522        19.250           2.313
  22948022.341    -8707748.971 6  -6706259.579 5        14.250          10.000
  23794911.067    -3773445.381 6  -2887676.670 5        13.250           9.750
  22302226.481     7097353.190 7   5497984.873 6        20.500          13.750
 93  3 31 19  6 45.0010000  0  5G18G19G27G28G29
  20602511.591     -631742.845 8   -476922.285 6        29.250          15.000
  21095676.708    -3074842.680 6    -98769.90722        19.750           2.250
  22941917.396    -8739828.507 6  -6731256.570 5        14.500          10.250
  23794435.380    -3775945.762 6  -2889624.997 5        13.000           9.750
  22309328.185     7134673.531 7   5527065.611 6        20.500          13.750
 93  3 31 19  7  0.0010000  0  5G18G19G27G28G29
  20604288.677     -622415.095 8   -469653.920 6        29.500          15.000
  21094508.817    -3081000.296 6   -103568.04322        19.500           2.313
  22935821.685    -8771882.530 6  -6756233.671 5        14.500          10.250
  23793984.067    -3778317.733 6  -2891473.276 5        13.250           9.750
  22316444.888     7172073.110 7   5556208.090 6        20.500          13.750
 93  3 31 19  7 15.0010000  0  5G18G19G27G28G29
  20606083.388     -612973.276 8   -462296.672 6        29.500          15.000
  21093343.856    -3087096.679 7   -108318.46522        20.000           2.250
  22929716.560    -8803903.454 6  -6781184.987 5        14.500          10.250
  23793556.247    -3780557.534 6  -2893218.561 5        13.250          10.000
  22323578.036     7209557.777 7   5585416.874 6        20.250          13.750
 93  3 31 19  7 30.0010000  0  5G18G19G27G28G29
  20607900.239     -603420.562 8   -454853.011 6        29.750          14.750
  21092198.013    -3093134.593 6   -113023.32322        19.500           2.281
  22923628.700    -8835894.596 6  -6806113.096 5        14.500          10.500
  23793151.513    -3782672.257 6  -2894866.381 5        12.750           9.750
  22330725.833     7247123.915 7   5614689.135 6        20.500          13.750
 93  3 31 19  7 45.0010000  0  5G18G19G27G28G29
  20609741.005     -593751.676 8   -447318.830 6        29.750          15.000
  21091057.403    -3099110.229 7   -117679.65722        20.250           2.375
  22917559.200    -8867850.982 6  -6831014.127 5        14.750          10.250
  23792775.364    -3784656.737 6  -2896412.713 5        13.250           9.750
  22337892.544     7284776.530 7   5644028.791 6        20.500          13.750
 93  3 31 19  8  0.0010000  0  5G18G19G27G28G29
  20611603.083     -583972.679 8   -439698.846 6        29.500          15.000
  21089931.935    -3105030.224 6   -122292.63022        19.750           2.250
  22911474.927    -8899777.274 6  -6855891.699 5        14.500          10.250
  23792420.294    -3786516.037 6  -2897861.500 5        13.250           9.750
  22345072.911     7322511.535 7   5673432.641 6        20.500          13.750
 93  3 31 19  8 15.0010000  0  5G18G19G27G28G29
  20613485.966     -574074.704 8   -431986.153 6        29.500          14.750
  21088818.489    -3110888.223 7   -126857.29722        20.250           2.313
  22905403.825    -8931666.656 6  -6880740.518 5        14.500          10.500
  23792095.114    -3788243.138 6  -2899207.289 5        13.500           9.750
  22352267.513     7360336.633 7   5702906.696 6        20.250          13.750
 93  3 31 19  8 30.0010000  0  5G18G19G27G28G29
  20615391.052     -564066.595 8   -424187.636 6        29.750          14.750
  21087722.583    -3116691.501 6   -131379.33222        19.000           2.313
  22899351.927    -8963522.848 6  -6905563.474 5        15.000          10.500
  23791790.560    -3789845.933 6  -2900456.202 5        13.250           9.750
  22359481.786     7398243.093 7   5732444.156 6        20.000          13.750
 93  3 31 19  8 45.0010000  0  5G18G19G27G28G29
  20617318.388     -553938.636 8   -416295.729 6        29.750          15.000
  21086616.778    -3122432.937 7   -135853.15922        20.250           2.281
  22893295.231    -8995331.618 6  -6930349.487 5        15.000          10.500
  23791507.841    -3791316.922 6  -2901602.410 5        13.500           9.750
  22366713.325     7436241.018 7   5762052.883 6        20.000          13.500
 93  3 31 19  9  0.0010000  0  5G18G19G27G28G29
  20619268.685     -543688.206 8   -408308.393 6        29.750          15.000
  21085539.778    -3128116.052 7   -140281.55122        20.000           2.281
  22887250.606    -9027092.552 6  -6955098.211 5        15.000          10.500
  23791254.942    -3792653.123 6  -2902643.598 5        13.250           9.750
  22373963.153     7474329.095 7   5791731.856 6        20.000          13.500
 93  3 31 19  9 15.0010000  0  5G18G19G27G28G29
  20621239.810     -533323.325 8   -400231.879 6        29.750          14.750
  21084466.442    -3133748.324 7   -144670.32122        20.000           2.313
  22881216.958    -9058814.409 6  -6979816.495 5        15.250          10.750
  23791030.099    -3793859.235 6  -2903583.410 5        13.750           9.750
  22381227.231     7512500.669 7   5821475.893 6        20.000          13.500
 93  3 31 19  9 30.0010000  0  5G18G19G27G28G29
  20623237.692     -522838.579 8   -392061.966 6        29.750          15.000
  21083414.739    -3139327.589 6   -149017.79222        19.000           2.250
  22875190.200    -9090495.550 6  -7004503.051 5        15.250          10.750
  23790821.942    -3794928.909 6  -2904416.912 5        13.500           9.750
  22388504.958     7550764.084 6   5851291.495 6        19.750          13.500
 93  3 31 19  9 45.0010000  0  5G18G19G27G28G29
  20625256.950     -512228.202 8   -383794.153 6        29.500          15.000
  21082352.810    -3144850.172 7   -153321.09322        20.000           2.250
  22869159.911    -9122133.696 6  -7029156.107 5        15.000          10.750
  23790644.114    -3795855.313 6  -2905138.770 5        13.500           9.750
  22395804.560     7589122.027 6   5881180.751 6        19.750          13.250
 93  3 31 19 10  0.0010000  0  5G18G19G27G28G29
  20627297.427     -501496.211 8   -375431.575 6        29.500          15.000
  21081309.911    -3150320.369 6   -157583.57322        19.750           2.281
  22863148.583    -9153731.061 6  -7053777.386 5        15.000          10.750
  23790496.028    -3796640.410 6  -2905750.520 5        13.750           9.500
  22403124.271     7627571.531 6   5911141.355 6        19.750          13.250
 93  3 31 19 10 15.0010000  0  5G18G19G27G28G29
  20629364.200     -490638.897 8   -366971.338 6        29.500          14.750
  21080280.864    -3155734.589 6   -161802.44022        19.750           2.281
  22857150.489    -9185285.631 6  -7078365.310 5        15.250          10.750
  23790375.458    -3797279.318 6  -2906248.351 5        13.500           9.500
  22410457.083     7666114.399 6   5941174.711 6        19.500          13.250
 93  3 31 19 10 30.0010000  0  5G18G19G27G28G29
  20631451.919     -479668.710 8   -358423.161 6        29.500          14.750
  21079260.646    -3161103.627 7   -165986.09422        20.000           2.313
  22851152.106    -9216810.956 6  -7102930.455 5        15.250          10.750
  23790280.403    -3797782.994 6  -2906640.819 5        13.250           9.500
  22417808.661     7704736.201 6   5971269.576 6        19.250          13.250
 93  3 31 19 10 45.0010000  0  5G18G19G27G28G29
  20633560.294     -468580.602 8   -349783.089 6        29.500          14.750
  21078248.731    -3166419.523 7   -170128.34022        20.250           2.281
  22845154.583    -9248304.272 6  -7127470.652 5        15.000          11.000
  23790211.731    -3798146.914 6  -2906924.386 5        13.250           9.500
  22425172.849     7743441.993 6   6001429.885 6        19.250          13.250
 93  3 31 19 11  0.0010000  0  5G18G19G27G28G29
  20635692.966     -457371.782 8   -341048.962 6        29.500          14.750
  21077265.989    -3171680.506 6   -174227.79522        18.500           2.219
  22839166.739    -9279768.903 6  -7151988.503 5        15.250          11.000
  23790164.442    -3798371.632 6  -2907099.472 5        13.250           9.500
  22432552.505     7782232.485 6   6031656.186 6        19.500          13.250
 93  3 31 19 11 15.0010000  0  5G18G19G27G28G29
  20637852.778     -446027.171 8   -332209.017 6        29.250          15.000
  21076262.528    -3176865.397 7   -178267.96022        20.250           2.250
  22833188.864    -9311191.233 6  -7176473.384 5        15.500          11.000
  23790152.052    -3798440.975 6  -2907153.493 5        13.250           9.500
  22439955.036     7821123.543 6   6061960.858 6        19.500          13.000
 93  3 31 19 11 30.0010000  0  5G18G19G27G28G29
  20640035.325     -434561.944 8   -323275.086 6        29.250          14.750
  21075303.661    -3181987.000 6   -182258.81122        18.500           2.250
  22827216.997    -9342585.574 6  -7200936.466 5        15.250          11.000
  23790168.833    -3798372.273 6  -2907099.940 5        13.250           9.500
  22447372.974     7860099.594 6   6092331.753 6        19.750          13.000
 93  3 31 19 11 45.0010000  0  5G18G19G27G28G29
  20642240.716     -422974.104 8   -314245.612 6        29.250          15.000
  21074324.919    -3187043.965 7   -186199.29522        20.250           2.344
  22821246.442    -9373946.324 6  -7225373.361 5        15.000          11.000
  23790205.778    -3798165.682 6  -2906938.975 5        13.000           9.500
  22454805.778     7899157.975 6   6122766.810 6        19.500          13.250
 93  3 31 19 12  0.0010000  0  5G18G19G27G28G29
  20644468.286     -411271.038 8   -305126.355 6        29.500          15.000
  21073390.747    -3192041.450 6   -190093.42622        18.250           2.281
  22815285.052    -9405276.147 6  -7249786.168 5        15.250          11.000
  23790266.646    -3797828.388 6  -2906676.133 5        12.750           9.250
  22462253.786     7938293.136 6   6153261.694 6        19.750          13.000
 93  3 31 19 12 15.0010000  0  5G18G19G27G28G29
  20646717.481     -399445.473 8   -295911.646 6        29.500          15.000
  21072434.146    -3196972.920 7   -193936.11522        20.000           2.281
  22809329.513    -9436570.208 6  -7274171.105 5        15.250          11.250
  23790360.880    -3797354.677 6  -2906307.001 5        12.750           9.250
  22469713.708     7977510.793 6   6183820.856 6        19.500          13.000
 93  3 31 19 12 30.0010000  0  5G18G19G27G28G29
  20648989.481     -387505.502 8   -286607.782 6        29.250          15.000
  21071512.435    -3201843.700 6   -197731.52422        19.750           2.313
  22803379.560    -9467837.547 6  -7298535.220 5        15.250          11.250
  23790474.958    -3796753.943 6  -2905838.886 5        12.750           9.250
  22477191.880     8016802.122 6   6214437.428 6        19.500          13.000
 93  3 31 19 12 45.0010000  0  5G18G19G27G28G29
  20651282.950     -375444.282 8   -277209.450 6        29.250          15.000
  21070593.599    -3206647.383 6   -201474.64422        19.750           2.313
  22797440.552    -9499069.897 6  -7322872.064 5        15.250          11.250
  23790616.544    -3796021.891 6  -2905268.453 5        13.250           9.250
  22484683.583     8056174.179 6   6245116.898 6        19.250          13.000
 93  3 31 19 13  0.0010000  0  5G18G19G27G28G29
  20653603.036     -363259.216 8   -267714.608 6        29.250          15.000
  21069695.278    -3211384.276 6   -205165.72122        19.500           2.281
  22791501.364    -9530262.602 6  -7347178.023 5        15.000          11.250
  23790780.974    -3795155.945 6  -2904593.684 5        13.500           9.250
  22492195.638     8095631.151 6   6275862.540 6        19.500          12.750
 93  3 31 19 13 15.0010000  0  5G18G19G27G28G29
  20655945.302     -350950.741 8   -258123.605 6        29.250          15.000
  21068802.544    -3216056.408 6   -208806.33022        19.750           2.313
  22785570.552    -9561412.477 6  -7371450.602 5        15.000          11.250
  23790972.911    -3794151.733 6  -2903811.178 5        13.250           9.500
  22499718.286     8135175.933 6   6306676.605 6        19.500          13.000
 93  3 31 19 13 30.0010000  0  5G18G19G27G28G29
  20658310.685     -338524.938 8   -248441.176 6        29.500          15.000
  21067939.114    -3220672.104 6   -212402.97422        18.250           2.281
  22779652.021    -9592523.554 6  -7395692.951 5        15.250          11.250
  23791182.997    -3793014.650 6  -2902925.119 5        12.750           9.500
  22507257.075     8174803.129 6   6337554.890 6        19.250          12.750
 93  3 31 19 13 45.0010000  0  5G18G19G27G28G29
  20660697.380     -325976.573 8   -238663.239 6        29.250          15.000
  21067056.755    -3225229.225 7   -215953.96822        20.000           2.313
  22773744.591    -9623589.910 6  -7419900.455 5        15.000          11.250
  23791427.802    -3791737.347 6  -2901929.827 5        12.750           9.500
  22514818.427     8214519.949 6   6368503.004 6        19.500          12.750
 93  3 31 19 14  0.0010000  0  5G18G19G27G28G29
  20663108.474     -313309.007 8   -228792.425 6        29.500          15.000
  21066202.044    -3229729.951 7   -219461.01622        20.000           2.281
  22767838.583    -9654616.325 6  -7444076.834 5        15.250          11.500
  23791700.458    -3790320.300 6  -2900825.640 5        13.000           9.500
  22522393.231     8254325.447 6   6399520.227 6        19.250          12.750
 93  3 31 19 14 15.0010000  0  5G18G19G27G28G29
  20665542.841     -300511.797 8   -218820.586 6        29.500          15.000
  21065355.747    -3234164.616 7   -222916.59722        20.000           2.281
  22761941.403    -9685597.334 6  -7468217.831 5        15.250          11.250
  23791995.544    -3788751.926 6  -2899603.531 5        12.750           9.750
  22529981.544     8294228.897 6   6430613.767 6        18.750          12.750
 93  3 31 19 14 30.0010000  0  5G18G19G27G28G29
  20668003.419     -287584.780 8   -208747.597 6        29.500          15.000
  21064525.567    -3238533.580 7   -226320.97722        20.000           2.281
  22756052.271    -9716533.286 6  -7492323.721 5        15.500          11.500
  23792324.700    -3787034.519 6  -2898265.292 5        13.250           9.500
  22537598.739     8334227.754 6   6461781.658 6        19.000          12.750
 93  3 31 19 14 45.0010000  0  5G18G19G27G28G29
  20670487.060     -274532.294 8   -198576.846 6        30.000          15.250
  21063708.122    -3242842.134 7   -229678.28422        20.250           2.188
  22750176.646    -9747424.657 6  -7516394.870 5        15.250          11.500
  23792681.778    -3785171.801 6  -2896813.821 5        13.500           9.500
  22545225.544     8374318.463 6   6493021.116 6        18.500          12.750
 93  3 31 19 15  0.0010000  0  5G18G19G27G28G29
  20672994.927     -261356.865 8   -188310.292 6        30.000          15.250
  21062900.583    -3247093.768 6   -232991.23922        19.500           2.281
  22744307.067    -9778272.834 6  -7540432.363 5        15.250          11.500
  23793063.817    -3783163.525 6  -2895248.934 5        13.500           9.500
  22552872.966     8414500.354 6   6524331.623 6        18.250          12.500
 93  3 31 19 15 15.0010000  0  5G18G19G27G28G29
  20675525.833     -248058.428 8   -177947.887 6        29.750          15.250
  21062098.396    -3251287.193 7   -236258.83822        20.000           2.250
  22738447.224    -9809078.914 6  -7564437.053 5        15.250          11.500
  23793474.700    -3781010.332 6  -2893571.119 5        13.750           9.500
  22560535.138     8454775.410 6   6555714.730 6        18.250          12.500
 93  3 31 19 15 30.0010000  0  5G18G19G27G28G29
  20678076.817     -234644.622 8   -167495.588 6        30.000          15.250
  21061313.396    -3255427.379 7   -239484.94322        20.250           2.250
  22732590.700    -9839852.979 6  -7588416.788 5        15.250          11.750
  23793905.677    -3778721.556 6  -2891787.655 5        13.250           9.500
  22568212.427     8495134.797 6   6587163.547 6        18.000          12.500
 93  3 31 19 15 45.0010000  0  5G18G19G27G28G29
  20680653.122     -221110.712 8   -156949.701 6        30.250          15.250
  21060533.708    -3259508.215 7   -242664.81422        20.000           2.313
  22726737.099    -9870590.146 6  -7612367.782 5        15.250          11.750
  23794367.255    -3776292.368 6  -2889894.787 5        13.250           9.750
  22575912.372     8535581.002 6   6618680.016 6        18.000          12.500
 93  3 31 19 16  0.0010000  0  5G18G19G27G28G29
  20683252.333     -207457.438 8   -146310.799 6        30.250          15.250
  21059774.325    -3263530.011 6   -245798.67222        19.500           2.250
  22720892.255    -9901290.828 6  -7636290.341 5        15.250          11.750
  23794857.731    -3773724.369 6  -2887893.745 5        13.750           9.750
  22583621.653     8576110.018 6   6650261.009 6        18.250          12.500
 93  3 31 19 16 15.0010000  0  5G18G19G27G28G29
  20685874.356     -193680.394 8   -135575.460 6        30.500          15.250
  21059013.341    -3267492.818 7   -248886.56622        20.000           2.281
  22715063.310    -9931949.832 6  -7660180.422 5        15.500          11.500
  23795371.739    -3771016.078 6  -2885783.388 5        13.500           9.750
  22591355.739     8616723.055 6   6681907.472 6        18.250          12.500
 93  3 31 19 16 30.0010000  0  5G18G19G27G28G29
  20688518.544     -179780.059 8   -124744.044 6        30.250          15.250
  21058277.458    -3271399.984 6   -251931.09622        19.250           2.219
  22709238.177    -9962567.262 6  -7684038.112 5        15.750          11.750
  23795915.122    -3768171.438 6  -2883566.786 5        13.750           9.750
  22599096.755     8657417.441 6   6713617.332 6        18.250          12.500
 93  3 31 19 16 45.0010000  0  5G18G19G27G28G29
  20691188.575     -165758.427 8   -113818.109 6        30.250          15.250
  21057539.317    -3275253.526 7   -254933.85122        20.000           2.344
  22703419.060    -9993143.410 6  -7707863.628 5        15.500          11.750
  23796478.958    -3765189.509 6  -2881243.203 5        13.750           9.750
  22606859.356     8698193.643 6   6745390.939 6        18.250          12.500
 93  3 31 19 17  0.0010000  0  5G18G19G27G28G29
  20693876.646     -151618.812 8   -102800.242 6        30.000          15.250
  21056818.966    -3279055.574 6   -257896.48022        19.750           2.250
  22697605.497   -10023682.524 6  -7731660.294 5        15.750          11.500
  23797074.731    -3762068.745 6  -2878811.443 5        13.500           9.750
  22614631.997     8739052.346 6   6777228.829 6        18.250          12.250
 93  3 31 19 17 15.0010000  0  5G18G19G27G28G29
  20696589.091     -137364.197 8    -91692.766 6        30.000          15.250
  21056102.341    -3282806.474 7   -260819.25022        20.000           2.313
  22691802.622   -10054188.559 6  -7755431.178 5        15.500          11.750
  23797693.028    -3758810.851 6  -2876272.821 5        13.500           9.500
  22622420.591     8779992.007 6   6809129.814 6        18.250          12.500
 93  3 31 19 17 30.0010000  0  5G18G19G27G28G29
  20699324.911     -122993.080 8    -80494.504 6        30.000          15.250
  21055398.591    -3286507.224 6   -263702.94122        19.750           2.313
  22686000.974   -10084662.295 6  -7779176.898 5        15.500          11.500
  23798341.833    -3755415.303 6  -2873626.940 5        13.500           9.750
  22630228.419     8821011.996 6   6841093.384 6        18.500          12.500
 93  3 31 19 17 45.0010000  0  5G18G19G27G28G29
  20702083.747     -108506.101 8    -69205.964 6        29.750          15.250
  21054701.130    -3290159.700 7   -266549.02422        20.500           2.313
  22680202.435   -10115104.695 6  -7802898.196 5        15.750          11.500
  23799013.091    -3751881.277 6  -2870873.159 5        13.500           9.750
  22638050.974     8862109.795 6   6873117.592 6        18.750          12.250
 93  3 31 19 18  0.0010000  0  5G18G19G27G28G29
  20704859.763      -93906.962 8    -57830.028 6        30.250          15.250
  21054019.786    -3293768.530 6   -269361.09122        19.750           2.375
  22674419.974   -10145519.903 6  -7826598.310 5        15.750          11.500
  23799710.825    -3748212.526 6  -2868014.386 5        13.750           9.750
  22645887.341     8903281.536 6   6905199.412 6        18.750          12.250
 93  3 31 19 18 15.0010000  0  5G18G19G27G28G29
  20707658.849      -79190.000 8    -46362.283 6        30.000          15.250
  21053337.255    -3297328.966 7   -272135.44922        20.250           2.406
  22668637.786   -10175903.748 6  -7850273.979 5        16.000          11.500
  23800433.942    -3744405.195 6  -2865047.644 5        13.500           9.750
  22653737.224     8944535.432 6   6937345.248 6        18.500          12.250
 93  3 31 19 18 30.0010000  0  5G18G19G27G28G29
  20710482.536      -64355.622 8    -34803.039 6        30.000          15.250
  21052674.138    -3300836.088 6   -274868.26122        19.750           2.250
  22662860.974   -10206259.126 6  -7873927.478 5        15.750          11.500
  23801189.044    -3740458.958 6  -2861972.649 5        14.000           9.750
  22661604.349     8985873.239 6   6969556.468 6        18.250          12.250
 93  3 31 19 18 45.0010000  0  5G18G19G27G28G29
  20713327.903      -49404.277 8    -23152.656 6        30.000          15.250
  21052014.192    -3304283.366 7   -277554.44922        20.250           2.281
  22657089.849   -10236586.303 6  -7897558.997 5        16.000          11.250
  23801967.411    -3736372.034 6  -2858788.033 5        13.750           9.750
  22669485.138     9027298.847 6   7001836.109 6        18.000          12.000
 93  3 31 19 19  0.0010000  0  5G18G19G27G28G29
  20716196.067      -34335.742 8    -11410.959 6        30.250          15.250
  21051372.138    -3307667.566 6   -280191.47922        19.750           2.313
  22651325.497   -10266882.492 6  -7921166.369 5        15.750          11.500
  23802771.927    -3732143.166 6  -2855492.812 5        13.750           9.750
  22677384.911     9068815.345 6   7034186.571 6        18.000          12.000
 93  3 31 19 19 15.0010000  0  5G18G19G27G28G29
  20719084.606      -19153.240 8       419.547 6        30.000          15.250
  21050740.161    -3310989.635 7   -282780.10222        20.250           2.313
  22645563.021   -10297150.765 6  -7944751.986 5        16.000          11.500
  23803602.153    -3727781.046 6  -2852093.762 5        13.500           9.750
  22685298.403     9110417.015 6   7066603.396 6        17.750          12.250
 93  3 31 19 19 30.0010000  0  5G18G19G27G28G29
  20721994.911       -3850.022 8     12344.118 6        30.000          15.250
  21050121.677    -3314246.206 6   -285317.67722        19.750           2.375
  22639811.794   -10327384.946 6  -7968311.041 5        16.250          11.500
  23804455.489    -3723283.186 6  -2848588.933 5        13.750           9.750
  22693234.880     9152104.674 6   7099087.229 6        17.750          12.000
 93  3 31 19 19 45.0010000  0  5G18G19G27G28G29
  20724930.442       11573.053 8     24362.080 6        29.750          15.250
  21049512.200    -3317437.747 7   -287804.59122        20.250           2.344
  22634064.138   -10357585.755 6  -7991844.088 5        16.250          11.500
  23805337.888    -3718652.408 6  -2844980.543 5        13.500           9.500
  22701185.302     9193874.332 6   7131634.952 6        17.750          12.250
 93  3 31 19 20  0.0010000  0  5G18G19G27G28G29
  20727890.388       27121.629 8     36477.836 6        30.000          15.250
  21048922.349    -3320557.772 6   -290235.76722        19.750           2.281
  22628327.677   -10387747.498 6  -8015346.692 5        16.500          11.500
  23806242.153    -3713882.918 6  -2841264.058 5        13.500           9.750
  22709149.653     9235730.433 6   7164250.040 6        17.750          12.000
 93  3 31 19 20 15.0010000  0  5G18G19G27G28G29
  20730874.325       42800.130 8     48694.832 6        29.750          15.250
  21048337.364    -3323600.052 7   -292606.36922        20.250           2.313
  22622592.896   -10417862.855 6  -8038813.158 5        16.250          11.500
  23807180.466    -3708967.295 6  -2837433.705 5        13.750           9.500
  22717128.036     9277677.920 6   7196936.335 6        17.250          12.000
 93  3 31 19 20 30.0010000  0  5G18G19G27G28G29
  20733881.966       58607.600 8     61012.324 6        30.000          15.500
  21047781.325    -3326566.009 7   -294917.49622        20.000           2.406
  22616874.731   -10447931.124 6  -8062242.933 5        16.250          11.500
  23808145.185    -3703907.269 6  -2833490.828 5        14.000           9.500
  22725125.036     9319713.667 6   7229691.402 6        17.250          12.000
 93  3 31 19 20 45.0010000  0  5G18G19G27G28G29
  20736912.661       74537.268 8     73425.035 6        30.000          15.500
  21047224.403    -3329462.720 7   -297174.67122        20.250           2.375
  22611160.981   -10477955.119 6  -8085638.203 5        16.500          11.250
  23809130.411    -3698707.850 6  -2829439.334 5        13.750           9.750
  22733143.278     9361830.809 6   7262509.894 6        17.250          12.000
 93  3 31 19 21  0.0010000  0  5G18G19G27G28G29
  20739969.356       90591.571 8     85934.864 6        30.250          15.500
  21046693.606    -3332293.430 6   -299380.40822        19.250           2.344
  22605454.388   -10507930.896 6  -8108995.902 5        16.500          11.500
  23810148.958    -3693367.148 6  -2825277.748 5        13.750           9.500
  22741177.161     9404028.288 6   7295390.984 6        17.250          12.000
 93  3 31 19 21 15.0010000  0  6G18G 2G19G27G28G29
  20743048.278      106776.556 8     98546.525 6        30.000          15.500
  24764093.224          -0.71215                         8.500
  21046158.880    -3335055.606 7   -301532.75122        20.250           2.375
  22599761.083   -10537855.100 6  -8132313.417 5        16.500          11.500
  23811193.372    -3687882.439 6  -2821003.946 5        13.500           9.500
  22749219.849     9446305.949 6   7328334.567 5        16.750          11.750
 93  3 31 19 21 30.0010000  0  6G18G 2G19G27G28G29
  20746153.864      123094.035 8    111261.431 6        30.000          15.500
  24755363.333      -45837.059 5                         8.250
  21045646.841    -3337750.913 7   -303632.98322        20.000           2.375
  22594074.677   -10567728.232 6  -8155591.129 5        16.500          11.250
  23812267.341    -3682249.368 6  -2816614.544 5        13.750           9.500
  22757282.060     9488664.227 6   7361340.959 6        17.000          12.000
 93  3 31 19 21 45.0010000  0  6G18G 2G19G27G28G29
  20749284.989      139545.281 8    124080.565 6        30.000          15.500
  24746651.872      -91618.841 5        -0.85515         8.250           6.500
  21045146.052    -3340377.111 7   -305679.36322        20.000           2.406
  22588401.841   -10597546.974 6  -8178826.471 5        16.750          11.500
  23813366.380    -3676462.648 6  -2812105.410 5        13.500           9.500
  22765354.974     9531107.989 6   7394413.958 5        17.000          11.750
 93  3 31 19 22  0.0010000  0  6G18G 2G19G27G28G29
  20752441.169      156124.233 8    136999.222 6        30.000          15.500
  24737949.966     -137352.672 5    -35637.491 5         8.500           6.500
  21044668.763    -3342938.733 6   -307675.42722        18.750           2.375
  22582737.411   -10627316.919 6  -8202023.779 5        16.750          11.500
  23814496.466    -3670526.018 6  -2807479.458 5        13.500           9.500
  22773443.810     9573633.730 6   7427550.841 6        16.750          12.000
 93  3 31 19 22 15.0010000  0  6G18G 2G19G27G28G29
  20755616.521      172825.403 8    150013.105 6        30.000          15.500
  24729258.216     -183045.394 5    -71242.069 5         8.500           6.750
  21044181.646    -3345444.088 7   -309627.64722        20.000           2.438
  22577080.255   -10657042.971 6  -8225186.891 5        17.000          11.500
  23815653.833    -3664445.406 6  -2802741.323 5        13.500           9.250
  22781558.474     9616239.243 6   7460749.882 5        16.500          11.750
 93  3 31 19 22 30.0010000  0  6G18G 2G19G27G28G29
  20758818.458      189642.920 8    163117.646 6        30.000          15.500
  24720559.989     -228705.258 5   -106821.074 5         8.000           6.500
  21043715.521    -3347898.082 7   -311539.84022        20.000           2.469
  22571428.958   -10686730.406 6  -8248319.913 5        17.000          11.500
  23816838.067    -3658229.463 6  -2797897.725 5        13.750           9.500
  22789676.294     9658920.648 6   7494008.061 6        16.500          12.000
 93  3 31 19 22 45.0010000  0  6G18G 2G19G27G28G29
  20762040.911      206576.900 8    176312.940 6        30.000          15.250
  24711886.052     -274331.590 5   -142373.926 5         7.750           6.500
  21043257.419    -3350300.075 7   -313411.51922        20.250           2.438
  22565791.052   -10716380.642 6  -8271423.950 5        17.250          11.500
  23818044.708    -3651880.299 6  -2792950.324 5        13.500           9.250
  22797816.599     9701679.539 6   7527326.618 5        16.500          11.750
 93  3 31 19 23  0.0010000  0  6G18G 2G19G27G28G29
  20765286.271      223626.685 8    189598.469 6        29.750          15.500
  24703204.208     -319926.341 5   -177902.183 5         7.750           6.500
  21042810.364    -3352651.035 7   -315243.42923        20.250           2.500
  22560153.974   -10745997.823 6  -8294502.216 5        17.250          11.500
  23819278.521    -3645398.135 6  -2787899.283 5        13.250           9.250
  22805968.677     9744515.915 6   7560705.548 5        16.500          11.750
 93  3 31 19 23 15.0010000  0  6G18G 2G19G27G28G29
  20768550.091      240784.631 8    202968.282 6        29.750          15.500
  24694532.942     -365500.747 5   -213414.575 5         7.750           6.250
  21042370.919    -3354960.404 7   -317042.93222        20.500           2.406
  22554522.935   -10775594.128 6  -8317564.228 5        17.000          11.500
  23820534.185    -3638791.770 6  -2782751.466 5        13.000           9.500
  22814130.536     9787418.067 6   7594135.736 5        16.500          11.750
 93  3 31 19 23 30.0010000  0  6G18G 2G19G27G28G29
  20771835.419      258055.150 8    216425.808 6        29.750          15.500
  24685871.442     -411051.873 5   -248908.845 5         8.000           6.000
  21041959.950    -3357221.471 6   -318804.79522        18.750           2.406
  22548893.396   -10805164.473 6  -8340606.009 5        17.250          11.500
  23821818.942    -3632053.592 6  -2777500.936 5        13.500           9.250
  22822308.614     9830394.596 6   7627623.875 5        16.500          11.750
 93  3 31 19 23 45.0010000  0  6G18G 2G19G27G28G29
  20775143.481      275441.388 8    229973.517 6        29.500          15.500
  24677209.372     -456576.119 5   -284382.165 5         8.000           6.000
  21041518.497    -3359430.522 7   -320526.13323        20.500           2.500
  22543275.138   -10834702.241 6  -8363622.404 5        17.500          11.750
  23823125.075    -3625179.222 6  -2772144.283 5        13.250           9.250
  22830505.903     9873450.513 6   7661173.881 5        16.500          11.750
 93  3 31 19 24  0.0010000  0  6G18G 2G19G27G28G29
  20778474.888      292939.876 8    243608.677 6        29.500          15.750
  24668546.685     -502075.293 5   -319835.932 5         7.750           6.000
  21041120.622    -3361592.982 6   -322211.16022        19.250           2.469
  22537657.497   -10864213.713 6  -8386618.310 5        17.500          11.750
  23824457.325    -3618174.867 6  -2766686.338 5        13.500           9.250
  22838709.247     9916580.472 6   7694781.578 5        16.500          11.750
 93  3 31 19 24 15.0010000  0  6G18G 2G19G27G28G29
  20781827.356      310557.176 8    257336.425 6        29.250          15.750
  24659897.466     -547540.849 5   -355263.521 5         7.500           6.000
  21040704.325    -3363707.314 7   -323858.68922        20.500           2.469
  22532046.849   -10893694.062 6  -8409589.969 5        17.500          11.750
  23825813.599    -3611035.821 6  -2761123.440 5        13.250           9.250
  22846931.341     9959789.217 6   7728450.667 5        16.500          11.500
 93  3 31 19 24 30.0010000  0  6G18G 2G19G27G28G29
  20785201.091      328291.647 8    271155.475 6        29.250          15.750
  24651246.435     -592972.962 5   -390665.042 5         7.500           6.000
  21040331.333    -3365772.182 6   -325467.67022        18.750           2.469
  22526441.169   -10923145.012 6  -8432538.718 5        17.500          11.750
  23827197.802    -3603762.800 6  -2755456.144 5        13.500           9.250
  22855169.185    10003073.666 6   7762178.740 5        16.750          11.500
 93  3 31 19 24 45.0010000  0  6G18G 2G19G27G28G29
  20788599.177      346148.081 8    285069.555 6        29.250          15.750
  24642606.091     -638364.603 4   -426035.010 5         7.250           5.750
  21039931.216    -3367782.712 7   -327034.31323        20.500           2.500
  22520846.185   -10952561.900 6  -8455460.928 5        17.750          11.750
  23828613.786    -3596348.508 6  -2749678.770 5        13.750           9.250
  22863419.271    10046434.441 6   7795966.295 5        16.250          11.500
 93  3 31 19 25  0.0010000  0  6G18G 2G19G27G28G29
  20792020.747      364126.367 8    299078.588 6        29.250          16.000
  24633979.896     -683714.087 5   -461372.148 5         7.500           5.750
  21039564.903    -3369741.121 7   -328560.34423        20.500           2.500
  22515252.622   -10981940.924 6  -8478353.636 6        17.750          12.000
  23830049.981    -3588789.534 6  -2743788.657 5        13.500           9.000
  22871683.981    10089871.948 6   7829813.645 5        16.000          11.500
 93  3 31 19 25 15.0010000  0  6G18G 2G19G27G28G29
  20795467.599      382228.549 8    313184.172 6        29.250          16.000
  24625363.692     -729018.972 5   -496674.534 5         7.500           5.750
  21039197.122    -3371647.051 7   -330045.47723        20.750           2.531
  22509670.216   -11011278.167 6  -8501213.783 6        17.500          12.000
  23831513.841    -3581085.706 6  -2737785.663 5        13.250           9.250
  22879967.638    10133388.620 6   7863722.676 5        16.250          11.250
 93  3 31 19 25 30.0010000  0  6G18G 2G19G27G28G29
  20798933.599      400454.151 8    327385.924 6        29.000          16.000
  24616745.161     -774276.198 5   -531939.765 5         7.500           5.750
  21038842.997    -3373501.929 7   -331490.83623        20.750           2.563
  22504094.849   -11040570.887 6  -8524039.237 5        17.500          11.750
  23833007.825    -3573237.980 6  -2731670.550 5        13.500           9.000
  22888260.521    10176984.958 6   7897693.782 5        16.000          11.250
 93  3 31 19 25 45.0010000  0  6G18G 2G19G27G28G29
  20802424.724      418804.178 8    341684.633 6        29.250          16.000
  24608144.208     -819483.029 5   -567165.729 5         7.500           5.750
  21038500.528    -3375303.191 7   -332894.40923        20.500           2.531
  22498531.286   -11069817.776 6  -8546828.981 6        18.000          12.000
  23834526.888    -3565248.069 6  -2725444.645 5        13.250           9.250
  22896575.794    10220662.791 6   7931728.393 5        16.250          11.000
 93  3 31 19 26  0.0010000  0  7G18G 2G19G27G28G29G11
  20805943.224      437277.685 8    356079.553 6        29.250          16.000
  24599554.075     -864640.006 5   -602352.854 5         7.500           5.750
  21038180.974    -3377053.832 6   -334258.53722        19.000           2.469
  22492972.435   -11099022.099 6  -8569585.561 6        18.000          12.000
  23836076.841    -3557119.712 6  -2719110.847 5        13.250           9.250
  22904899.138    10264419.254 6   7965824.274 5        16.250          11.000
  24824835.739          -0.49415                         8.250
 93  3 31 19 26 15.0010000  0  7G18G 2G19G27G28G29G11
  20809480.521      455871.862 8    370568.501 6        29.000          16.250
  24590965.200     -909751.088 5   -637504.196 5         7.750           5.750
  21037842.528    -3378755.660 7   -335584.63622        20.500           2.469
  22487422.794   -11128187.246 6  -8592311.609 6        17.750          12.000
  23837649.044    -3548856.233 6  -2712671.774 5        13.500           9.250
  22913244.388    10308252.001 6   7999979.592 5        16.250          11.000
  24817646.021      -37783.224 5                         8.500
 93  3 31 19 26 30.0010000  0  7G18G 2G19G27G28G29G11
  20813041.481      474584.880 8    385150.053 6        29.000          16.000
  24582391.825     -954816.791 5   -672620.210 5         8.000           5.750
  21037531.114    -3380404.501 7   -336869.44022        20.250           2.469
  22481880.661   -11157312.260 6  -8615006.386 6        18.000          12.000
  23839244.825    -3540460.680 6  -2706129.772 5        13.250           9.250
  22921598.216    10352159.589 6   8034193.231 5        16.250          11.000
  24810462.552      -75513.650 5        -0.39115         8.250           5.750
 93  3 31 19 26 45.0010000  0  7G18G 2G19G27G28G29G11
  20816624.458      493415.073 8    399822.911 6        29.000          16.250
  24573824.325     -999837.912 5   -707701.461 5         8.000           5.750
  21037224.802    -3381999.672 7   -338112.42922        20.250           2.438
  22476348.122   -11186397.575 6  -8637670.230 6        18.000          12.000
  23840872.841    -3531933.974 6  -2699485.582 5        13.500           9.250
  22929966.513    10396140.923 6   8068464.338 5        16.000          11.000
  24803294.622     -113191.054 5    -29359.282 5         8.500           5.750
 93  3 31 19 27  0.0010000  0  7G18G 2G19G27G28G29G11
  20820230.396      512363.997 8    414588.289 6        28.750          16.250
  24565267.622    -1044812.236 5   -742746.245 5         8.000           5.750
  21036930.724    -3383543.104 7   -339315.09722        20.500           2.406
  22470822.427   -11215440.441 6  -8660300.991 6        18.000          12.000
  23842518.333    -3523275.789 6  -2692738.927 5        13.500           9.500
  22938352.349    10440201.704 6   8102797.346 5        16.250          11.000
  24796142.841     -150811.647 5    -58673.937 5         8.750           6.000
 93  3 31 19 27 15.0010000  0  7G18G 2G19G27G28G29G11
  20823859.427      531433.833 8    429447.880 6        28.750          16.250
  24556720.208    -1089738.012 5   -777753.197 5         8.250           5.750
  21036646.239    -3385032.013 7   -340475.27722        20.500           2.406
  22465303.106   -11244442.538 6  -8682899.997 6        18.000          12.250
  23844190.692    -3514484.624 6  -2685888.664 5        13.750           9.500
  22946754.927    10484344.953 6   8137194.618 5        16.000          11.000
  24788990.927     -188372.588 5    -87942.092 5         8.750           6.000
 93  3 31 19 27 30.0010000  0  7G18G 2G19G27G28G29G11
  20827510.005      550622.592 8    444400.146 6        28.750          16.250
  24548178.067    -1134619.743 5   -812725.833 5         8.500           5.750
  21036379.575    -3386467.249 7   -341593.64022        20.000           2.375
  22459788.271   -11273409.894 6  -8705471.924 6        18.000          12.250
  23845887.216    -3505562.016 6  -2678935.981 5        13.500           9.500
  22955168.435    10528564.592 6   8171651.412 5        16.000          11.000
  24781850.919     -225875.538 5   -117165.045 5         9.000           6.000
 93  3 31 19 27 45.0010000  0  7G18G 2G19G27G28G29G11
  20831185.294      569933.847 8    459447.863 6        28.500          16.250
  24539642.239    -1179459.711 5   -847665.919 5         8.500           6.000
  21036113.075    -3387843.448 7   -342665.99322        20.500           2.375
  22454284.185   -11302341.684 6  -8728016.139 6        18.000          12.250
  23847612.552    -3496501.544 6  -2671875.861 5        13.750           9.500
  22963598.880    10572860.769 6   8206167.846 5        15.750          11.000
  24774725.411     -263316.792 5   -146339.946 5         9.000           6.000
 93  3 31 19 28  0.0010000  0  7G18G 2G19G27G28G29G11
  20834880.981      589368.649 8    474591.844 6        28.250          16.500
  24531122.192    -1224257.651 5   -882573.257 5         8.750           6.000
  21035862.981    -3389156.856 7   -343689.42322        20.500           2.406
  22448783.958   -11331236.804 6  -8750531.787 6        18.000          12.500
  23849361.106    -3487298.919 6  -2664704.977 5        14.250           9.500
  22972035.872    10617236.167 6   8240746.012 5        15.750          11.000
  24767619.317     -300693.639 5   -175464.653 5         9.250           6.000
 93  3 31 19 28 15.0010000  0  7G18G 2G19G27G28G29G11
  20838603.513      608924.720 8    489830.329 6        28.250          16.250
  24522601.044    -1269013.002 5   -917447.420 5         9.000           6.000
  21035621.286    -3390409.867 7   -344665.79122        20.500           2.344
  22443289.450   -11360094.110 6  -8773017.957 6        18.000          12.500
  23851147.630    -3477952.258 6  -2657421.852 5        14.000           9.250
  22980502.630    10661690.614 6   8275385.774 5        15.750          10.750
  24760517.380     -338005.992 5   -204539.102 5         9.250           6.000
 93  3 31 19 28 30.0010000  0  7G18G 2G19G27G28G29G11
  20842350.646      628610.348 8    505169.765 6        28.500          16.250
  24514092.677    -1313716.526 5   -952281.184 5         9.000           6.250
  21035405.544    -3391592.987 7   -345587.69722        20.250           2.375
  22437812.294   -11388905.093 6  -8795468.032 6        18.000          12.500
  23852949.521    -3468451.470 6  -2650018.637 5        14.250           9.500
  22988975.083    10706233.317 6   8310094.304 5        15.500          11.000
  24753428.091     -375243.735 5   -233555.419 5         9.250           6.000
 93  3 31 19 28 45.0010000  0  7G18G 2G19G27G28G29G11
  20846120.880      648422.521 8    520607.802 6        28.750          16.500
  24505594.442    -1358370.755 5   -987076.528 5         8.750           6.250
  21035188.185    -3392709.734 7   -346457.88422        20.500           2.406
  22432336.536   -11417674.397 6  -8817885.633 6        18.000          12.750
  23854787.138    -3458795.406 6  -2642494.425 5        13.500           9.500
  22997472.091    10750861.178 6   8344869.186 5        15.250          11.000
  24746357.833     -412407.140 5   -262513.823 5         9.500           5.750
 93  3 31 19 29  0.0010000  0  7G18G 2G19G27G28G29G11
  20849914.958      668360.781 8    536144.090 6        28.750          16.500
  24497108.466    -1402978.055 5  -1021835.327 5         9.000           6.250
  21034994.755    -3393763.582 6   -347279.06022        19.750           2.375
  22426870.224   -11446402.499 6  -8840271.130 6        18.000          12.750
  23856652.599    -3448984.874 6  -2634849.848 5        13.750           9.500
  23005977.317    10795574.551 6   8379710.707 5        15.250          11.000
  24739298.294     -449496.893 5   -291414.808 5         9.500           5.750
 93  3 31 19 29 15.0010000  0  7G18G 2G19G27G28G29G11
  20853732.177      688423.497 8    551777.359 6        28.500          16.500
  24488631.927    -1447539.034 5  -1056558.016 5         9.000           6.250
  21034798.950    -3394753.521 7   -348050.43722        20.500           2.406
  22421409.005   -11475090.776 6  -8862625.597 6        18.000          12.750
  23858547.278    -3439022.235 6  -2627086.748 5        14.250           9.500
  23014501.833    10840369.418 6   8414615.734 5        15.000          11.000
  24732255.333     -486515.096 5   -320260.057 5         9.750           6.000
 93  3 31 19 29 30.0010000  0  7G18G 2G19G27G28G29G11
  20857572.794      708606.767 8    567504.567 6        28.500          16.500
  24480158.552    -1492060.548 5  -1091249.961 5         9.000           6.500
  21034624.731    -3395681.245 7   -348773.32622        20.000           2.438
  22415957.396   -11503746.565 6  -8884954.743 6        18.000          12.750
  23860474.091    -3428913.649 6  -2619209.920 5        14.000           9.500
  23023041.833    10885238.538 6   8449578.612 5        15.000          11.000
  24725219.575     -523468.629 5   -349054.900 5         9.250           5.750
 93  3 31 19 29 45.0010000  0  7G18G 2G19G27G28G29G11
  20861437.185      728909.323 8    583324.724 6        28.250          16.500
  24471693.200    -1536544.690 5  -1125912.786 5         9.000           6.500
  21034458.685    -3396547.716 7   -349448.49522        20.500           2.438
  22410507.247   -11532371.182 6  -8907259.597 6        18.000          12.750
  23862425.005    -3418662.052 6  -2611221.654 5        14.500           9.500
  23031590.521    10930180.387 6   8484598.159 5        15.000          11.000
  24718202.997     -560358.795 5   -377800.368 5         9.500           5.750
 93  3 31 19 30  0.0010000  0  8G18G 2G19G27G28G29G11G16
  20865323.091      749326.409 8    599234.128 6        28.250          16.750
  24463230.450    -1580990.444 5  -1160545.690 5         9.000           6.500
  21034308.474    -3397355.562 7   -350077.98022        20.000           2.438
  22405068.919   -11560965.931 6  -8929541.178 6        18.250          12.750
  23864401.958    -3408272.994 6  -2603126.271 5        14.250           9.500
  23040155.450    10975196.286 6   8519675.415 5        15.000          11.000
  24711189.005     -597187.844 5   -406498.210 5         9.500           5.750
  24650348.114          -0.22114                         7.000
 93  3 31 19 30 15.0010000  0  8G18G 2G19G27G28G29G11G16
  20869230.591      769864.525 8    615237.837 6        28.250          16.500
  24454783.044    -1625384.216 5  -1195138.095 5         9.000           6.750
  21034163.224    -3398100.037 7   -350658.08722        20.750           2.469
  22399630.575   -11589521.532 6  -8951792.257 6        18.250          12.750
  23866404.708    -3397742.629 6  -2594920.791 5        13.750           9.500
  23048739.716    11020294.849 6   8554817.079 5        15.000          10.750
  24704195.802     -633948.452 5   -435142.712 5         9.500           5.750
  24644936.497      -28479.734 5                         7.500
 93  3 31 19 30 30.0010000  0  8G18G 2G19G27G28G29G11G16
  20873161.247      790517.277 8    631330.869 6        28.000          16.750
  24446341.427    -1669735.016 5  -1229697.017 5         9.000           7.000
  21034036.114    -3398788.968 7   -351194.91222        20.000           2.438
  22394206.677   -11618047.279 6  -8974020.070 6        18.250          13.000
  23868432.700    -3387080.958 6  -2586612.989 5        14.250           9.500
  23057336.333    11065466.192 6   8590015.457 5        14.750          10.750
  24697216.067     -670649.483 5   -463740.795 5         9.250           5.750
  24639534.872      -56846.017 5                         7.500
 93  3 31 19 30 45.0010000  0  8G18G 2G19G27G28G29G11G16
  20877114.685      811295.852 8    647521.945 6        28.000          16.500
  24437914.630    -1714034.340 5  -1264215.827 5         9.250           7.000
  21033912.958    -3399410.896 7   -351679.52422        20.750           2.438
  22388786.411   -11646534.108 6  -8996217.558 6        18.250          13.000
  23870487.841    -3376280.776 6  -2578197.265 5        14.250           9.500
  23065948.130    11110719.749 6   8625277.897 5        15.250          11.000
  24690239.692     -707281.788 5   -492285.311 5         9.000           5.750
  24634162.466      -85089.803 5        -0.11815         7.750           5.250
 93  3 31 19 31  0.0010000  0  8G18G 2G19G27G28G29G11G16
  20881093.888      832198.264 8    663809.517 6        28.250          16.750
  24429494.599    -1758283.039 5  -1298695.184 5         9.250           7.000
  21033806.997    -3399967.593 7   -352113.30322        20.000           2.469
  22383374.567   -11674978.974 6  -9018382.350 6        18.250          13.000
  23872570.825    -3365346.582 6  -2569677.102 5        13.750           9.500
  23074581.036    11156052.426 6   8660601.992 5        15.250          10.750
  24683285.591     -743848.573 5   -520778.778 5         9.250           5.750
  24628813.458     -113213.433 5    -21914.658 5         8.000           5.250
 93  3 31 19 31 15.0010000  0  8G18G 2G19G27G28G29G11G16
  20885092.091      853225.872 8    680194.651 6        28.000          16.500
  24421085.724    -1802480.172 5  -1333134.372 5         9.250           7.000
  21033712.810    -3400458.517 7   -352495.83522        20.750           2.469
  22377969.302   -11703380.316 6  -9040513.221 6        18.000          13.000
  23874669.817    -3354278.410 6  -2561052.558 5        14.000           9.500
  23083217.185    11201463.095 6   8695986.855 5        15.000          10.750
  24676337.435     -780350.531 5   -549221.724 5         8.750           5.750
  24623475.942     -141215.490 5    -43734.473 5         8.000           5.250
 93  3 31 19 31 30.0010000  0  8G18G 2G19G27G28G29G11G16
  20889117.575      874381.144 8    696679.260 6        28.000          16.500
  24412680.208    -1846627.108 5  -1367534.444 5         9.000           7.000
  21033635.700    -3400885.057 7   -352828.19422        20.000           2.469
  22372573.513   -11731739.782 6  -9062611.466 6        18.000          13.000
  23876811.208    -3343072.121 6  -2552320.374 5        14.000           9.500
  23091872.052    11246951.642 6   8731432.410 5        15.000          10.750
  24669404.575     -816786.740 5   -577613.442 5         9.000           6.000
  24618175.567     -169095.711 5    -65459.324 5         8.000           5.250
 93  3 31 19 31 45.0010000  0  8G18G 2G19G27G28G29G11G16
  20893168.185      895658.876 8    713259.293 6        28.000          16.750
  24404289.903    -1890730.521 5  -1401900.598 5         9.000           7.250
  21033560.630    -3401254.104 7   -353115.75122        20.500           2.438
  22367183.864   -11760061.552 6  -9084680.337 6        18.250          13.000
  23878965.263    -3331732.194 6  -2543484.074 5        13.500           9.500
  23100543.528    11292513.089 6   8766934.758 5        15.250          10.500
  24662478.552     -853162.331 5   -605957.901 5         8.750           5.750
  24612898.638     -196859.488 5    -87093.462 5         8.000           5.250
 93  3 31 19 32  0.0010000  0  8G18G 2G19G27G28G29G11G16
  20897241.396      917060.759 8    729936.068 6        28.250          16.750
  24395901.677    -1934787.024 5  -1436230.202 5         9.000           7.250
  21033506.599    -3401566.728 7   -353359.35623        20.000           2.531
  22361800.239   -11788340.313 6  -9106715.696 6        18.000          13.000
  23881147.872    -3320256.915 6  -2534542.291 5        13.750           9.250
  23109226.286    11338148.487 6   8802494.739 5        15.000          10.750
  24655574.271     -889473.568 5   -634252.231 5         9.000           5.750
  24607629.013     -224502.477 5   -108633.476 5         7.750           5.000
 93  3 31 19 32 15.0010000  0  8G18G 2G19G27G28G29G11G16
  20901335.888      938582.343 8    746706.112 6        28.000          16.750
  24387534.075    -1978799.132 5  -1470525.212 5         9.000           7.250
  21033452.044    -3401829.972 7   -353564.47022        20.750           2.438
  22356427.372   -11816578.715 6  -9128719.604 6        18.000          13.250
  23883359.849    -3308651.101 6  -2525498.804 5        13.500           9.250
  23117923.560    11383851.865 6   8838107.685 5        15.000          10.500
  24648677.403     -925725.003 5   -662499.945 5         9.000           5.750
  24602391.200     -252027.546 5   -130081.581 5         8.000           5.000
 93  3 31 19 32 30.0010000  0  8G18G 2G19G27G28G29G11G16
  20905454.849      960227.320 8    763572.309 6        28.000          16.750
  24379165.677    -2022768.224 5  -1504786.724 5         9.000           7.000
  21033414.380    -3402043.885 7   -353731.14923        20.500           2.563
  22351057.716   -11844777.446 6  -9150692.604 6        18.000          13.250
  23885590.458    -3296912.408 6  -2516351.772 5        13.500           9.500
  23126633.544    11429622.152 6   8873772.770 5        15.000          10.500
  24641786.591     -961915.053 5   -690699.835 5         9.000           5.750
  24597182.771     -279433.528 5   -151436.934 5         8.000           5.250
 93  3 31 19 32 45.0010000  0  8G18G 2G19G27G28G29G11G16
  20909598.481      981992.238 7    780531.968 6        27.750          16.750
  24370807.817    -2066699.009 5  -1539018.369 5         9.000           7.000
  21033377.474    -3402208.642 7   -353859.52722        20.750           2.469
  22345699.489   -11872939.370 6  -9172636.923 6        18.000          13.000
  23887850.427    -3285041.330 6  -2507101.586 5        13.500           9.250
  23135354.825    11475456.751 6   8909487.960 5        15.000          10.500
  24634915.583     -998044.160 5   -718852.240 5         9.250           5.750
  24591986.872     -306723.013 5   -172701.482 5         8.250           5.000
 93  3 31 19 33  0.0010000  0  8G18G 2G19G27G28G29G11G16
  20913759.263     1003868.501 7    797578.386 6        27.750          16.750
  24362444.747    -2110596.262 5  -1573223.889 5         9.000           7.250
  21033360.325    -3402329.764 7   -353953.90123        20.250           2.531
  22340348.786   -11901070.051 6  -9194556.892 6        18.250          13.000
  23890135.325    -3273040.884 6  -2497750.599 5        13.500           9.500
  23144094.856    11521349.399 6   8945248.393 5        15.000          10.500
  24628048.005    -1034117.082 5   -746960.835 5         8.750           6.000
  24586810.200     -333903.140 5   -193880.812 5         8.500           5.250
 93  3 31 19 33 15.0010000  0  8G18G 2G19G27G28G29G11G16
  20917943.122     1025861.509 8    814715.782 6        28.000          16.750
  24354102.599    -2154455.203 5  -1607399.554 5         9.000           7.250
  21033341.231    -3402403.861 7   -354011.63322        20.750           2.469
  22335004.669   -11929165.898 6  -9216449.730 6        18.250          13.250
  23892446.606    -3260904.195 6  -2488293.441 5        13.000           9.500
  23152833.474    11567306.086 6   8981058.725 5        15.000          10.500
  24621193.716    -1070127.362 5   -775020.662 5         9.000           6.000
  24581657.380     -360969.140 5   -214971.223 5         8.500           5.000
 93  3 31 19 33 30.0010000  0  8G18G 2G19G27G28G29G11G16
  20922152.974     1047969.314 8    831942.620 6        28.000          16.750
  24345765.411    -2198274.971 5  -1641544.720 5         9.250           7.250
  21033350.489    -3402431.284 6   -354032.99823        19.750           2.531
  22329662.271   -11957232.251 6  -9238319.579 6        18.000          13.000
  23894782.169    -3248632.769 6  -2478731.300 5        13.750           9.500
  23161592.028    11613329.033 6   9016920.689 5        15.000          10.250
  24614351.817    -1106074.250 5   -803031.055 5         8.500           6.000
  24576527.177     -387922.127 5   -235973.572 5         8.250           5.250
 93  3 31 19 33 45.0010000  0  8G18G 2G19G27G28G29G11G16
  20926379.724     1070189.024 8    849256.664 6        28.000          16.750
  24337429.981    -2242053.909 5  -1675658.042 5         9.000           7.250
  21033342.646    -3402409.321 7   -354015.87722        20.750           2.469
  22324327.888   -11985264.961 6  -9260163.210 6        18.250          13.250
  23897140.560    -3236226.958 6  -2469064.434 5        13.750           9.500
  23170360.161    11659422.451 6   9052837.558 5        14.750          10.250
  24607524.692    -1141954.835 5   -830989.771 5         9.000           6.000
  24571430.036     -414759.459 5   -256885.790 5         8.250           5.000
 93  3 31 19 34  0.0010000  0  8G18G 2G19G27G28G29G11G16
  20930628.864     1092516.778 8    866654.898 6        28.000          17.000
  24329111.567    -2285790.428 5  -1709738.330 5         9.250           7.250
  21033356.591    -3402337.350 7   -353959.79123        20.500           2.500
  22318996.560   -12013264.457 6  -9281980.961 6        18.250          13.000
  23899526.677    -3223689.109 6  -2459294.695 5        13.250           9.500
  23179145.380    11705585.098 6   9088808.370 5        14.750          10.250
  24600718.536    -1177768.109 5   -858896.058 5         9.250           5.750
  24566335.888     -441482.742 5   -277709.148 5         8.250           5.250
 93  3 31 19 34 15.0010000  0  8G18G 2G19G27G28G29G11G16
  20934897.458     1114948.807 8    884134.383 6        28.000          16.750
  24320797.380    -2329485.591 5  -1743786.390 5         9.250           7.250
  21033379.458    -3402217.720 7   -353866.56723        20.750           2.563
  22313673.747   -12041233.819 6  -9303775.232 6        18.000          13.000
  23901933.200    -3211020.382 6  -2449422.967 5        13.000           9.500
  23187939.013    11751816.999 6   9124833.158 5        14.500          10.250
  24593908.763    -1213515.403 5   -886750.948 5         9.250           5.500
  24561274.122     -468094.302 5   -298445.465 5         8.500           5.250
 93  3 31 19 34 30.0010000  0  8G18G 2G19G27G28G29G11G16
  20939187.966     1137487.171 8    901696.724 6        28.250          16.750
  24312490.653    -2373137.945 5  -1777801.099 5         9.250           7.250
  21033422.997    -3402046.086 6   -353732.81223        19.250           2.500
  22308360.341   -12069171.638 6  -9325544.924 6        18.250          13.000
  23904373.880    -3198215.002 6  -2439444.751 5        13.000           9.500
  23196760.606    11798121.702 6   9160914.670 5        14.500          10.000
  24587111.935    -1249194.181 5   -914552.438 5         9.000           5.500
  24556235.286     -494594.152 5   -319094.701 5         8.500           5.250
 93  3 31 19 34 45.0010000  0  8G18G 2G19G27G28G29G11G16
  20943497.286     1160129.930 8    919340.413 6        28.000          17.000
  24304188.310    -2416752.348 5  -1811786.225 5         9.500           7.250
  21033454.919    -3401822.423 7   -353558.52622        20.750           2.469
  22303049.333   -12097078.946 6  -9347290.846 6        18.500          13.000
  23906834.911    -3185273.697 6  -2429360.619 5        12.500           9.500
  23205584.122    11844498.086 6   9197052.031 5        14.500          10.250
  24580344.021    -1284805.507 5   -942301.355 5         9.000           5.500
  24551210.974     -520986.539 5   -339660.222 5         8.500           5.250
 93  3 31 19 35  0.0010000  0  8G18G 2G19G27G28G29G11G16
  20947825.192     1182882.334 8    937069.536 6        28.000          17.000
  24295906.646    -2460324.511 5  -1845738.445 5         9.500           7.250
  21033508.239    -3401543.748 7   -353341.37123        20.750           2.531
  22297748.161   -12124948.760 6  -9369007.551 6        18.250          13.000
  23909324.802    -3172189.860 6  -2419165.441 5        13.000           9.750
  23214422.067    11890949.262 6   9233247.672 5        14.750          10.250
  24573580.849    -1320344.761 5   -969994.145 5         9.250           5.500
  24546213.231     -547267.403 5   -360138.821 5         8.500           5.250
 93  3 31 19 35 15.0010000  0  8G18G 2G19G27G28G29G11G16
  20952174.919     1205747.279 7    954886.355 6        27.750          16.750
  24287618.278    -2503854.453 5  -1879657.775 5         9.750           7.250
  21033568.427    -3401212.925 7   -353083.58523        20.750           2.531
  22292451.122   -12152780.779 6  -9390694.806 6        18.500          13.000
  23911845.513    -3158966.185 6  -2408861.278 5        13.250           9.750
  23223277.614    11937474.176 6   9269500.774 5        14.500          10.250
  24566829.114    -1355812.413 5   -997631.129 5         9.000           5.500
  24541230.927     -573437.655 5   -380531.259 5         8.250           5.250
 93  3 31 19 35 30.0010000  0  8G18G 2G19G27G28G29G11G16
  20956549.294     1228722.159 7    972788.837 6        27.750          17.000
  24279340.724    -2547344.728 5  -1913546.200 5         9.500           7.250
  21033640.911    -3400833.416 7   -352787.85723        20.750           2.563
  22287160.239   -12180576.828 6  -9412354.030 6        18.750          13.000
  23914383.513    -3145607.271 6  -2398451.747 5        12.750           9.750
  23232143.411    11984070.075 6   9305809.188 5        14.500          10.250
  24560094.161    -1391211.640 5  -1025214.782 5         9.250           5.500
  24536268.880     -599500.467 5   -400839.953 5         8.000           5.500
 93  3 31 19 35 45.0010000  0  8G18G 2G19G27G28G29G11G16
  20960943.263     1251811.093 7    990780.185 6        27.750          16.750
  24271072.271    -2590792.164 5  -1947401.237 5         9.750           7.250
  21033723.435    -3400400.076 7   -352450.18623        21.000           2.563
  22281878.388   -12208330.838 6  -9433980.499 6        18.500          13.000
  23916953.521    -3132105.943 6  -2387931.240 5        12.500           9.750
  23241022.927    12030738.085 6   9342173.788 5        14.500          10.000
  24553372.880    -1426537.835 5  -1052741.549 5         9.500           5.500
  24531336.763     -625450.228 5   -421060.575 5         8.000           5.500
 93  3 31 19 36  0.0010000  0  8G18G 2G19G27G28G29G11G16
  20965358.208     1275014.824 8   1008860.989 6        28.250          16.750
  24262812.302    -2634200.344 5  -1981225.691 5         9.750           7.250
  21033833.575    -3399916.834 6   -352073.63623        19.000           2.500
  22276603.278   -12236046.014 6  -9455576.704 6        18.750          13.000
  23919547.544    -3118463.119 6  -2377300.482 5        12.500           9.500
  23249916.052    12077470.354 6   9378588.466 5        14.750          10.000
  24546657.427    -1461794.649 5  -1080214.236 5         9.250           5.500
  24526411.208     -651291.581 5   -441196.724 5         8.000           5.500
 93  3 31 19 36 15.0010000  0  8G18G 2G19G27G28G29G11G16
  20969796.169     1298339.948 8   1027036.390 6        28.000          16.750
  24254560.747    -2677566.390 5  -2015017.307 5         9.500           7.250
  21033917.013    -3399382.295 7   -351657.10823        20.500           2.563
  22271335.669   -12263722.406 6  -9477142.692 6        18.750          13.000
  23922171.036    -3104678.723 6  -2366559.393 5        12.500           9.750
  23258820.669    12124268.509 6   9415054.470 5        14.500          10.000
  24539961.028    -1496981.146 5  -1107632.140 5         9.750           5.500
  24521519.981     -677023.541 5   -461247.608 5         8.000           5.500
 93  3 31 19 36 30.0010000  0  8G18G 2G19G27G28G29G11G16
  20974256.841     1321785.180 8   1045305.379 6        28.250          16.750
  24246311.966    -2720891.336 5  -2048776.900 5         9.750           7.250
  21034043.942    -3398799.731 6   -351203.16023        19.000           2.500
  22266077.810   -12291363.449 6  -9498681.139 6        19.000          13.000
  23924819.302    -3090756.083 6  -2355710.601 5        12.250           9.500
  23267736.294    12171129.516 6   9451569.456 5        14.250          10.000
  24533285.208    -1532101.167 5  -1134998.272 5         9.750           5.500
  24516642.653     -702648.083 5   -481214.797 5         8.000           5.500
 93  3 31 19 36 45.0010000  0  8G18G 2G19G27G28G29G11G16
  20978744.106     1345356.147 8   1063672.344 6        28.000          16.750
  24238082.614    -2764171.937 5  -2082501.949 5         9.500           7.250
  21034148.927    -3398164.266 7   -350707.99222        20.500           2.406
  22260825.427   -12318964.781 6  -9520188.630 6        18.750          13.000
  23927498.677    -3076693.083 6  -2344752.427 5        12.500           9.750
  23276668.700    12218056.183 6   9488135.613 5        14.250          10.000
  24526611.606    -1567150.200 5  -1162309.060 5         9.750           5.750
  24511783.044     -728160.912 5   -501094.945 5         8.000           5.500
 93  3 31 19 37  0.0010000  0  8G18G 2G19G27G28G29G11G16
  20983252.685     1369052.661 8   1082137.136 6        28.000          16.750
  24229846.310    -2807406.387 5  -2116191.034 5         9.500           7.250
  21034298.333    -3397476.344 6   -350171.94523        18.750           2.531
  22255578.560   -12346526.893 6  -9541665.580 6        18.750          13.000
  23930203.989    -3062491.536 6  -2333686.292 5        12.750           9.750
  23285607.458    12265048.151 6   9524752.648 5        14.250          10.000
  24519955.169    -1602127.925 5  -1189564.303 5        10.000           5.750
  24506952.130     -753559.349 5   -520885.972 5         8.000           5.500
 93  3 31 19 37 15.0010000  0  8G18G 2G19G27G28G29G11G16
  20987786.849     1392873.238 7   1100698.601 6        27.750          17.000
  24221631.888    -2850590.178 5  -2149840.650 5         9.750           7.250
  21034420.278    -3396734.730 7   -349594.06423        20.500           2.531
  22250339.489   -12374052.858 6  -9563114.354 6        19.000          13.000
  23932932.185    -3048153.360 6  -2322513.697 5        12.750           9.750
  23294571.786    12312107.563 6   9561422.239 5        14.250          10.000
  24513317.927    -1637034.474 5  -1216764.084 5        10.000           5.750
  24502141.255     -778841.035 5   -540586.018 5         7.750           5.500
 93  3 31 19 37 30.0010000  0  8G18G 2G19G27G28G29G11G16
  20992340.817     1416818.491 8   1119357.218 6        28.250          16.750
  24213424.333    -2893718.511 5  -2183447.041 5        10.000           7.500
  21034576.271    -3395932.863 7   -348969.23423        20.250           2.500
  22245112.403   -12401539.219 6  -9584532.266 6        19.000          13.000
  23935682.911    -3033677.482 6  -2311233.800 5        12.500           9.500
  23303537.872    12359239.632 6   9598148.437 5        14.000           9.750
  24506684.356    -1671866.679 5  -1243905.929 5        10.250           6.000
  24497359.778     -804002.534 5   -560192.392 5         7.500           5.250
 93  3 31 19 37 45.0010000  0  8G18G 2G19G27G28G29G11G16
  20996922.864     1440885.484 8   1138110.704 6        28.250          16.750
  24205227.060    -2936791.778 5  -2217010.534 5         9.750           7.500
  21034740.036    -3395071.787 7   -348298.26323        20.500           2.500
  22239889.935   -12428988.687 6  -9605921.425 6        19.250          13.000
  23938462.646    -3019060.711 6  -2299844.126 5        12.750           9.500
  23312518.083    12406442.371 6   9634929.710 5        13.750           9.750
  24500074.052    -1706625.304 5  -1270990.457 5         9.750           6.000
  24492584.067     -829042.352 5   -579703.967 5         7.750           5.250
 93  3 31 19 38  0.0010000  0  8G18G 2G19G27G28G29G11G16
  21001524.435     1465074.157 8   1156959.002 6        28.250          16.750
  24197047.646    -2979808.857 5  -2250530.253 5        10.000           7.500
  21034915.208    -3394150.772 7   -347580.58323        20.250           2.500
  22234675.028   -12456400.104 6  -9627280.942 6        19.500          13.000
  23941272.731    -3004304.144 6  -2288345.504 5        12.750           9.500
  23321509.435    12453716.001 6   9671766.217 5        13.500           9.750
  24493473.255    -1741308.677 5  -1298016.322 5         9.750           6.000
  24487851.325     -853956.635 5   -599117.738 5         7.750           5.250
 93  3 31 19 38 15.0010000  0  8G18G 2G19G27G28G29G11G16
  21006151.708     1489382.074 8   1175900.218 6        28.250          17.000
  24188859.755    -3022771.176 5  -2284007.273 5        10.000           7.750
  21035101.200    -3393170.771 7   -346816.94722        20.500           2.438
  22229462.052   -12483775.440 6  -9648612.346 6        19.500          13.000
  23944107.231    -2989413.626 6  -2276742.523 5        13.000           9.500
  23330525.419    12501061.249 6   9708658.532 5        13.500           9.750
  24486885.146    -1775918.495 5  -1324984.898 5         9.750           6.000
  24483127.927     -878748.298 5   -618435.936 5         7.750           5.250
 93  3 31 19 38 30.0010000  0  8G18G 2G19G27G28G29G11G16
  21010799.294     1513803.378 8   1194929.784 6        28.250          17.000
  24180706.911    -3065679.783 5  -2317442.465 5        10.000           7.750
  21035311.044    -3392132.356 6   -346007.79523        19.000           2.531
  22224259.888   -12511116.317 6  -9669916.892 6        19.500          13.250
  23946964.036    -2974391.398 6  -2265036.893 5        12.750           9.500
  23339545.169    12548477.345 6   9745606.052 5        13.500           9.750
  24480314.099    -1810454.599 5  -1351896.035 5         9.750           6.000
  24478436.224     -903416.867 5   -637658.221 5         8.000           5.250
 93  3 31 19 38 45.0010000  0  8G18G 2G19G27G28G29G11G16
  21015466.646     1538338.694 8   1214048.190 6        28.000          17.000
  24172548.763    -3108534.000 5  -2350835.265 5         9.750           7.750
  21035505.200    -3391034.630 7   -345152.41323        20.500           2.500
  22219065.106   -12538418.836 6  -9691191.554 6        19.500          13.250
  23949851.700    -2959233.310 6  -2253225.398 5        12.750           9.500
  23348579.075    12595963.924 6   9782608.488 5        13.500           9.750
  24473754.208    -1844913.643 5  -1378747.111 5        10.000           6.000
  24473764.325     -927959.763 5   -656782.605 5         8.000           5.500
 93  3 31 19 39  0.0010000  0  8G18G 2G19G27G28G29G11G16
  21020156.872     1562984.833 8   1233252.951 6        28.000          17.000
  24164405.599    -3151338.866 5  -2384189.614 5        10.000           7.750
  21035725.771    -3389881.299 7   -344253.71123        20.250           2.531
  22213875.388   -12565685.586 6  -9712438.343 6        19.750          13.000
  23952762.786    -2943943.416 6  -2241311.208 5        12.750           9.500
  23357630.841    12643517.151 6   9819662.863 5        13.250           9.500
  24467209.958    -1879298.016 5  -1405540.030 5        10.000           6.000
  24469121.856     -952380.091 5   -675811.464 5         8.000           5.500
 93  3 31 19 39 15.0010000  0  8G18G 2G19G27G28G29G11G16
  21024870.536     1587746.055 8   1252547.386 6        28.000          17.000
  24156258.747    -3194087.365 5  -2417500.030 5         9.750           7.750
  21035959.044    -3388669.925 7   -343309.78323        20.500           2.563
  22208696.544   -12592912.835 6  -9733654.349 6        19.750          13.250
  23955695.653    -2928515.571 6  -2229289.526 5        12.750           9.500
  23366698.153    12691139.751 6   9856771.293 5        13.250           9.500
  24460689.942    -1913602.411 5  -1432270.618 5        10.250           6.250
  24464498.755     -976670.674 5   -694739.192 5         8.000           5.250
 93  3 31 19 39 30.0010000  0  8G18G 2G19G27G28G29G11G16
  21029601.466     1612621.224 8   1271930.615 6        28.000          17.000
  24148148.435    -3236782.713 5  -2450769.039 5        10.500           8.000
  21036196.646    -3387400.445 7   -342320.57223        20.500           2.563
  22203520.286   -12620098.702 6  -9754838.112 6        19.500          13.250
  23958656.794    -2912950.294 6  -2217160.735 5        12.750           9.500
  23375767.731    12738828.864 6   9893931.551 5        13.000           9.500
  24454172.771    -1947826.518 5  -1458938.638 5        10.000           6.500
  24459900.325    -1000832.746 5   -713566.818 5         8.000           5.250
 93  3 31 19 39 45.0010000  0  8G18G 2G19G27G28G29G11G16
  21034355.302     1637609.148 8   1291401.698 6        28.000          17.000
  24140026.489    -3279429.626 5  -2484000.302 5        10.250           7.750
  21036449.505    -3386078.722 7   -341290.65723        20.500           2.500
  22198354.138   -12647244.350 6  -9775990.537 6        19.750          13.250
  23961640.841    -2897250.102 6  -2204926.828 5        12.000           9.250
  23384853.599    12786578.625 6   9931139.063 5        13.000           9.500
  24447674.888    -1981972.064 5  -1485545.448 5        10.000           6.500
  24455326.888    -1024870.144 5   -732297.283 5         8.000           5.250
 93  3 31 19 40  0.0010000  0  8G18G 2G19G27G28G29G11G16
  21039132.833     1662704.549 7   1310956.535 6        27.750          16.750
  24131918.286    -3322033.706 5  -2517198.186 5        10.250           7.750
  21036712.646    -3384711.789 7   -340225.51423        20.000           2.563
  22193198.849   -12674356.910 7  -9797117.179 6        20.000          13.250
  23964658.200    -2881424.406 6  -2192595.129 5        12.250           9.500
  23393955.419    12834383.260 6   9968389.342 5        13.250           9.500
  24441188.380    -2016044.230 5  -1512095.079 5        10.000           6.500
  24450766.919    -1048791.084 5   -750937.006 5         8.250           5.250
 93  3 31 19 40 15.0010000  0  8G18G 2G19G27G28G29G11G16
  21043929.747     1687915.181 8   1330601.157 6        28.000          17.000
  24123821.692    -3364587.757 5  -2550357.096 5        10.500           7.750
  21036980.200    -3383290.306 7   -339117.85923        20.500           2.500
  22188047.427   -12701427.005 7  -9818210.723 6        20.000          13.250
  23967694.091    -2865470.696 6  -2180163.667 5        12.250           9.500
  23403061.403    12882251.102 6  10005688.864 5        13.000           9.500
  24434722.606    -2050035.507 5  -1538581.688 5        10.000           6.500
  24446248.411    -1072591.451 5   -769482.787 5         8.500           5.500
 93  3 31 19 40 30.0010000  0  8G18G 2G19G27G28G29G11G16
  21048751.114     1713241.578 8   1350335.987 6        28.000          16.750
  24115735.231    -3407091.350 5  -2583476.679 5        10.750           8.000
  21037261.317    -3381816.778 7   -337969.65123        20.250           2.500
  22182900.114   -12728456.924 7  -9839272.964 6        20.000          13.250
  23970754.896    -2849388.657 6  -2167632.218 5        12.250           9.500
  23412184.536    12930181.194 6  10043036.902 5        13.000           9.500
  24428267.419    -2083945.950 5  -1565005.305 5        10.000           6.750
  24441733.575    -1096271.983 5   -787935.163 5         8.500           5.500
 93  3 31 19 40 45.0010000  0  8G18G 2G19G27G28G29G11G16
  21053589.231     1738680.997 8   1370158.885 6        28.000          17.000
  24107656.661    -3449549.151 5  -2616560.586 5        10.750           8.000
  21037549.317    -3380298.927 7        -0.41116        20.250          18.250
  22177760.747   -12755451.009 7  -9860307.289 6        20.000          13.250
  23973837.224    -2833182.634 5  -2155004.146 5        11.750           9.500
  23421314.114    12978168.181 6  10080429.256 5        13.000           9.500
  24421837.497    -2117779.608 5  -1591369.111 5        10.500           6.750
  24437255.606    -1119835.384 5   -806296.286 5         8.500           5.500
 93  3 31 19 41  0.0010000  0  8G18G 2G19G27G28G29G11G16
  21058455.849     1764241.772 8   1390076.346 6        28.000          17.000
  24099581.364    -3491958.627 5  -2649606.836 5        10.500           8.000
  21037850.622    -3378732.624 7      1220.090 6        20.000          18.250
  22172639.231   -12782402.588 7  -9881308.480 6        20.250          13.250
  23976947.794    -2816847.714 5  -2142275.647 5        11.750           9.500
  23430455.419    13026217.860 6  10117870.478 5        13.250           9.250
  24415406.731    -2151531.377 5  -1617669.074 5        10.250           6.750
  24432792.935    -1143273.076 5   -824559.447 5         8.250           5.500
 93  3 31 19 41 15.0010000  0  8G18G 2G19G27G28G29G11G16
  21063341.599     1789924.314 8   1410088.689 6        28.000          16.750
  24091524.122    -3534317.182 5  -2682613.413 5        10.750           8.000
  21038156.411    -3377114.223 7      2481.183 6        20.250          18.000
  22167514.583   -12809310.974 7  -9902276.023 6        20.000          13.250
  23980080.950    -2800380.006 6  -2129443.668 5        12.000           9.500
  23439612.599    13074333.333 6  10155362.956 5        13.000           9.250
  24409003.638    -2185199.075 5  -1643903.539 5        10.750           6.750
  24428359.458    -1166581.611 5   -842721.975 5         8.250           5.500
 93  3 31 19 41 30.0010000  0  8G18G 2G19G27G28G29G11G16
  21068251.817     1815725.631 8   1430193.585 6        28.000          17.000
  24083473.997    -3576626.905 5  -2715581.930 5        11.000           8.000
  21038474.153    -3375445.129 7      3781.780 6        20.000          18.250
  22162402.419   -12836178.229 7  -9923211.514 6        20.250          13.250
  23983238.935    -2783781.102 5  -2116509.459 5        11.750           9.500
  23448783.606    13122515.300 6  10192907.262 5        13.000           9.250
  24402606.192    -2218784.371 5  -1670073.793 5        10.750           6.750
  24423953.771    -1189764.828 5   -860786.848 5         8.250           5.500
 93  3 31 19 41 45.0010000  0  8G18G 2G19G27G28G29G11G16
  21073184.239     1841647.669 8   1450392.557 6        28.000          16.750
  24075432.606    -3618886.816 5  -2748511.634 5        11.000           8.000
  21038801.185    -3373723.880 7      5123.012 6        20.250          18.250
  22157297.544   -12863002.594 7  -9944113.583 6        20.000          13.250
  23986419.958    -2767050.198 5  -2103472.394 5        11.750           9.500
  23457967.106    13170766.810 6  10230505.746 5        12.500           9.250
  24396232.130    -2252285.895 5  -1696178.795 5        10.500           6.750
  24419554.825    -1212822.094 5   -878753.586 5         8.250           5.500
 93  3 31 19 42  0.0010000  0  8G18G 2G19G27G28G29G11G16
  21078140.583     1867692.264 7   1470687.031 6        27.750          17.000
  24067401.099    -3661092.701 5  -2781399.251 5        11.000           8.000
  21039144.911    -3371948.911 6      6506.114 6        19.750          18.250
  22152198.192   -12889784.459 7  -9964982.535 6        20.250          13.250
  23989630.388    -2750184.841 6  -2090330.573 5        12.000           9.500
  23467158.833    13219091.689 6  10268161.407 5        12.750           9.250
  24389884.669    -2285701.331 5  -1722216.697 5        10.750           6.750
  24415190.958    -1235752.239 5   -896621.256 5         8.000           5.500
 93  3 31 19 42 15.0010000  0  8G18G 2G19G27G28G29G11G16
  21083120.567     1893855.600 8   1491074.032 6        28.000          17.000
  24059373.880    -3703247.727 5  -2814247.228 5        11.000           8.000
  21039483.286    -3370122.641 7      7929.181 6        20.000          18.000
  22147113.646   -12916526.077 7  -9985820.126 6        20.500          13.250
  23992861.685    -2733185.793 5  -2077084.573 5        11.500           9.500
  23476370.067    13267488.136 6  10305872.812 5        12.750           9.250
  24383528.521    -2319033.712 5  -1748189.895 5        10.250           6.750
  24410848.810    -1258554.744 5   -914389.484 5         8.000           5.500
 93  3 31 19 42 30.0010000  0  8G18G 2G19G27G28G29G11G16
  21088126.114     1920150.621 8   1511563.639 6        28.000          17.000
  24051368.138    -3745339.278 5  -2847045.749 5        11.250           8.000
  21039849.372    -3368234.317 6      9400.610 6        19.750          18.250
  22142034.685   -12943216.514 7 -10006617.838 6        20.750          13.250
  23996125.544    -2716034.191 5  -2063719.687 5        11.250           9.500
  23485597.239    13315966.891 6  10343648.378 5        12.750           9.250
  24377204.997    -2352268.792 5  -1774087.271 5        10.500           6.750
  24406541.286    -1281211.672 5   -932044.274 5         8.000           5.250
 93  3 31 19 42 45.0010000  0  8G18G 2G19G27G28G29G11G16
  21093151.005     1946573.010 7   1532152.489 6        27.750          16.750
  24043370.630    -3787372.238 5  -2879798.623 5        11.500           8.000
  21040214.817    -3366289.537 7     10916.022 6        20.250          18.000
  22136962.060   -12969859.585 7 -10027378.636 6        20.500          13.500
  23999420.255    -2698730.275 5  -2050236.118 5        11.500           9.500
  23494836.458    13364524.858 6  10381485.654 5        13.000           9.250
  24370903.974    -2385410.455 5  -1799911.840 5        10.500           7.000
  24402260.255    -1303726.584 5   -949588.385 5         8.250           5.500
 93  3 31 19 43  0.0010000  0  8G18G 2G19G27G28G29G11G16
  21098202.739     1973121.364 7   1552839.496 6        27.750          17.000
  24035378.356    -3829347.292 5  -2912506.362 5        11.250           8.000
  21040600.247    -3364285.630 6     12477.514 6        19.750          18.250
  22131903.200   -12996452.858 7 -10048100.634 6        20.500          13.500
  24002745.716    -2681273.191 5  -2036633.206 5        11.750           9.250
  23504089.333    13413162.610 6  10419385.097 5        12.750           9.000
  24364610.817    -2418459.196 5  -1825664.027 5        10.500           7.000
  24397995.263    -1326098.827 5   -967021.331 5         8.250           5.500
 93  3 31 19 43 15.0010000  0  8G18G 2G19G27G28G29G11G16
  21103279.747     1999796.094 8   1573624.975 6        28.000          17.000
  24027404.739    -3871259.013 5  -2945164.754 5        11.000           8.000
  21040989.497    -3362215.704 7     14090.445 6        20.250          18.000
  22126851.739   -13022995.461 7 -10068783.151 6        20.500          13.750
  24006091.646    -2663656.963 5  -2022906.275 5        11.250           9.250
  23513360.817    13461883.330 6  10457349.204 5        12.750           9.000
  24358341.919    -2451411.720 5  -1851341.200 5        10.750           7.250
  24393774.677    -1348328.880 5   -984343.495 5         8.250           5.250
 93  3 31 19 43 30.0010000  0  8G18G 2G19G27G28G29G11G16
  21108378.544     2026597.229 7   1594508.946 6        27.750          17.000
  24019442.239    -3913103.420 5  -2977770.702 5        11.000           8.000
  21041398.481    -3360078.299 7     15755.958 6        20.000          18.250
  22121809.825   -13049486.184 7 -10089425.236 6        20.500          13.750
  24009479.466    -2645881.688 6  -2009055.421 5        12.000           9.500
  23522650.114    13510688.287 6  10495378.939 5        13.000           9.000
  24352085.739    -2484266.280 5  -1876942.076 5        10.500           7.250
  24389567.075    -1370421.475 5  -1001558.529 5         8.500           5.250
 93  3 31 19 43 45.0010000  0  8G18G 2G19G27G28G29G11G16
  21113502.856     2053520.652 7   1615488.209 6        27.250          17.000
  24011489.888    -3954885.603 5  -3010328.159 5        11.000           8.000
  21041817.450    -3357876.906 7     17471.334 6        20.500          18.250
  22116781.513   -13075929.834 7 -10110030.651 6        20.750          13.750
  24012891.591    -2627952.520 5  -1995084.650 5        11.500           9.250
  23531950.411    13559570.913 6  10533469.194 5        12.750           9.000
  24345854.872    -2517027.538 5  -1902470.254 5        10.500           7.000
  24385384.919    -1392382.045 5  -1018670.685 5         8.250           5.500
 93  3 31 19 44  0.0010000  0  8G18G 2G19G27G28G29G11G16
  21118650.474     2080565.336 7   1636561.961 6        27.500          17.000
  24003548.927    -3996607.108 5  -3042838.339 5        11.250           8.000
  21042250.700    -3355610.502 7     19237.367 6        20.250          18.000
  22111755.302   -13102328.931 7 -10130601.338 6        20.500          13.750
  24016334.763    -2609871.394 5  -1980995.479 5        11.500           9.250
  23541268.817    13608527.459 6  10571617.057 5        12.750           9.000
  24339642.364    -2549696.960 5  -1927926.843 5        10.500           7.250
  24381244.114    -1414211.321 5  -1035680.569 5         8.250           5.500
 93  3 31 19 44 15.0010000  0  8G18G 2G19G27G28G29G11G16
  21123819.122     2107730.732 7   1657729.768 6        27.750          16.750
  23995618.411    -4038267.938 5  -3075301.238 5        11.000           8.250
  21042689.497    -3353277.488 7     21055.306 6        20.500          18.250
  22106739.591   -13128684.270 7 -10151137.933 6        20.250          13.750
  24019796.989    -2591638.531 5  -1966788.053 5        11.500           9.250
  23550603.708    13657557.258 6  10609821.994 5        12.750           9.000
  24333442.638    -2582274.222 5  -1953311.628 5        10.750           7.250
  24377102.317    -1435910.267 5  -1052588.867 5         8.250           5.250
 93  3 31 19 44 30.0010000  0  8G18G 2G19G27G28G29G11G16
  21129010.849     2135014.534 7   1678989.844 6        27.750          17.000
  23987708.825    -4079871.896 5  -3107719.823 5        11.000           8.250
  21043150.497    -3350878.627 7     22924.551 6        20.000          18.000
  22101735.239   -13154999.108 7 -10171642.968 6        20.500          14.000
  24023299.505    -2573258.135 5  -1952465.673 5        11.500           9.250
  23559943.083    13706655.807 6  10648080.510 5        12.500           9.000
  24327262.927    -2614762.407 5  -1978627.010 5        10.500           7.250
  24373003.263    -1457480.770 5  -1069397.087 5         8.000           5.250
 93  3 31 19 44 45.0010000  0  8G18G 2G19G27G28G29G11G16
  21134223.583     2162413.248 7   1700339.454 6        27.750          17.000
  23979798.161    -4121424.826 5  -3140098.652 5        11.000           8.250
  21043616.310    -3348413.648 7     24845.313 6        20.500          18.000
  22096729.130   -13181278.024 7 -10192120.015 6        20.000          14.000
  24026826.192    -2554735.683 5  -1938032.615 5        11.500           9.500
  23569296.216    13755818.199 6  10686388.767 5        12.500           9.000
  24321091.325    -2647165.474 5  -2003876.065 5        10.750           7.250
  24368915.481    -1478931.285 5  -1086111.836 5         8.000           5.500
 93  3 31 19 45  0.0010000  0  8G18G 2G19G27G28G29G11G16
  21139460.927     2189925.224 8   1721777.326 6        28.000          17.000
  23971902.880    -4162925.901 5  -3172437.062 5        11.000           8.250
  21044103.286    -3345880.086 7     26819.519 6        20.000          18.000
  22091740.356   -13207520.318 7 -10212568.525 6        20.250          14.000
  24030373.044    -2536075.728 5  -1923492.396 5        11.750           9.250
  23578661.044    13805043.920 6  10724746.370 5        12.500           8.750
  24314941.927    -2679484.171 5  -2029059.376 5        10.750           7.250
  24364860.536    -1500266.187 5  -1102736.462 5         8.000           5.500
 93  3 31 19 45 15.0010000  0  8G18G 2G19G27G28G29G11G16
  21144720.427     2217551.317 8   1743304.118 6        28.000          17.000
  23964019.271    -4204373.021 5  -3204733.440 5        11.000           8.250
  21044591.817    -3343275.269 7     28849.246 6        20.250          18.000
  22086751.302   -13233727.568 7 -10232989.732 6        20.000          14.000
  24033952.021    -2517277.532 5  -1908844.464 5        11.750           9.500
  23588049.052    13854333.260 6  10763153.543 5        12.500           9.000
  24308810.708    -2711716.190 5  -2054175.140 5        11.000           7.250
  24360825.005    -1521485.034 5  -1119270.665 5         7.750           5.500
 93  3 31 19 45 30.0010000  0  8G18G 2G19G27G28G29G11G16
  21149997.349     2245286.325 7   1764915.783 6        27.750          17.000
  23956135.653    -4245770.462 5  -3236991.114 5        11.000           8.500
  21045106.013    -3340605.359 7     30929.705 6        20.000          18.000
  22081767.849   -13259904.054 7 -10253386.960 6        20.250          14.000
  24037552.841    -2498347.582 5  -1894093.867 5        11.500           9.500
  23597435.208    13903679.879 6  10801605.356 5        12.500           8.750
  24302688.138    -2743865.210 5  -2079226.240 5        11.000           7.500
  24356799.810    -1542594.528 5  -1135719.676 5         7.750           5.500
 93  3 31 19 45 45.0010000  0  8G18G 2G19G27G28G29G11G16
  21155293.817     2273133.410 7   1786614.778 6        27.750          17.000
  23948265.052    -4287118.663 5  -3269210.401 5        10.750           8.500
  21045624.638    -3337869.991 7     33061.161 6        20.500          18.000
  22076797.325   -13286047.084 7 -10273758.124 6        20.250          14.000
  24041180.591    -2479287.111 5  -1879241.571 5        11.750           9.500
  23606836.989    13953085.190 6  10840102.903 5        12.500           8.750
  24296585.888    -2775929.557 5  -2104211.363 5        11.250           7.500
  24352815.403    -1563588.806 5  -1152078.884 5         7.750           5.500
 93  3 31 19 46  0.0010000  0  8G18G 2G19G27G28G29G11G16
  21160614.528     2301094.646 7   1808402.726 6        27.750          17.000
  23940409.950    -4328414.747 5  -3301389.089 5        10.750           8.500
  21046166.403    -3335069.161 6     35243.627 6        19.250          18.000
  22071823.981   -13312155.392 7 -10294102.230 6        20.000          14.000
  24044833.263    -2460096.468 5  -1864287.835 5        11.750           9.500
  23616251.911    14002551.329 6  10878647.853 5        12.500           8.750
  24290498.919    -2807907.325 5  -2129129.009 5        10.750           7.500
  24348837.380    -1584462.877 5  -1168344.426 5         7.750           5.500
 93  3 31 19 46 15.0010000  0  8G18G 2G19G27G28G29G11G16
  21165958.333     2329165.799 7   1830276.320 6        27.500          17.000
  23932559.653    -4369661.827 5  -3333529.599 5        11.250           8.500
  21046698.724    -3332210.978 7     37470.788 6        20.500          17.750
  22066867.536   -13338231.114 7 -10314420.944 6        20.250          14.250
  24048506.958    -2440782.525 5  -1849238.021 5        11.500           9.250
  23625676.278    14052075.454 6  10917237.955 5        12.500           8.750
  24284435.911    -2839801.611 5  -2153981.619 5        10.500           7.500
  24344885.583    -1605221.401 5  -1184519.962 5         8.000           5.500
 93  3 31 19 46 30.0010000  0  8G18G 2G19G27G28G29G11G16
  21171319.817     2357346.673 7   1852235.415 6        27.500          17.000
  23924723.763    -4410859.391 5  -3365631.514 5        11.250           8.500
  21047256.981    -3329298.381 7     39740.339 6        20.500          17.750
  22061906.997   -13364272.165 7 -10334712.642 6        20.000          14.250
  24052200.724    -2421346.350 5  -1834092.959 5        11.250           9.250
  23635109.130    14101658.202 6  10955873.769 5        12.250           8.500
  24278380.239    -2871611.794 5  -2178768.682 5        10.750           7.500
  24340963.349    -1625863.249 5  -1200604.536 5         8.000           5.500
 93  3 31 19 46 45.0010000  0  8G18G 2G19G27G28G29G11G16
  21176705.013     2385635.269 7   1874278.447 6        27.250          17.000
  23916888.161    -4452012.046 5  -3397698.444 5        11.250           8.750
  21047816.372    -3326335.966 7     42048.722 6        20.750          17.750
  22056960.521   -13390279.953 7 -10354978.420 6        20.250          14.250
  24055929.794    -2401789.505 5  -1818853.877 5        11.500           9.250
  23644559.153    14151297.314 6  10994553.483 5        12.500           8.500
  24272347.552    -2903339.155 5  -2203491.225 5        10.500           7.500
  24337058.247    -1646389.581 5  -1216599.138 5         8.000           5.750
 93  3 31 19 47  0.0010000  0  8G18G 2G19G27G28G29G11G16
  21182106.325     2414035.080 7   1896408.141 6        27.250          17.000
  23909068.481    -4493113.530 5  -3429725.503 5        11.000           8.750
  21048406.958    -3323323.623 6     44396.005 6        19.250          18.000
  22052017.849   -13416248.143 7 -10375213.347 6        20.000          14.250
  24059673.185    -2382109.419 5  -1803518.757 5        11.250           9.250
  23654009.583    14200997.483 6  11033280.784 5        12.250           8.500
  24266319.802    -2934979.553 5  -2228145.993 5        10.500           7.250
  24333171.067    -1666795.931 5  -1232500.227 5         8.250           5.750
 93  3 31 19 47 15.0010000  0  8G18G 2G19G27G28G29G11G16
  21187532.763     2442547.266 7   1918625.399 6        27.250          17.000
  23901261.560    -4534160.711 5  -3461710.249 5        11.500           8.750
  21048972.481    -3320264.805 7     46779.501 6        20.750          17.750
  22047084.013   -13442175.054 7 -10395416.107 6        20.000          14.250
  24063443.411    -2362302.695 5  -1788084.965 5        11.500           9.250
  23663483.708    14250761.782 6  11072058.059 5        12.000           8.250
  24260314.028    -2966530.765 5  -2252731.269 5        10.750           7.500
  24329306.231    -1687077.559 5  -1248304.130 5         8.000           5.750
 93  3 31 19 47 30.0010000  0  8G18G 2G19G27G28G29G11G16
  21192978.966     2471173.870 7   1940931.814 6        27.250          17.000
  23893460.630    -4575156.394 5  -3493654.855 5        11.750           8.750
  21049564.419    -3317162.746 7     49196.695 6        20.750          17.750
  22042160.177   -13468059.649 7 -10415585.892 6        20.000          14.250
  24067235.935    -2342369.843 5  -1772552.892 5        11.500           9.250
  23672966.356    14300589.490 6  11110884.741 5        12.250           8.250
  24254326.638    -2997992.885 5  -2277247.133 5        10.750           7.500
  24325476.888    -1707231.152 5  -1264008.275 5         8.250           5.500
 93  3 31 19 47 45.0010000  0  8G18G 2G19G27G28G29G11G16
  21198452.192     2499923.498 7   1963334.090 6        27.250          17.000
  23885664.208    -4616094.860 5  -3525554.891 5        11.500           8.750
  21050163.302    -3314012.731 7     51651.251 6        20.500          17.750
  22037239.888   -13493895.347 7 -10435717.577 6        20.000          14.500
  24071054.208    -2322307.304 5  -1756919.766 5        11.500           9.500
  23682461.200    14350485.588 6  11149764.707 5        12.000           8.250
  24248366.364    -3029360.043 5  -2301688.984 5        11.000           7.250
  24321663.700    -1727249.358 5  -1279606.939 5         8.250           5.750
 93  3 31 19 48  0.0010000  0  8G18G 2G19G27G28G29G11G16
  21203944.606     2528788.925 7   1985826.594 6        27.000          17.000
  23877887.310    -4656982.843 6  -3557415.583 5        12.000           8.750
  21050771.044    -3310821.195 7     54138.170 6        20.500          17.750
  22032336.606   -13519688.834 7 -10455816.377 6        20.000          14.500
  24074898.638    -2302120.408 5  -1741189.734 5        11.000           9.250
  23691972.958    14400442.826 6  11188692.318 5        12.000           8.000
  24242411.146    -3060638.578 5  -2326061.790 5        11.000           7.250
  24317880.044    -1747136.796 5  -1295103.694 5         8.500           5.750
 93  3 31 19 48 15.0010000  0  8G18G 2G19G27G28G29G11G16
  21209459.747     2557772.711 7   2008411.334 6        27.250          17.000
  23870114.919    -4697818.731 6  -3589235.672 5        12.000           8.750
  21051386.138    -3307585.877 7     56659.196 6        20.500          18.000
  22027432.411   -13545437.102 7 -10475879.936 6        20.000          14.500
  24078760.450    -2281805.263 5  -1725359.767 5        11.000           9.250
  23701486.521    14450461.163 6  11227667.533 5        12.000           8.250
  24236476.396    -3091824.724 5  -2350362.601 5        10.750           7.250
  24314122.536    -1766890.940 5  -1310496.573 5         8.500           5.750
 93  3 31 19 48 30.0010000  0  8G18G 2G19G27G28G29G11G16
  21214996.997     2586873.484 7   2031087.230 6        27.250          17.000
  23862352.036    -4738606.092 6  -3621017.966 5        12.250           8.750
  21052027.419    -3304304.964 6     59215.753 6        18.750          18.000
  22022543.810   -13571142.283 7 -10495909.920 6        20.250          14.500
  24082651.161    -2261358.779 5  -1709427.457 5        11.500           9.250
  23711013.716    14500537.387 6  11266687.857 5        12.000           8.000
  24230553.192    -3122918.767 5  -2374591.653 5        11.000           7.250
  24310388.474    -1786511.049 5  -1325785.018 5         8.500           5.750
 93  3 31 19 48 45.0010000  0  8G18G 2G19G27G28G29G11G16
  21220557.161     2616089.465 7   2053852.900 6        27.000          17.000
  23854599.997    -4779348.314 6  -3652765.068 5        12.250           9.000
  21052642.177    -3300977.990 7     61808.198 6        20.500          17.750
  22017658.958   -13596808.735 7 -10515909.729 6        20.250          14.750
  24086571.442    -2240779.972 5  -1693392.039 5        11.500           9.250
  23720558.544    14550667.984 6  11305750.556 5        12.000           8.000
  24224658.778    -3153922.507 5  -2398750.326 5        10.750           7.000
  24306678.528    -1805998.211 5  -1340969.860 5         8.250           5.750
 93  3 31 19 49  0.0010000  0  8G18G 2G19G27G28G29G11G16
  21226138.521     2645423.371 7   2076710.462 6        27.000          17.000
  23846863.638    -4820040.075 6  -3684472.859 5        12.750           9.000
  21053300.466    -3297600.094 6     64440.322 6        18.750          18.000
  22012782.271   -13622435.241 7 -10535878.412 6        20.250          14.750
  24090509.302    -2220065.926 5  -1677251.246 5        11.500           9.000
  23730104.989    14600855.810 6  11344857.841 5        12.000           8.250
  24218781.622    -3184832.917 5  -2422836.278 5        11.500           7.000
  24303002.958    -1825350.085 5  -1356049.289 5         8.000           5.750
 93  3 31 19 49 15.0010000  0  8G18G 2G19G27G28G29G11G16
  21231742.013     2674875.993 7   2099660.526 6        27.000          17.250
  23839118.614    -4860676.939 6  -3716137.870 5        12.250           9.000
  21053937.216    -3294168.746 7     67114.102 6        20.500          17.750
  22007913.521   -13648019.578 7 -10555814.233 6        20.250          14.750
  24094476.091    -2199214.007 5  -1661003.013 5        11.500           9.250
  23739666.622    14651102.654 5  11384011.106 5        11.750           8.250
  24212910.255    -3215647.532 5  -2446847.588 5        11.000           7.000
  24299340.942    -1844565.097 5  -1371022.069 5         8.000           5.750
 93  3 31 19 49 30.0010000  0  8G18G 2G19G27G28G29G11G16
  21237370.755     2704444.110 7   2122700.589 6        27.000          17.250
  23831402.817    -4901263.155 6  -3747763.421 5        12.750           9.000
  21054616.091    -3290686.032 6     69827.905 6        19.000          17.750
  22003052.841   -13673565.204 7 -10575719.892 6        20.500          14.750
  24098470.200    -2178228.263 5  -1644650.502 5        11.500           9.250
  23749233.880    14701401.920 5  11423205.229 5        11.500           8.000
  24207066.216    -3246368.695 5  -2470786.077 5        11.000           7.000
  24295711.380    -1863645.460 5  -1385889.920 5         8.000           6.000
 93  3 31 19 49 45.0010000  0  8G18G 2G19G27G28G29G11G16
  21243019.185     2734128.076 7   2145830.918 6        27.000          17.000
  23823691.794    -4941795.567 6  -3779347.034 5        12.500           9.000
  21055276.278    -3287147.274 7     72585.375 6        20.500          17.750
  21998196.567   -13699070.064 7 -10595593.780 6        20.500          14.750
  24102488.122    -2157108.936 5  -1628193.919 5        11.500           9.250
  23758821.653    14751752.293 5  11462439.176 5        11.250           8.000
  24201235.388    -3276994.179 5  -2494650.007 5        11.250           7.000
  24292109.067    -1882592.857 5  -1400654.185 5         8.000           6.000
 93  3 31 19 50  0.0010000  0  8G18G 2G19G27G28G29G11G16
  21248687.778     2763922.309 7   2169047.172 6        27.000          17.000
  23815976.294    -4982273.595 6  -3810888.275 5        12.500           9.000
  21055963.403    -3283551.932 7     75386.940 6        20.250          18.000
  21993350.435   -13724536.630 7 -10615437.835 6        20.500          14.750
  24106530.708    -2135855.715 5  -1611632.976 5        11.250           9.000
  23768410.677    14802152.764 5  11501712.148 5        11.250           8.250
  24195429.028    -3307524.852 6  -2518440.064 5        12.000           7.000
  24288524.935    -1901409.819 5  -1415316.801 5         8.000           5.750
 93  3 31 19 50 15.0010000  0  8G18G 2G19G27G28G29G11G16
  21254376.950     2793826.847 7   2192349.374 6        27.000          17.250
  23808292.231    -5022694.206 6  -3842384.774 5        12.500           9.000
  21056653.872    -3279896.873 7     78235.038 6        20.500          17.750
  21988514.036   -13749964.730 7 -10635251.910 6        20.500          14.750
  24110605.146    -2114465.838 5  -1594965.554 5        11.500           9.000
  23778010.864    14852606.555 5  11541026.670 5        11.000           8.250
  24189634.333    -3337957.863 5  -2542154.034 5        11.750           7.000
  24284971.786    -1920093.206 5  -1429875.320 5         8.000           5.750
 93  3 31 19 50 30.0010000  0  8G18G 2G19G27G28G29G11G16
  21260090.841     2823847.746 7   2215742.251 6        27.000          17.250
  23800615.122    -5063051.163 6  -3873831.679 5        12.750           9.000
  21057365.419    -3276178.248 7     81132.664 6        20.250          17.750
  21983679.997   -13775352.535 7 -10655034.592 6        20.250          15.000
  24114705.841    -2092935.202 5  -1578188.454 5        11.500           9.000
  23787621.747    14903120.292 5  11580387.909 5        10.750           8.250
  24183866.005    -3368288.989 6  -2565788.597 5        12.000           7.000
  24281444.552    -1938641.903 5  -1444328.902 5         8.000           5.750
 93  3 31 19 50 45.0010000  0  8G18G 2G19G27G28G29G11G16
  21265824.974     2853981.177 7   2239222.806 6        27.000          17.250
  23792944.739    -5103345.335 6  -3905229.652 5        13.000           9.250
  21058081.427    -3272400.906 7     84076.045 6        20.250          17.750
  21978858.599   -13800703.640 7 -10674788.671 6        20.500          15.000
  24118824.317    -2071268.732 5  -1561305.500 5        11.500           9.000
  23797250.739    14953692.815 5  11619794.944 5        10.750           8.250
  24178110.247    -3398522.616 5  -2589347.195 5        11.750           7.000
  24277937.364    -1957063.339 5  -1458683.321 5         8.250           5.750
 93  3 31 19 51  0.0010000  0  8G18G 2G19G27G28G29G11G16
  21271580.364     2884225.522 7   2262789.791 6        27.250          17.250
  23785290.817    -5143574.456 6  -3936576.935 5        13.000           9.250
  21058827.021    -3268567.921 6     87062.774 6        18.750          17.750
  21974040.817   -13826016.184 7 -10694512.711 6        20.750          15.250
  24122970.974    -2049471.021 5  -1544320.280 5        11.500           9.000
  23806878.849    15004324.415 5  11659248.022 5        10.500           8.250
  24172377.263    -3428659.437 6  -2612830.357 5        12.250           7.000
  24274454.372    -1975360.414 5  -1472940.822 5         8.000           5.750
 93  3 31 19 51 15.0010000  0  8G18G 2G19G27G28G29G11G16
  21277358.036     2914581.344 7   2286443.648 6        27.250          17.250
  23777642.521    -5183735.044 6  -3967870.811 5        13.000           9.250
  21059550.364    -3264679.265 7     90092.899 6        20.250          17.750
  21969237.364   -13851285.708 7 -10714203.222 6        20.750          15.250
  24127148.083    -2027540.608 5  -1527231.664 5        11.750           9.000
  23816527.896    15055016.599 5  11698748.306 5        10.500           8.000
  24166660.317    -3458697.490 6  -2636236.569 5        12.250           7.000
  24270997.575    -1993532.054 5  -1487100.593 5         8.000           5.750
 93  3 31 19 51 30.0010000  0  8G18G 2G19G27G28G29G11G16
  21283156.896     2945046.210 7   2310182.477 6        27.250          17.250
  23770017.130    -5223832.375 6  -3999115.408 5        12.750           9.250
  21060302.067    -3260739.244 7     93163.049 6        20.250          17.750
  21964431.974   -13876513.924 7 -10733861.548 6        20.750          15.250
  24131346.208    -2005479.500 5  -1510041.200 5        11.500           9.000
  23826187.825    15105764.274 5  11738291.824 5        10.500           8.000
  24160964.036    -3488639.559 6  -2659567.973 5        12.250           7.000
  24267557.614    -2011578.747 5  -1501162.987 5         8.000           5.750
 93  3 31 19 51 45.0010000  0  8G18G 2G19G27G28G29G11G16
  21288971.856     2975622.677 7   2334008.264 6        27.250          17.250
  23762396.802    -5263867.002 6  -4030311.138 5        12.750           9.250
  21061060.950    -3256747.630 7     96273.400 6        20.250          17.750
  21959639.075   -13901700.807 7 -10753487.664 6        21.000          15.250
  24135565.114    -1983286.099 5  -1492747.655 5        11.750           9.000
  23835848.903    15156570.125 5  11777880.678 5        10.250           8.000
  24155287.489    -3518484.618 6  -2682823.799 5        12.000           7.000
  24264150.263    -2029500.434 5  -1515127.989 5         8.250           5.750
 93  3 31 19 52  0.0010000  0  8G18G 2G19G27G28G29G11G16
  21294813.935     3006306.446 7   2357917.663 6        27.250          17.250
  23754791.239    -5303844.304 6  -4061462.198 5        12.750           9.250
  21061827.786    -3252709.165 7     99420.246 6        20.250          17.750
  21954853.731   -13926853.195 7 -10773086.907 6        21.000          15.250
  24139811.231    -1960963.756 5  -1475353.642 5        11.500           9.000
  23845533.872    15207432.815 5  11817513.822 5        10.000           8.000
  24149621.278    -3548237.901 6  -2706008.110 5        12.000           7.000
  24260761.106    -2047302.614 5  -1528999.852 5         8.500           5.750
 93  3 31 19 52 15.0010000  0  8G18G 2G19G27G28G29G11G16
  21300672.731     3037094.290 7   2381908.156 6        27.250          17.250
  23747196.192    -5343768.691 6  -4092572.035 5        13.000           9.250
  21062604.341    -3248629.138 7    102599.483 6        20.250          17.750
  21950070.458   -13951976.248 7 -10792663.280 6        21.000          15.250
  24144085.981    -1938517.070 5  -1457862.719 5        11.750           8.750
  23855225.817    15258350.085 5  11857189.496 5        10.000           8.000
  24143966.911    -3577903.260 5  -2729123.894 5        11.750           7.000
  24257397.606    -2064987.334 5  -1542780.189 5         8.750           5.750
 93  3 31 19 52 30.0010000  0  8G18G 2G19G27G28G29G11G16
  21306550.919     3067996.343 7   2405987.648 6        27.250          17.250
  23739606.755    -5383631.751 6  -4123634.075 5        12.750           9.250
  21063395.825    -3244502.041 7    105815.401 6        20.000          17.750
  21945300.372   -13977061.134 7 -10812209.921 6        21.250          15.250
  24148380.622    -1915939.145 5  -1440269.552 5        11.250           8.750
  23864928.903    15309330.125 5  11896914.074 5         9.750           8.250
  24138350.708    -3607473.375 6  -2752165.466 5        12.000           7.000
  24254055.763    -2082546.813 5  -1556462.969 5         9.000           5.750
 93  3 31 19 52 45.0010000  0  8G18G 2G19G27G28G29G11G16
  21312453.591     3099013.431 7   2430156.776 6        27.250          17.250
  23732035.286    -5423434.131 6  -4154648.826 5        13.250           9.250
  21064185.349    -3240325.960 7    109069.492 6        20.500          17.750
  21940532.349   -14002101.205 7 -10831721.634 6        21.250          15.250
  24152704.739    -1893229.111 5  -1422573.433 5        11.000           9.000
  23874632.763    15360372.450 5  11936687.186 5         9.500           8.000
  24132737.794    -3636946.726 6  -2775131.632 5        12.000           7.000
  24250745.864    -2099979.941 5  -1570047.274 5         9.250           5.750
 93  3 31 19 53  0.0010000  0  8G18G 2G19G27G28G29G11G16
  21318377.630     3130138.692 7   2454410.198 6        27.250          17.250
  23724469.856    -5463183.649 6  -4185622.398 5        13.250           9.250
  21064990.372    -3236106.331 7    112357.507 6        20.250          17.750
  21935777.646   -14027098.602 7 -10851200.102 6        21.250          15.250
  24157049.247    -1870393.514 5  -1404779.471 5        11.250           8.750
  23884358.685    15411470.423 5  11976503.654 5         9.750           8.000
  24127148.458    -3666327.576 6  -2798025.730 5        12.000           7.000
  24247444.380    -2117289.317 5  -1583535.146 5         9.250           6.000
 93  3 31 19 53 15.0010000  0  8G18G 2G19G27G28G29G11G16
  21324320.364     3161372.339 7   2478748.069 6        27.250          17.250
  23716912.911    -5502881.711 6  -4216555.863 5        13.000           9.250
  21065797.849    -3231839.292 7    115682.475 6        20.250          17.750
  21931026.817   -14052052.442 7 -10870644.627 6        21.250          15.250
  24161420.724    -1847429.156 5  -1386885.185 5        11.250           9.000
  23894093.802    15462623.280 5  12016362.894 5         9.750           8.250
  24121571.450    -3695614.031 5  -2820846.268 5        11.750           6.750
  24244178.388    -2134469.844 5  -1596922.618 5         9.250           6.000
 93  3 31 19 53 30.0010000  0  8G18G 2G19G27G28G29G11G16
  21330283.771     3192715.183 7   2503171.033 6        27.000          17.250
  23709369.341    -5542533.264 6  -4247453.105 5        13.500           9.500
  21066624.200    -3227523.573 6    119045.369 6        19.750          17.750
  21926287.833   -14076965.633 7 -10890057.476 6        21.250          15.250
  24165814.716    -1824334.446 5  -1368889.315 5        11.500           8.750
  23903835.911    15513830.496 5  12056264.496 5         9.500           8.000
  24116018.450    -3724806.307 6  -2843593.439 5        12.000           6.750
  24240934.614    -2151519.648 5  -1610208.221 5         9.250           6.000
 93  3 31 19 53 45.0010000  0  8G18G 2G19G27G28G29G11G16
  21336269.497     3224169.709 7   2527681.024 6        27.250          17.250
  23701835.763    -5582137.780 6  -4278313.680 5        13.250           9.500
  21067453.005    -3223156.432 7    122448.330 6        20.250          17.750
  21921552.458   -14101838.454 7 -10909438.873 6        21.250          15.250
  24170234.802    -1801110.900 5  -1350793.053 5        11.500           9.000
  23913595.271    15565093.470 5  12096209.534 5         9.500           8.000
  24110486.919    -3753902.462 6  -2866265.693 5        12.250           7.000
  24237712.091    -2168438.551 5  -1623391.847 5         9.500           6.000
 93  3 31 19 54  0.0010000  0  8G18G 2G19G27G28G29G11G16
  21342277.060     3255734.392 7   2552276.855 6        27.250          17.250
  23694303.669    -5621694.465 6  -4309136.988 5        13.250           9.500
  21068299.810    -3218735.064 6    125893.556 6        19.750          17.750
  21916827.442   -14126672.772 7 -10928790.265 6        21.250          15.250
  24174681.200    -1777761.145 5  -1332598.458 5        11.500           8.750
  23923361.552    15616414.366 5  12136199.719 5         9.750           8.000
  24104963.966    -3782901.233 6  -2888862.064 5        12.000           7.000
  24234518.966    -2185228.576 5  -1636475.019 5         9.500           6.000
 93  3 31 19 54 15.0010000  0  8G18G 2G19G27G28G29G11G16
  21348306.302     3287416.233 7   2576963.973 6        27.000          17.000
  23686790.349    -5661193.542 6  -4339915.412 5        13.250           9.500
  21069146.200    -3214249.734 7    129388.614 6        20.250          17.750
  21912112.255   -14151460.642 7 -10948105.464 6        21.250          15.250
  24179150.239    -1754279.945 5  -1314301.428 5        11.750           9.000
  23933141.896    15667799.217 5  12176239.738 5         9.750           8.000
  24099467.169    -3811795.260 6  -2911376.823 5        12.000           7.000
  24231349.169    -2201882.208 5  -1649451.921 5         9.750           6.250
 93  3 31 19 54 30.0010000  0  8G18G 2G19G27G28G29G11G16
  21354357.927     3319210.838 7   2601738.959 6        27.000          17.000
  23679278.606    -5700639.875 6  -4370652.737 5        13.250           9.500
  21070016.849    -3209705.225 6    132929.785 6        19.750          17.750
  21907400.685   -14176203.353 7 -10967385.471 6        21.500          15.500
  24183637.099    -1730672.382 5  -1295905.940 5        11.500           9.000
  23942934.200    15719241.336 5  12216324.371 5         9.750           7.750
  24093986.747    -3840588.472 6  -2933813.031 5        12.250           7.250
  24228199.724    -2218404.151 5  -1662326.211 5         9.750           6.250
 93  3 31 19 54 45.0010000  0  8G18G 2G19G27G28G29G11G16
  21360430.380     3351121.987 7   2626604.760 6        27.000          17.000
  23671789.958    -5740031.674 6  -4401347.569 5        13.500           9.500
  21070888.981    -3205098.323 7    136519.573 6        20.250          17.750
  21902707.528   -14200895.280 7 -10986625.909 6        21.750          15.250
  24188153.771    -1706934.093 5  -1277408.577 5        11.500           8.750
  23952727.896    15770741.722 5  12256454.404 5        10.000           8.000
  24088530.606    -3869276.788 6  -2956167.495 5        12.000           7.250
  24225085.739    -2234791.800 5  -1675095.857 5        10.000           6.250
 93  3 31 19 55  0.0010000  0  8G18G 2G19G27G28G29G11G16
  21366524.880     3383148.130 7   2651560.158 6        27.000          17.000
  23664300.489    -5779371.029 6  -4432001.545 5        13.250           9.500
  21071779.896    -3200430.115 6    140157.143 6        19.500          17.750
  21898013.239   -14225538.758 7 -11005828.594 6        22.000          15.500
  24192694.427    -1683066.660 5  -1258810.590 5        11.000           8.750
  23962538.356    15822298.790 5  12296628.608 5        10.250           8.000
  24083089.513    -3897860.653 6  -2978440.567 5        12.000           7.250
  24221992.474    -2251047.323 5  -1687762.546 5         9.750           6.250
 93  3 31 19 55 15.0010000  0  8G18G 2G19G27G28G29G11G16
  21372642.903     3415288.107 7   2676604.265 6        27.000          17.000
  23656822.317    -5818656.397 6  -4462613.436 5        13.250           9.500
  21072676.677    -3195702.770 7    143840.784 6        20.000          17.750
  21893333.638   -14250140.156 7 -11024998.490 6        22.250          15.500
  24197264.192    -1659070.083 5  -1240111.970 5        11.000           8.750
  23972359.614    15873910.391 5  12336845.311 5        10.250           8.000
  24077670.372    -3926341.542 6  -3000633.397 5        12.250           7.500
  24218924.888    -2267172.810 5  -1700327.894 5         9.750           6.250
 93  3 31 19 55 30.0010000  0  8G18G 2G19G27G28G29G11G16
  21378778.567     3447546.283 7   2701740.476 6        26.750          17.000
  23649361.864    -5857881.083 6  -4493178.053 5        13.250           9.500
  21073591.255    -3190910.796 6    147574.789 6        19.500          17.750
  21888660.028   -14274696.779 7 -11044133.499 6        22.250          15.500
  24201857.458    -1634940.472 5  -1221309.700 5        11.250           8.750
  23982193.146    15925581.862 5  12377108.655 5        10.250           8.000
  24072270.692    -3954715.016 6  -3022742.544 5        12.500           7.500
  24215879.458    -2283163.903 5  -1712788.535 5        10.000           6.250
 93  3 31 19 55 45.0010000  0  8G18G 2G19G27G28G29G11G16
  21384938.646     3479923.454 7   2726969.406 6        26.750          17.000
  23641906.466    -5897042.069 6  -4523693.029 5        13.250           9.500
  21074509.028    -3186057.210 7    151356.802 6        20.000          17.750
  21883996.646   -14299208.044 7 -11063233.161 6        22.250          15.250
  24206470.739    -1610682.670 5  -1202407.524 5        10.750           8.500
  23992035.036    15977312.857 5  12417418.388 5        10.000           8.000
  24066891.153    -3982980.474 6  -3044767.512 5        12.750           7.500
  24212863.825    -2299022.396 5  -1725145.852 5        10.000           6.250
 93  3 31 19 56  0.0010000  0  8G18G 2G19G27G28G29G11G16
  21391123.575     3512413.685 7   2752286.435 6        26.750          17.000
  23634472.450    -5936142.405 6  -4554160.753 5        13.500           9.750
  21075451.661    -3181147.506 6    155182.547 6        19.500          17.750
  21879341.810   -14323679.377 7 -11082301.713 6        22.250          15.250
  24211110.544    -1586302.947 5  -1183410.362 5        10.500           8.500
  24001893.427    16029098.486 5  12457770.687 5        10.250           8.000
  24061530.817    -4011142.631 6  -3066711.988 5        12.750           7.500
  24209869.731    -2314753.720 5  -1737404.067 5         9.750           6.250
 93  3 31 19 56 15.0010000  0  8G18G 2G19G27G28G29G11G16
  21397328.544     3545021.778 7   2777695.308 6        26.750          17.000
  23627042.685    -5975175.622 6  -4584576.172 5        13.250           9.750
  21076392.349    -3176177.302 7    159055.432 6        20.000          17.750
  21874691.130   -14348104.445 7 -11101334.210 6        22.500          15.250
  24215770.153    -1561792.885 5  -1164311.624 5        10.500           8.500
  24011759.567    16080944.958 5  12498170.390 5        10.250           8.000
  24056194.044    -4039196.312 6  -3088571.933 5        12.500           7.750
  24206901.497    -2330351.863 5  -1749558.502 5         9.750           6.250
 93  3 31 19 56 30.0010000  0  8G18G 2G19G27G28G29G11G16
  21403554.974     3577740.610 7   2803190.469 6        26.750          16.750
  23619623.091    -6014148.312 6  -4614944.430 5        13.250           9.500
  21077353.755    -3171156.930 6    162967.411 6        19.750          17.750
  21870052.505   -14372489.141 7 -11120335.249 6        22.500          15.250
  24220458.364    -1537158.517 5  -1145116.025 5        11.000           8.250
  24021635.466    16132842.335 5  12538609.761 5        10.250           7.750
  24050875.192    -4067148.324 6  -3110352.664 5        12.250           7.750
  24203956.247    -2345821.143 5  -1761612.526 5         9.750           6.250
 93  3 31 19 56 45.0010000  0  8G18G 2G19G27G28G29G11G16
  21409800.349     3610573.181 7   2828774.268 6        26.250          16.750
  23612217.427    -6053057.163 6  -4645262.945 5        13.500           9.500
  21078311.958    -3166084.465 7    166919.982 6        20.250          17.750
  21865415.981   -14396829.641 7 -11139301.849 6        22.500          15.250
  24225175.958    -1512395.259 5  -1125819.993 5        11.250           8.250
  24031513.591    16184794.412 5  12579091.756 5        10.250           7.750
  24045579.661    -4094993.491 6  -3132050.128 5        12.250           8.000
  24201042.021    -2361155.648 5  -1773561.539 5         9.750           6.500
 93  3 31 19 57  0.0010000  0  8G18G 2G19G27G28G29G11G16
  21416069.677     3643516.439 7   2854444.309 6        26.250          16.750
  23604830.052    -6091901.240 6  -4675530.990 5        13.500           9.750
  21079292.349    -3160959.587 6    170913.392 6        19.500          17.750
  21860795.552   -14421129.448 7 -11158236.741 6        22.500          15.250
  24229911.138    -1487505.772 5  -1106425.608 5        11.250           8.000
  24041419.239    16236802.731 5  12619617.588 5        10.250           7.750
  24040299.185    -4122732.088 6  -3153664.563 5        12.250           7.750
  24198149.567    -2376354.830 5  -1785405.092 5        10.000           6.250
 93  3 31 19 57 15.0010000  0  8G18G 2G19G27G28G29G11G16
  21422359.708     3676568.228 7   2880198.921 6        26.250          16.750
  23597449.888    -6130680.921 6  -4705748.845 5        13.500           9.500
  21080275.083    -3155780.320 7    174949.182 6        20.000          17.750
  21856179.771   -14445390.510 7 -11177141.443 6        22.500          15.250
  24234673.208    -1462492.797 5  -1086934.998 5        11.500           8.000
  24051325.481    16288867.428 5  12660187.340 5        10.250           7.500
  24035032.442    -4150364.315 6  -3175196.103 5        12.250           8.000
  24195285.763    -2391419.709 5  -1797144.016 5        10.000           6.500
 93  3 31 19 57 30.0010000  0  8G18G 2G19G27G28G29G11G16
  21428671.614     3709725.362 7   2906035.615 6        26.250          16.750
  23590079.935    -6169398.309 6  -4735918.171 5        13.250           9.750
  21081270.333    -3150546.733 7    179027.304 6        20.000          17.750
  21851568.146   -14469613.404 7 -11196016.398 6        22.500          15.250
  24239451.028    -1437359.151 5  -1067350.346 5        11.250           8.000
  24061242.435    16340985.322 5  12700798.537 5        10.000           7.500
  24029801.653    -4177891.312 6  -3196645.644 5        12.500           8.000
  24192443.911    -2406350.676 5  -1808778.575 5         9.750           6.500
 93  3 31 19 57 45.0010000  0  8G18G 2G19G27G28G29G11G16
  21434999.052     3742989.205 7   2931955.464 6        26.000          16.750
  23582723.138    -6208055.635 6  -4766040.696 5        13.500           9.750
  21082276.146    -3145259.159 7    183147.484 6        20.250          17.750
  21846964.114   -14493795.816 7 -11214859.815 6        22.250          15.250
  24244261.099    -1412106.140 5  -1047672.698 5        11.250           8.000
  24071168.981    16393156.537 5  12741451.294 5        10.000           7.500
  24024587.458    -4205311.782 6  -3218012.190 5        12.250           8.000
  24189625.177    -2421146.778 5  -1820308.042 5         9.750           6.500
 93  3 31 19 58  0.0010000  0  8G18G 2G19G27G28G29G11G16
  21441346.450     3776357.060 7   2957956.367 6        26.000          16.750
  23575374.497    -6246655.984 6  -4796118.816 5        13.500           9.750
  21083295.771    -3139918.347 7    187309.157 6        20.250          17.750
  21842373.778   -14517939.790 7 -11233673.282 6        22.750          15.250
  24249090.278    -1386733.203 5  -1027901.600 5        10.750           8.000
  24081110.489    16445377.497 5  12782142.807 5         9.750           7.500
  24019382.091    -4232627.434 6  -3239297.051 5        12.250           8.250
  24186834.458    -2435809.653 5  -1831733.701 5         9.500           6.500
 93  3 31 19 58 15.0010000  0  8G18G 2G19G27G28G29G11G16
  21447717.880     3809826.139 7   2984036.141 6        25.750          16.750
  23568043.513    -6285200.420 6  -4826153.378 5        13.750           9.750
  21084317.427    -3134525.794 7    191511.143 6        20.500          17.750
  21837784.521   -14542046.210 7 -11252457.479 6        22.750          15.250
  24253935.825    -1361236.749 5  -1008034.255 5        10.500           8.000
  24091051.286    16497647.448 5  12822872.491 5         9.750           7.250
  24014204.622    -4259839.522 6  -3260501.208 5        12.250           8.250
  24184067.286    -2450341.390 5  -1843057.178 5         9.500           6.500
 93  3 31 19 58 30.0010000  0  8G18G 2G19G27G28G29G11G16
  21454107.005     3843400.013 7   3010197.569 6        26.000          16.750
  23560718.474    -6323682.446 6  -4856139.298 5        13.750           9.750
  21085366.888    -3129076.625 6    195757.255 6        19.250          17.750
  21833206.622   -14566109.367 7 -11271207.967 6        22.500          15.250
  24258818.997    -1335609.456 5   -988064.952 5        11.000           8.000
  24101010.630    16549969.012 5  12863642.397 5        10.000           7.250
  24009045.724    -4286942.323 6  -3281620.217 5        12.250           8.250
  24181328.333    -2464735.628 5  -1854273.499 5         9.500           6.500
 93  3 31 19 58 45.0010000  0  8G18G 2G19G27G28G29G11G16
  21460515.411     3877072.428 7   3036435.794 6        25.750          16.500
  23553406.724    -6362109.827 6  -4886082.641 5        14.000           9.750
  21086401.075    -3123574.869 7    200044.331 6        20.500          17.750
  21828635.200   -14590135.117 7 -11289929.305 6        22.500          15.000
  24263718.763    -1309857.934 5   -967998.856 5        11.000           8.000
  24110974.544    16602336.282 5  12904447.929 5         9.750           7.250
  24003907.130    -4313941.512 6  -3302658.483 5        12.000           8.250
  24178613.638    -2478998.545 5  -1865387.515 5         9.500           6.500
 93  3 31 19 59  0.0010000  0  8G18G 2G19G27G28G29G11G16
  21466940.231     3910845.975 7   3062752.810 6        25.750          16.500
  23546105.630    -6400480.494 6  -4915981.792 5        14.000           9.750
  21087464.005    -3118015.376 7    204376.407 6        20.250          17.750
  21824071.919   -14614119.336 7 -11308618.287 6        22.750          15.000
  24268640.442    -1283979.591 5   -947833.941 5        11.250           8.000
  24120955.606    16654753.309 5  12945292.213 5         9.750           7.000
  23998794.942    -4340833.901 6  -3323613.530 5        12.000           8.250
  24175928.013    -2493128.323 5  -1876397.757 5         9.750           6.750
 93  3 31 19 59 15.0010000  0  8G18G 2G19G27G28G29G11G16
  21473387.185     3944726.369 7   3089153.083 6        25.250          16.500
  23538814.724    -6438792.387 6  -4945835.147 5        14.000          10.000
  21088531.536    -3112391.597 7    208758.563 6        20.500          18.000
  21819514.716   -14638056.135 7 -11327270.317 6        22.750          15.250
  24273592.755    -1257967.604 5   -927564.877 5        11.000           7.750
  24130933.810    16707224.061 5  12986178.370 5         9.750           7.000
  23993703.106    -4367614.439 6  -3344481.421 5        12.250           8.250
  24173265.771    -2507122.764 5  -1887302.556 5         9.500           6.500
 93  3 31 19 59 30.0010000  0  8G18G 2G19G27G28G29G11G16
  21479857.146     3978717.333 7   3115639.521 6        25.500          16.500
  23531535.927    -6477044.835 6  -4975642.177 5        14.250          10.000
  21089627.028    -3106703.728 6    213190.670 6        18.750          17.750
  21814969.841   -14661943.824 7 -11345884.072 6        23.000          15.000
  24278569.263    -1231815.993 5   -907187.010 5        11.500           7.750
  24140933.833    16759747.318 5  13027105.438 5         9.250           6.750
  23988621.833    -4394281.523 6  -3365260.907 5        12.250           8.500
  24170620.888    -2520979.584 5  -1898100.124 5         9.500           6.500
 93  3 31 19 59 45.0010000  0  8G18G 2G19G27G28G29G11G16
  21486347.935     4012821.564 7   3142214.218 6        25.500          16.500
  23524269.927    -6515234.161 6  -5005400.015 5        14.000          10.000
  21090705.622    -3100953.134 7    217671.653 6        20.250          17.750
  21810434.177   -14685780.044 7 -11364457.732 6        23.250          15.000
  24283571.435    -1205520.147 5   -886696.761 5        11.250           7.500
  24150938.466    16812326.576 5  13068076.157 5         9.250           6.750
  23983568.731    -4420832.030 6  -3385949.558 5        12.250           8.500
  24168017.786    -2534694.412 5  -1908787.040 5         9.500           6.750
 93  3 31 20  0  0.0010000  0  8G18G 2G19G27G28G29G11G16
  21492858.208     4047039.575 7   3168877.575 6        25.500          16.500
  23517015.177    -6553359.148 6  -5035107.730 5        14.250          10.000
  21091813.052    -3095139.359 7    222201.861 6        20.250          17.750
  21805908.833   -14709565.151 7 -11382991.555 6        23.000          15.000
  24288600.763    -1179078.162 5   -866092.619 5        11.250           7.500
  24160956.849    16864961.893 5  13109090.543 5         9.250           6.750
  23978541.716    -4447265.171 6  -3406546.768 5        12.250           8.500
  24165436.403    -2548266.998 5  -1919363.098 5         9.750           6.750
 93  3 31 20  0 15.0010000  0  8G18G 2G19G27G28G29G11G16
  21499391.552     4081370.118 7   3195628.615 6        25.500          16.500
  23509775.591    -6591416.397 6  -5064762.654 5        14.250          10.000
  21092928.802    -3089263.383 7    226780.542 6        20.250          17.750
  21801391.372   -14733297.364 7 -11401484.166 6        23.250          15.250
  24293664.786    -1152489.782 5   -845374.421 5        10.750           7.500
  24170980.646    16917654.769 5  13150149.784 5         9.000           6.750
  23973534.231    -4473579.960 6  -3427051.744 5        12.500           8.500
  24162882.731    -2561696.928 5  -1929828.017 5         9.750           7.000
 93  3 31 20  0 30.0010000  0  8G18G 2G19G27G28G29G11G16
  21505945.950     4115812.265 7   3222466.626 6        25.250          16.500
  23502541.974    -6629409.096 6  -5094367.285 5        14.250          10.000
  21094062.021    -3083326.435 7    231406.744 6        20.250          17.750
  21796885.731   -14756976.053 7 -11419935.068 6        23.000          15.250
  24298751.942    -1125757.898 5   -824544.399 5        11.500           7.250
  24181013.091    16970405.701 5  13191254.265 5         9.000           6.750
  23968546.349    -4499776.701 6  -3447464.731 5        12.500           8.500
  24160349.481    -2574985.486 5  -1940182.777 5         9.500           7.000
 93  3 31 20  0 45.0010000  0  8G18G 2G19G27G28G29G11G16
  21512521.075     4150371.376 7   3249395.774 6        25.250          16.250
  23495326.099    -6667334.347 6  -5123919.357 5        14.500          10.000
  21095202.099    -3077322.292 7    236085.291 6        20.500          17.750
  21792389.583   -14780595.504 7 -11438339.813 6        23.000          15.250
  24303862.966    -1098881.661 5   -803601.885 5        11.000           7.500
  24191067.442    17023221.875 5  13232409.584 5         9.000           6.750
  23963585.216    -4525849.113 6  -3467780.838 5        12.000           8.500
  24157850.372    -2588125.930 5  -1950422.123 5         9.500           6.750
 93  3 31 20  1  0.0010000  0  8G18G 2G19G27G28G29G11G16
  21519122.466     4185049.245 7   3276417.459 6        25.250          16.250
  23488121.630    -6705193.363 6  -5153419.811 5        14.500          10.000
  21096377.263    -3071254.439 6    240813.484 6        18.750          17.750
  21787906.724   -14804155.793 7 -11456698.460 6        23.250          15.250
  24309006.974    -1071864.463 5   -782549.540 5        11.000           7.500
  24201136.466    17076102.161 5  13273614.854 5         9.000           6.750
  23958646.216    -4551798.035 6  -3488000.732 5        12.250           8.500
  24155376.755    -2601120.654 5  -1960547.907 5         9.500           7.000
 93  3 31 20  1 15.0010000  0  8G18G 2G19G27G28G29G11G16
  21525742.700     4219843.276 7   3303529.656 6        25.000          16.250
  23480926.794    -6742986.793 6  -5182869.168 5        14.750          10.000
  21097526.349    -3065125.423 7    245589.336 6        20.250          17.750
  21783434.739   -14827659.248 7 -11475012.811 6        23.000          15.250
  24314176.356    -1044709.489 5   -761389.835 5        11.250           7.500
  24211209.935    17129043.783 5  13314867.918 5         8.750           6.750
  23953735.388    -4577625.037 6  -3508125.611 5        12.250           8.500
  24152932.661    -2613971.032 5  -1970561.227 5         9.500           6.750
 93  3 31 20  1 30.0010000  0  8G18G 2G19G27G28G29G11G16
  21532382.442     4254750.364 7   3330729.963 6        25.250          16.250
  23473749.333    -6780715.244 6  -5212267.890 5        14.500          10.250
  21098716.622    -3058938.546 6    250410.277 6        18.750          17.750
  21778972.255   -14851109.573 7 -11493285.772 6        23.250          15.250
  24319367.763    -1017421.304 5   -740126.348 5        11.250           7.500
  24221295.474    17182041.623 5  13356164.792 5         8.750           6.500
  23948842.161    -4603334.536 6  -3528158.948 5        12.250           8.500
  24150509.942    -2626682.179 5  -1980466.051 5         9.500           7.000
 93  3 31 20  1 45.0010000  0  8G18G 2G19G27G28G29G11G16
  21539047.536     4289771.052 7   3358018.775 6        25.500          16.250
  23466588.567    -6818371.101 6  -5241610.046 5        14.750          10.250
  21099890.138    -3052692.045 7    255277.673 6        20.250          17.750
  21774520.396   -14874504.215 7 -11511515.334 6        23.250          15.250
  24324585.302     -990001.531 5   -718760.301 5        11.000           7.500
  24231383.255    17235098.259 5  13397507.467 5         8.250           6.500
  23943969.067    -4628923.696 6  -3548098.516 5        12.000           8.500
  24148123.200    -2639249.770 5  -1990259.011 5         9.750           6.750
 93  3 31 20  2  0.0010000  0  8G18G 2G19G27G28G29G11G16
  21545733.606     4324901.299 7   3385392.958 6        25.250          16.250
  23459435.161    -6855959.247 6  -5270899.438 5        14.750          10.250
  21101108.489    -3046387.494 6        -0.19532        18.250           2.406
  21770079.833   -14897848.883 7 -11529705.962 6        23.500          15.250
  24329824.653     -962457.857 5   -697297.712 5        11.250           7.500
  24241496.161    17288208.675 5  13438892.075 5         8.500           6.500
  23939123.958    -4654396.958 5  -3567947.772 5        11.750           8.500
  24145751.177    -2651679.921 5  -1999944.875 5         9.500           6.750
 93  3 31 20  2 15.0010000  0  8G18G 2G19G27G28G29G11G16
  21552438.310     4360139.039 7   3412850.903 6        25.000          16.250
  23452293.989    -6893481.513 6  -5300137.501 5        15.000          10.250
  21102300.864    -3040025.177 7      4957.45622        20.250           2.406
  21765644.575   -14921145.262 7 -11547858.960 6        23.250          15.250
  24335090.825     -934793.024 5   -675740.717 5        11.500           7.250
  24251610.255    17341370.781 5  13480316.943 5         8.250           6.500
  23934293.911    -4679756.644 5  -3587708.517 5        11.750           8.500
  24143413.458    -2663976.750 5  -2009526.859 5         9.250           6.750
 93  3 31 20  2 30.0010000  0  8G18G 2G19G27G28G29G11G16
  21559166.763     4395487.861 7   3440395.405 6        25.500          16.250
  23445160.091    -6930937.486 6  -5329323.895 5        14.750          10.250
  21103523.513    -3033603.240 7      9961.56422        20.000           2.438
  21761223.177   -14944391.132 7 -11565972.602 6        23.000          15.250
  24340377.513     -907006.217 5   -654088.688 5        11.000           7.250
  24261736.427    17394587.130 5  13521784.073 5         8.250           6.500
  23929496.044    -4705001.535 6  -3607379.828 5        12.500           8.500
  24141099.560    -2676138.976 5  -2019003.955 5         9.250           6.750
 93  3 31 20  2 45.0010000  0  8G18G 2G19G27G28G29G11G16
  21565911.505     4430951.216 7   3468029.152 6        25.500          16.250
  23438047.044    -6968325.574 6  -5358457.398 5        15.000          10.250
  21104753.552    -3027118.209 7     15014.83522        20.000           2.438
  21756808.294   -14967588.493 7 -11584048.442 6        23.000          15.250
  24345690.614     -879095.908 5   -632340.419 5        10.750           7.250
  24271879.497    17447856.365 5  13563292.430 5         8.500           6.500
  23924713.630    -4730130.249 6  -3626960.597 5        12.250           8.500
  24138809.450    -2688165.745 5  -2028375.496 5         9.250           6.750
 93  3 31 20  3  0.0010000  0  8G18G 2G19G27G28G29G11G16
  21572682.177     4466529.640 7   3495752.558 6        25.250          16.250
  23430944.927    -7005643.133 6  -5387535.948 5        15.000          10.500
  21106008.028    -3020572.450 7     20115.42322        20.000           2.469
  21752402.856   -14990743.000 7 -11602090.893 6        22.750          15.500
  24351024.950     -851066.748 5   -610499.523 5        11.000           7.250
  24282021.950    17501171.785 5  13604836.763 5         8.500           6.250
  23919953.974    -4755145.861 6  -3646453.246 5        12.250           8.500
  24136550.888    -2700058.567 5  -2037642.665 5         9.250           6.750
 93  3 31 20  3 15.0010000  0  8G18G 2G19G27G28G29G11G16
  21579477.606     4502220.115 7   3523563.279 6        25.500          16.250
  23423860.466    -7042889.998 6  -5416559.413 5        15.500          10.500
  21107259.536    -3013964.439 7     25264.51722        20.250           2.406
  21748004.231   -15013857.204 7 -11620101.939 6        22.750          15.500
  24356381.794     -822921.061 5   -588567.829 5        10.500           7.250
  24292176.630    17554528.585 5  13646413.327 5         8.250           6.250
  23915216.247    -4780050.229 6  -3665859.205 5        12.500           8.500
  24134313.067    -2711819.005 5  -2046806.678 5         9.250           6.750
 93  3 31 20  3 30.0010000  0  8G18G 2G19G27G28G29G11G16
  21586287.263     4538016.591 7   3551456.594 6        25.250          16.250
  23416783.685    -7080071.453 6  -5445531.904 5        15.250          10.500
  21108546.896    -3007297.023 6     30459.90622        18.500           2.438
  21743606.935   -15036937.709 7 -11638086.727 6        22.500          15.500
  24361756.513     -794663.067 5   -566548.651 5        11.000           7.250
  24302331.747    17607922.221 5  13688018.610 5         8.250           6.250
  23910494.630    -4804847.376 6  -3685181.609 5        12.750           8.750
  24132095.989    -2723453.351 5  -2055872.444 5         9.250           6.750
 93  3 31 20  3 45.0010000  0  8G18G 2G19G27G28G29G11G16
  21593123.747     4573922.277 7   3579435.016 6        25.250          16.250
  23409719.614    -7117187.502 6  -5474453.427 5        15.250          10.500
  21109809.130    -3000571.079 7     35700.89622        20.250           2.313
  21739223.567   -15059985.848 7 -11656046.292 6        22.750          15.500
  24367154.856     -766290.048 5   -544439.824 5        10.500           7.250
  24312498.185    17661353.347 5  13729653.095 5         8.250           6.250
  23905794.060    -4829534.834 6  -3704418.543 5        12.750           8.750
  24129905.778    -2734957.724 5  -2064836.923 5         9.000           6.500
 93  3 31 20  4  0.0010000  0  8G18G 2G19G27G28G29G11G16
  21599974.794     4609937.475 7   3607498.769 6        25.000          16.500
  23402670.208    -7154241.050 6  -5503326.257 5        15.250          10.750
  21111102.302    -2993788.233 7     40986.22822        20.250           2.375
  21734843.716   -15083004.513 7 -11673982.894 6        22.750          15.500
  24372576.700     -737802.241 5   -522241.546 5        11.000           7.500
  24322679.278    17714824.639 5  13771318.877 5         8.250           6.250
  23901118.661    -4854111.857 6  -3723569.430 5        12.750           8.750
  24127741.450    -2746331.162 5  -2073699.376 5         9.000           6.500
 93  3 31 20  4 15.0010000  0  8G18G 2G19G27G28G29G11G16
  21606849.731     4646059.917 7   3635646.091 6        25.250          16.250
  23395630.036    -7191236.254 6  -5532153.623 5        15.000          10.500
  21112399.060    -2986951.965 7     46313.18722        20.250           2.344
  21730471.481   -15105993.129 7 -11691896.080 6        23.000          15.750
  24378021.372     -709200.192 5   -499954.250 5        10.500           7.500
  24332863.302    17768335.295 5  13813015.350 5         8.750           6.250
  23896465.489    -4878580.729 6  -3742636.045 5        12.500           8.750
  24125605.364    -2757575.131 5  -2082460.938 5         9.250           6.500
 93  3 31 20  4 30.0010000  0  8G18G 2G19G27G28G29G11G16
  21613743.036     4682288.523 7   3663876.140 6        25.250          16.500
  23388600.247    -7228171.165 6  -5560934.005 5        15.000          10.750
  21113713.450    -2980063.000 7     51681.20722        20.500           2.438
  21726099.513   -15128948.763 7 -11709783.565 6        22.750          15.750
  24383478.247     -680482.936 5   -477577.187 5        10.000           7.500
  24343051.146    17821886.477 5  13854743.378 5         8.750           6.500
  23891829.130    -4902939.493 6  -3761616.860 5        12.500           8.500
  24123486.700    -2768686.285 5  -2091119.017 5         9.250           6.750
 93  3 31 20  4 45.0010000  0  8G18G 2G19G27G28G29G11G16
  21620656.458     4718620.247 7   3692186.548 6        25.250          16.500
  23381583.177    -7265049.345 6  -5589670.183 5        15.000          10.750
  21115030.927    -2973126.128 7     57086.55822        20.250           2.375
  21721742.169   -15151874.441 7 -11727647.704 6        23.000          15.750
  24388969.630     -651653.917 5   -455113.038 5        10.000           7.500
  24353247.606    17875476.109 5  13896501.376 5         8.500           6.500
  23887210.989    -4927190.388 6  -3780513.610 5        13.000           8.750
  24121401.583    -2779666.372 5  -2099674.961 5         8.750           6.500
 93  3 31 20  5  0.0010000  0  8G18G 2G19G27G28G29G11G16
  21627588.950     4755058.338 7   3720579.827 6        25.500          16.500
  23374577.880    -7301865.101 6  -5618357.714 5        15.250          10.750
  21116368.935    -2966137.374 6     62532.33722        19.750           2.375
  21717381.888   -15174764.544 7 -11745484.135 6        23.000          15.750
  24394475.263     -622707.660 5   -432557.535 5        10.000           7.750
  24363462.497    17929109.032 5  13938293.095 5         8.750           6.500
  23882618.614    -4951327.423 6  -3799321.642 5        12.750           8.750
  24119332.974    -2790510.111 5  -2108124.650 5         8.750           6.750
 93  3 31 20  5 15.0010000  0  8G18G 2G19G27G28G29G11G16
  21634543.989     4791600.270 7   3749054.027 6        25.500          16.500
  23367584.536    -7338619.659 6  -5646997.566 5        15.250          11.000
  21117699.216    -2959097.835 7     68017.69322        20.250           2.406
  21713033.521   -15197614.848 7 -11763289.539 6        22.750          15.750
  24400006.403     -593641.684 5   -409908.736 5         9.750           7.750
  24373665.317    17982788.617 5  13980121.187 5         8.750           6.500
  23878051.442    -4975348.692 6  -3818039.477 5        13.250           8.500
  24117302.778    -2801216.122 5  -2116467.046 5         9.000           6.500
 93  3 31 20  5 30.0010000  0  8G18G 2G19G27G28G29G11G16
  21641515.817     4828242.199 7   3777606.144 6        25.250          16.500
  23360601.099    -7375319.836 6  -5675595.042 5        15.500          10.750
  21119047.177    -2952012.496 7     73538.73122        20.250           2.406
  21708695.997   -15220424.835 7 -11781063.540 6        22.750          15.750
  24405568.583     -564452.728 5   -387164.113 5        10.250           7.500
  24383890.474    18036516.601 5  14021986.987 5         8.500           6.500
  23873501.903    -4999255.148 6  -3836667.824 5        13.250           8.750
  24115291.841    -2811788.588 5  -2124705.370 5         9.250           6.500
 93  3 31 20  5 45.0010000  0  8G18G 2G19G27G28G29G11G16
  21648509.958     4864989.539 7   3806240.400 6        25.250          16.500
  23353626.989    -7411961.932 6  -5704147.257 5        15.250          11.000
  21120405.903    -2944881.186 7     79095.59723        20.000           2.500
  21704362.700   -15243189.630 7 -11798802.323 6        22.750          16.000
  24411144.067     -535134.224 5   -364318.545 5        10.000           7.250
  24394129.880    18090298.860 5  14063895.072 5         8.750           6.500
  23868971.130    -5023041.946 6  -3855202.938 5        13.500           8.500
  24113301.888    -2822220.741 5  -2132834.351 5         9.000           6.500
 93  3 31 20  6  0.0010000  0  8G18G 2G19G27G28G29G11G16
  21655522.646     4901839.708 7   3834954.785 6        25.500          16.250
  23346662.958    -7448544.099 6  -5732652.772 5        15.250          11.000
  21121776.653    -2937703.769 6     84688.37823        19.500           2.500
  21700041.528   -15265906.178 7 -11816503.512 6        22.750          16.000
  24416742.786     -505688.085 5   -341373.512 5        10.000           7.500
  24404376.575    18144136.333 5  14105846.190 5         9.000           6.500
  23864472.060    -5046709.361 6  -3873645.018 5        13.750           8.500
  24111347.974    -2832511.965 5  -2140853.513 5         9.250           6.500
 93  3 31 20  6 15.0010000  0  8G18G 2G19G27G28G29G11G16
  21662556.552     4938790.892 7   3863747.882 6        25.500          16.250
  23339716.903    -7485064.138 6  -5761109.879 5        15.500          11.000
  21123145.974    -2930477.826 6     90318.99022        19.750           2.469
  21695724.028   -15288570.459 7 -11834163.967 6        22.500          16.000
  24422372.966     -476114.521 5   -318329.200 5        10.250           7.250
  24414629.013    18198027.863 5  14147839.414 5         8.750           6.500
  23859990.653    -5070256.035 6  -3891993.017 5        13.750           8.500
  24109418.122    -2842663.467 5  -2148763.837 5         9.000           6.500
 93  3 31 20  6 30.0010000  0  8G18G 2G19G27G28G29G11G16
  21669604.356     4975850.006 7   3892625.078 6        25.500          16.250
  23332778.849    -7521516.767 6  -5789514.464 5        15.000          11.250
  21124540.099    -2923198.692 6     95991.04023        19.500           2.500
  21691422.497   -15311177.066 7 -11851779.490 6        22.500          16.000
  24428026.356     -446407.083 5   -295180.550 5        10.000           7.500
  24424898.833    18251974.363 5  14189875.489 5         9.000           6.500
  23855535.028    -5093676.408 6  -3910242.598 5        13.750           8.500
  24107515.216    -2852671.084 5  -2156562.003 5         9.250           6.500
 93  3 31 20  6 45.0010000  0  8G18G 2G19G27G28G29G11G16
  21676682.778     5013014.782 7   3921584.608 6        25.250          16.250
  23325853.536    -7557905.764 6  -5817869.463 5        15.250          11.250
  21125925.396    -2915869.068 6    101702.43022        19.750           2.375
  21687128.802   -15333732.236 7 -11869354.925 6        22.500          16.250
  24433706.130     -416568.132 5   -271929.446 5        10.500           7.250
  24435177.474    18305971.702 5  14231951.167 5         9.000           6.500
  23851099.560    -5116972.786 6  -3928395.559 5        13.750           8.500
  24105634.364    -2862539.840 5  -2164251.977 5         9.250           6.750
 93  3 31 20  7  0.0010000  0  8G18G 2G19G27G28G29G11G16
  21683773.849     5050285.588 7   3950626.758 6        25.500          16.500
  23318940.067    -7594230.985 6  -5846174.762 5        15.250          11.250
  21127336.755    -2908488.414 6    107453.59122        19.500           2.406
  21682850.481   -15356236.915 7 -11886891.017 6        22.500          16.250
  24439406.075     -386598.925 5   -248576.810 5        10.250           7.500
  24445457.646    18360017.595 5  14274064.685 5         8.750           6.500
  23846692.294    -5140145.240 6  -3946451.958 5        13.750           8.500
  24103779.825    -2872273.028 5  -2171836.308 5         8.750           6.750
 93  3 31 20  7 15.0010000  0  8G18G 2G19G27G28G29G11G16
  21690885.521     5087662.014 7   3979751.210 6        25.750          16.250
  23312042.630    -7630493.722 6  -5874431.382 5        15.250          11.250
  21128745.036    -2901053.927 7    113246.69422        20.000           2.438
  21678577.278   -15378692.283 7 -11904388.695 6        22.500          16.250
  24445131.833     -356500.769 5   -225123.720 5         9.750           7.000
  24455749.067    18414109.667 5  14316214.177 5         9.000           6.750
  23842302.153    -5163193.682 6  -3964411.719 5        13.750           8.500
  24101955.403    -2881870.868 5  -2179315.193 5         9.000           6.500
 93  3 31 20  7 30.0010000  0  8G18G 2G19G27G28G29G11G16
  21698013.458     5125138.644 7   4008953.744 6        25.750          16.250
  23305151.888    -7666699.002 6  -5902643.227 5        15.500          11.500
  21130178.302    -2893569.897 6    119078.40422        19.500           2.344
  21674309.747   -15401105.019 7 -11921853.147 6        22.250          16.500
  24450888.419     -326281.851 5   -201576.525 5        10.500           7.250
  24466048.474    18468242.781 5  14358395.646 5         8.750           6.750
  23837942.466    -5186124.029 6  -3982279.461 5        13.750           8.500
  24100156.294    -2891338.324 5  -2186692.465 5         9.000           6.500
 93  3 31 20  7 45.0010000  0  8G18G 2G19G27G28G29G11G16
  21705162.810     5162715.894 7   4038234.684 6        25.500          16.250
  23298274.317    -7702845.935 6  -5930809.603 5        15.250          11.500
  21131604.919    -2886035.159 6    124949.62922        19.750           2.375
  21670052.044   -15423475.882 7 -11939284.967 6        22.250          16.500
  24456657.560     -295945.245 5   -177937.627 5         9.750           7.250
  24476361.646    18522414.197 5  14400606.967 5         8.750           6.750
  23833600.052    -5208938.160 6  -4000056.641 5        13.750           8.500
  24098373.700    -2900674.670 5  -2193967.564 5         9.000           6.500
 93  3 31 20  8  0.0010000  0  8G18G 2G19G27G28G29G11G16
  21712336.380     5200392.708 7   4067593.201 6        26.000          16.500
  23291407.356    -7738932.331 6  -5958928.811 5        15.500          11.500
  21133051.271    -2878448.075 6    130861.64322        19.250           2.438
  21665807.356   -15445805.216 7 -11956684.442 6        22.750          16.500
  24462450.997     -265495.346 5   -154210.454 5        10.250           7.500
  24486674.630    18576621.564 5  14442846.295 5         8.750           6.750
  23829274.638    -5231636.462 6  -4017743.571 5        14.000           8.500
  24096619.427    -2909878.396 5  -2201139.353 5         9.000           6.500
 93  3 31 20  8 15.0010000  0  8G18G 2G19G27G28G29G11G16
  21719526.622     5238174.174 7   4097033.270 6        25.500          16.500
  23284550.685    -7774954.363 6  -5986997.875 5        15.000          11.500
  21134507.888    -2870800.379 6    136820.87922        19.750           2.469
  21661562.919   -15468089.440 7 -11974048.747 6        22.750          16.500
  24468273.755     -234927.629 5   -130391.472 5        10.500           7.500
  24497000.536    18630868.883 5  14485116.746 5         8.750           6.750
  23824985.130    -5254213.902 6  -4035336.323 5        14.250           8.500
  24094894.817    -2918946.836 5  -2208205.705 5         9.000           6.500
 93  3 31 20  8 30.0010000  0  8G18G 2G19G27G28G29G11G16
  21726733.169     5276062.135 7   4126556.320 6        25.500          16.250
  23277705.880    -7810913.864 6  -6015018.196 5        15.250          11.500
  21135974.380    -2863093.477 6    142826.25922        19.250           2.406
  21657333.528   -15490328.967 7 -11991378.239 6        22.750          16.500
  24474106.896     -204242.320 5   -106480.849 5        10.000           7.500
  24507330.169    18685156.096 5  14527418.297 5         8.500           6.750
  23820704.747    -5276671.040 6  -4052835.332 5        13.500           8.500
  24093197.146    -2927880.728 5  -2215167.215 5         9.000           6.500
 93  3 31 20  8 45.0010000  0  8G18G 2G19G27G28G29G11G16
  21733962.091     5314058.900 7   4156164.156 6        25.000          16.250
  23270877.036    -7846807.891 6  -6042987.509 5        15.500          11.500
  21137447.825    -2855324.054 6    148880.35122        19.750           2.469
  21653108.778   -15512520.176 7 -12008670.071 6        22.750          16.750
  24479972.575     -173436.794 5    -82476.567 5        10.750           7.250
  24517666.044    18739489.262 5  14569755.643 5         8.250           6.750
  23816456.786    -5299005.113 6  -4070238.444 5        13.750           8.500
  24091524.099    -2936676.730 5  -2222021.272 5         9.000           6.500
 93  3 31 20  9  0.0010000  0  8G18G 2G19G27G28G29G11G16
  21741216.974     5352167.433 7   4185859.079 6        25.250          16.250
  23264056.153    -7882630.351 6  -6070901.053 5        15.500          11.500
  21138944.419    -2847484.254 6    154989.28822        19.250           2.375
  21648896.560   -15534656.261 7 -12025918.955 6        22.500          16.750
  24485859.474     -142507.492 5    -58375.825 5        10.500           7.500
  24528015.685    18793877.317 5  14612135.760 5         8.250           6.500
  23812235.216    -5321209.592 6  -4087540.577 5        14.000           8.500
  24089876.747    -2945326.609 5  -2228761.480 5         9.000           6.500
 93  3 31 20  9 15.0010000  0  8G18G 2G19G27G28G29G11G16
  21748491.114     5390385.926 7   4215639.684 6        25.250          16.250
  23257255.622    -7918382.125 6  -6098759.516 5        15.500          11.500
  21140443.200    -2839575.605 6    161151.86822        19.750           2.406
  21644693.896   -15556737.936 7 -12043125.438 6        23.000          16.750
  24491763.974     -111457.947 5    -34181.385 5        10.250           7.250
  24538380.966    18848318.469 5  14654557.247 5         8.500           6.500
  23808032.622    -5343286.697 6  -4104743.498 5        14.000           8.500
  24088261.005    -2953830.563 5  -2235387.972 5         8.750           6.500
 93  3 31 20  9 30.0010000  0  8G18G 2G19G27G28G29G11G16
  21755783.888     5428706.678 7   4245499.971 6        25.250          16.250
  23250467.388    -7954069.172 6  -6126567.545 5        15.500          11.750
  21141969.919    -2831605.574 6    167362.27223        19.500           2.531
  21640500.177   -15578771.528 7 -12060294.459 6        23.000          16.750
  24497695.778      -80294.204 5     -9897.965 5        10.500           7.250
  24548744.146    18902807.508 5  14697016.057 5         8.000           5.750
  23803851.731    -5365243.605 6  -4121852.678 5        13.750           8.500
  24086666.435    -2962192.070 5  -2241903.473 5         9.000           6.500
 93  3 31 20  9 45.0010000  0  8G18G 2G19G27G28G29G11G16
  21763095.935     5467133.748 7   4275443.102 6        25.000          16.000
  23243688.052    -7989684.135 6  -6154319.409 5        15.500          11.500
  21143491.661    -2823572.469 7    173621.83422        20.000           2.438
  21636321.044   -15600750.945 7 -12077421.267 6        23.000          16.750
  24503649.450      -49011.425 5     14478.217 5        10.250           7.250
  24559118.661    18957347.217 5  14739514.329 5         7.750           6.250
  23799694.091    -5387076.530 6  -4138865.306 5        14.000           8.500
  24085104.192    -2970409.114 5  -2248306.397 5         9.000           6.750
 93  3 31 20 10  0.0010000  0  8G18G 2G19G27G28G29G11G16
  21770427.255     5505670.473 7   4305471.681 6        25.000          16.250
  23236926.067    -8025222.230 6  -6182011.368 5        15.500          11.500
  21145035.169    -2815472.712 6    179933.33422        19.250           2.406
  21632149.575   -15622670.852 7 -12094501.697 6        23.000          16.750
  24509623.833      -17601.830 5     38953.214 5        10.250           7.500
  24569519.935    19011941.621 5  14782055.243 5         8.000           6.250
  23795570.888    -5408779.079 6  -4155776.323 5        14.250           8.500
  24083572.364    -2978477.836 5  -2254593.754 5         9.000           6.500
 93  3 31 20 10 15.0010000  0  8G18G 2G19G27G28G29G11G16
  21777780.755     5544315.185 7   4335584.409 6        24.750          16.250
  23230174.763    -8060684.383 6  -6209644.157 5        15.500          11.500
  21146584.505    -2807307.476 6    186295.85222        19.750           2.344
  21627989.075   -15644533.273 7 -12111537.333 6        23.250          17.000
  24515628.005       13932.920 5     63525.728 5        10.500           7.750
  24579915.450    19066591.238 5  14824639.162 5         7.500           6.000
  23791467.950    -5430350.519 6  -4172585.190 5        14.000           8.500
  24082062.216    -2986401.542 5  -2260768.102 5         8.750           6.500
 93  3 31 20 10 30.0010000  0  8G18G 2G19G27G28G29G11G16
  21785156.075     5583064.756 7   4365778.836 6        25.000          16.250
  23223442.942    -8096074.990 6  -6237221.195 5        16.000          11.500
  21148155.794    -2799082.873 6    192704.63122        19.500           2.438
  21623838.435   -15666341.496 7 -12128530.745 6        23.250          17.000
  24521648.536       45588.224 5     88192.181 5        10.000           7.750
  24590325.872    19121292.523 4  14867263.344 5         7.250           6.000
  23787379.958    -5451795.124 6  -4189295.212 5        13.750           8.500
  24080580.169    -2994187.790 5  -2266835.337 5         9.000           6.500
 93  3 31 20 10 45.0010000  0  8G18G 2G19G27G28G29G11G16
  21792552.130     5621922.087 7   4396057.237 6        24.750          16.250
  23216723.497    -8131388.779 6  -6264738.372 5        16.000          11.750
  21149728.208    -2790795.922 6    199161.99522        19.750           2.438
  21619699.505   -15688092.217 7 -12145479.340 6        23.500          17.000
  24527696.567       77367.944 5    112955.565 5        10.000           7.750
  24600739.833    19176049.614 5  14909931.008 5         7.500           6.000
  23783324.216    -5473108.457 6  -4205902.960 5        14.000           8.500
  24079126.661    -3001832.007 5  -2272791.924 5         8.750           6.500
 93  3 31 20 11  0.0010000  0  8G18G 2G19G27G28G29G11G16
  21799962.325     5660883.437 7   4426416.688 6        24.500          16.250
  23210015.544    -8166626.569 6  -6292196.335 5        15.750          11.500
  21151326.888    -2782446.846 6    205667.76423        18.750           2.531
  21615569.880   -15709791.155 7 -12162387.587 6        23.750          17.000
  24533774.005      109272.391 5    137816.161 5        10.250           7.750
  24611184.372    19230857.513 4  14952638.264 5         7.000           5.750
  23779298.263    -5494291.880 6  -4222409.476 5        14.250           8.500
  24077697.231    -3009336.310 5  -2278639.466 5         9.250           6.750
 93  3 31 20 11 15.0010000  0  7G18G 2G19G27G28G11G16
  21807395.060     5699945.253 7   4456854.436 6        24.250          16.250
  23203324.224    -8201793.639 6  -6319599.187 5        16.000          11.500
  21152918.669    -2774042.807 6    212216.36122        19.750           2.406
  21611447.638   -15731445.882 7 -12179261.389 6        23.500          17.000
  24539863.294      141294.924 5    162768.771 5        10.000           7.750
  23775288.935    -5515351.947 6  -4238819.864 5        14.250           8.500
  24076298.802    -3016708.411 5  -2284383.987 5         9.000           6.500
 93  3 31 20 11 30.0010000  0  7G18G 2G19G27G28G11G16
  21814846.927     5739104.119 7   4487367.801 6        24.250          16.250
  23196643.731    -8236894.667 6  -6346950.576 5        16.000          11.500
  21154522.888    -2765589.556 6    218803.30222        19.750           2.438
  21607340.146   -15753059.627 7 -12196103.252 6        24.000          17.250
  24545973.935      173433.126 5    187811.511 5         9.500           7.750
  23771305.513    -5536292.536 6  -4255137.156 5        14.250           8.750
  24074920.497    -3023953.432 5  -2290029.490 5         9.250           6.750
 93  3 31 20 11 45.0010000  0  7G18G 2G19G27G28G11G16
  21822319.521     5778362.259 7   4517958.517 6        24.250          16.000
  23189976.739    -8271925.695 6  -6374247.435 5        16.000          11.500
  21156141.833    -2757081.770 6    225432.74322        19.750           2.375
  21603233.341   -15774629.051 7 -12212910.584 6        24.000          17.250
  24552116.403      205691.037 5    212947.509 5         9.500           7.500
  23767339.169    -5557108.306 6  -4271357.193 5        14.250           8.750
  24073557.239    -3031070.124 5  -2295574.995 5         9.000           6.500
 93  3 31 20 12  0.0010000  0  7G18G 2G19G27G28G11G16
  21829807.130     5817718.843 7   4548625.942 6        24.500          16.000
  23183325.771    -8306891.397 6  -6401493.379 5        16.000          11.500
  21157787.622    -2748522.507 6    232102.28423        18.500           2.500
  21599136.872   -15796154.787 7 -12229683.868 6        24.000          17.000
  24558278.200      238067.389 5    238175.816 5         9.500           7.500
  23763404.435    -5577799.972 6  -4287480.530 5        14.500           8.750
  24072229.864    -3038062.355 5  -2301023.535 5         9.250           6.750
 93  3 31 20 12 15.0010000  0  7G18G 2G19G27G28G11G16
  21837316.833     5857171.922 7   4579368.559 6        24.250          15.750
  23176684.458    -8341797.584 6  -6428692.943 5        15.500          11.500
  21159410.380    -2739912.917 6    238811.05222        19.750           2.469
  21595048.700   -15817641.316 7 -12246426.605 6        24.000          17.000
  24564457.278      270557.559 5    263492.811 5         9.250           7.500
  23759493.224    -5598370.051 6  -4303509.109 5        14.500           8.750
  24070922.786    -3044933.129 5  -2306377.401 5         9.000           6.500
 93  3 31 20 12 30.0010000  0  7G18G 2G19G27G28G11G16
  21844847.896     5896731.050 7   4610193.814 6        24.250          16.000
  23170050.731    -8376638.220 6  -6455841.441 5        15.750          11.500
  21161058.731    -2731244.750 6    245565.47123        19.750           2.531
  21590967.481   -15839080.383 7 -12263132.356 6        24.250          17.250
  24570666.630      303166.036 5    288901.987 5         9.500           7.250
  23755596.716    -5618812.142 6  -4319437.980 5        14.500           8.750
  24069634.442    -3051674.516 5  -2311630.481 5         9.000           6.500
 93  3 31 20 12 45.0010000  0  7G18G 2G19G27G28G11G16
  21852392.278     5936390.171 7   4641096.983 6        24.250          15.750
  23163432.763    -8411418.029 6  -6482942.529 5        15.750          11.500
  21162716.067    -2722522.567 6    252361.96323        19.750           2.500
  21586898.638   -15860478.785 7 -12279806.423 6        23.750          17.250
  24576887.489      335888.595 5    314400.067 5         9.000           7.000
  23751725.841    -5639130.974 6  -4335270.788 5        14.250           8.750
  24068382.653    -3058288.572 5  -2316784.317 5         9.250           6.500
 93  3 31 20 13  0.0010000  0  7G18G 2G19G27G28G11G16
  21859954.481     5976146.193 7   4672075.662 6        24.250          15.750
  23156826.958    -8446138.550 6  -6509997.420 5        15.750          11.750
  21164392.153    -2713747.433 6    259199.72322        19.750           2.438
  21582831.614   -15881839.881 7 -12296451.416 6        24.000          17.250
  24583138.028      368723.905 5    339986.000 5        10.000           7.250
  23747886.825    -5659327.543 6  -4351008.331 5        14.500           8.750
  24067146.122    -3064774.369 5  -2321838.218 5         9.250           6.500
 93  3 31 20 13 15.0010000  0  7G18G 2G19G27G28G11G16
  21867540.599     6015998.903 7   4703129.686 6        24.500          15.750
  23150231.763    -8480801.577 6  -6537007.514 5        15.750          11.750
  21166067.317    -2704920.513 6    266077.83923        19.750           2.500
  21578768.271   -15903161.622 7 -12313065.739 6        24.000          17.250
  24589414.544      401668.244 5    365656.878 5         9.500           7.250
  23744073.958    -5679402.950 6  -4366651.462 5        14.250           8.500
  24065939.317    -3071131.759 5  -2326792.082 5         9.000           6.500
 93  3 31 20 13 30.0010000  0  7G18G 2G19G27G28G11G16
  21875144.099     6055952.757 7   4734262.518 6        24.250          15.750
  23143643.310    -8515403.129 6  -6563969.711 5        16.000          11.750
  21167773.294    -2696039.450 6    272998.13923        18.250           2.563
  21574724.669   -15924436.224 7 -12329643.340 6        24.500          17.500
  24595699.356      434723.620 5    391414.309 5         9.250           7.000
  23740280.622    -5699351.485 6  -4382195.736 5        14.750           8.500
  24064754.802    -3077355.531 5  -2331641.801 5         9.000           6.500
 93  3 31 20 13 45.0010000  0  7G18G 2G19G27G28G11G16
  21882763.989     6096006.792 7   4765473.411 6        24.250          15.500
  23137075.349    -8549940.004 6  -6590881.503 5        16.000          11.750
  21169457.630    -2687102.557 6    279961.94223        19.750           2.500
  21570686.099   -15945661.736 7 -12346182.687 6        24.500          17.500
  24602011.536      467892.114 5    417259.865 5         9.500           7.000
  23736504.442    -5719170.623 6  -4397639.196 5        14.250           8.750
  24063599.630    -3083443.593 5  -2336385.796 5         9.500           6.500
 93  3 31 20 14  0.0010000  0  7G18G 2G19G27G28G11G16
  21890405.778     6136161.625 7   4796762.844 6        24.250          15.500
  23130512.169    -8584412.658 6  -6617743.253 5        16.000          11.750
  21171184.661    -2678110.016 6    286969.11823        18.000           2.531
  21566654.333   -15966838.754 7 -12362684.246 6        24.500          17.500
  24608343.091      501172.905 5    443192.923 5        10.000           6.750
  23732758.396    -5738860.394 6  -4412981.828 5        14.000           8.500
  24062460.044    -3089394.595 5  -2341022.973 5         9.250           6.500
 93  3 31 20 14 15.0010000  0  7G18G 2G19G27G28G11G16
  21898063.536     6176412.124 7   4828126.826 6        24.250          15.500
  23123965.771    -8618825.344 6  -6644558.275 5        16.000          11.750
  21172891.138    -2669067.109 6    294015.52222        19.500           2.469
  21562633.442   -15987973.123 7 -12379152.569 6        24.500          17.500
  24614700.208      534561.766 5    469210.198 5        10.000           6.750
  23729030.067    -5758425.920 6  -4428227.657 5        14.500           8.750
  24061354.060    -3095210.077 5  -2345554.569 5         9.250           6.500
 93  3 31 20 14 30.0010000  0  7G18G 2G19G27G28G11G16
  21905745.216     6216761.466 7   4859567.831 6        24.000          15.250
  23117430.481    -8653170.299 6  -6671320.519 5        16.000          11.750
  21174640.786    -2659968.192 6    301105.58123        17.750           2.500
  21558621.802   -16009060.117 7 -12395583.974 6        24.750          17.500
  24621071.771      568060.890 5    495313.395 5        10.000           6.750
  23725329.271    -5777862.548 6  -4443373.045 5        14.750           8.500
  24060277.263    -3100881.937 5  -2349974.228 5         9.250           6.500
 93  3 31 20 14 45.0010000  0  7G18G 2G19G27G28G11G16
  21913438.825     6257204.845 7   4891082.110 6        24.000          15.250
  23110907.591    -8687448.408 6  -6698030.677 5        16.250          11.750
  21176363.177    -2650816.681 6    308236.62222        19.500           2.438
  21554614.622   -16030105.463 7 -12411982.932 6        24.500          17.500
  24627463.763      601667.993 5    521500.719 5         9.250           6.750
  23721660.927    -5797173.480 6  -4458420.492 5        14.500           8.500
  24059219.435    -3106411.136 5  -2354282.746 5         9.250           6.500
 93  3 31 20 15  0.0010000  0  7G18G 2G19G27G28G11G16
  21921156.591     6297751.094 7   4922676.544 6        24.000          15.250
  23104400.638    -8721650.728 6  -6724681.778 5        16.250          11.750
  21178119.450    -2641603.609 6    315415.63222        19.250           2.438
  21550620.294   -16051100.844 7 -12428342.937 6        24.500          17.500
  24633884.513      635393.295 5    547780.154 5         9.750           6.750
  23718011.989    -5816349.541 6  -4473362.849 5        14.500           8.750
  24058201.935    -3111790.492 5  -2358474.488 5         9.000           6.250
 93  3 31 20 15 15.0010000  0  7G18G 2G19G27G28G11G16
  21928891.911     6338395.614 7   4954347.554 6        24.000          15.250
  23097901.435    -8755784.340 6  -6751279.341 5        16.500          11.750
  21179878.606    -2632337.626 6    322635.87422        19.500           2.469
  21546636.349   -16072050.251 7 -12444667.143 6        24.500          17.500
  24640326.646      669229.726 5    574146.180 5         9.500           6.750
  23714382.950    -5835397.802 6  -4488205.614 5        14.000           8.750
  24057199.528    -3117027.697 5  -2362555.466 5         9.000           6.250
 93  3 31 20 15 30.0010000  0  7G18G 2G19G27G28G11G16
  21936644.841     6379144.391 7   4986099.805 6        23.750          15.000
  23091425.646    -8789845.433 6  -6777820.390 5        16.500          11.750
  21181659.653    -2623013.716 6    329901.25423        19.250           2.563
  21542658.325   -16092945.757 7 -12460949.340 6        24.500          17.500
  24646785.583      703181.696 5    600602.246 5         9.500           6.750
  23710782.856    -5854313.076 6  -4502944.756 5        14.500           8.750
  24056232.403    -3122118.213 5  -2366522.125 5         8.750           6.500
 93  3 31 20 15 45.0010000  0  6G18G 2G19G27G11G16
  21944422.896     6420003.583 7   5017938.088 6        23.750          15.000
  23084954.091    -8823828.628 6  -6804300.749 5        16.750          11.750
  21183444.255    -2613625.255 6    337216.92923        19.500           2.531
  21538691.341   -16113782.391 7 -12477185.662 6        24.750          17.500
  23707212.489    -5873089.620 6  -4517575.796 5        14.500           8.750
  24055292.146    -3127058.124 5  -2370371.447 5         9.000           6.500
